[[{"header":{"parameterUnit":"m.s-1","parameterCategory":1,"la1":31.0,"la2":29.5877,"lo1":-88.7671,"lo2":-86.6584,"dy":0.0162,"dx":0.0185,"nx":115,"ny":88,"refTime":"2024-06-08T06:00:00:Z","depth":0,"parameterNumber":2,"parameterNumberName":"U-component_of_WINDS"},"data":[0.0,0.0,0.0,0.0,0.0,0.0,0.0,0.0,0.0,0.0,0.0,0.0,0.0,0.0,0.0,0.0,0.0,0.0,0.0,0.0,0.0,0.0,0.0,0.0,0.0,0.0,0.0,0.0,0.0,0.0,0.0,0.0,0.0,0.0,0.0,0.0,0.0,0.0,0.0,0.0,0.0,0.0,0.0,0.0,0.0,0.0,0.0,0.0,0.0,0.0,0.0,0.0,0.0,0.0,0.0,0.0,0.0,0.0,0.0,0.0,0.0,0.0,0.0,0.0,0.0,0.0,0.0,0.0,0.0,0.0,0.0,0.0,0.0,0.0,0.0,0.0,0.0,0.0,0.0,0.0,0.0,0.0,0.0,0.0,0.0,0.0,0.0,0.0,0.0,0.0,0.0,0.0,0.0,0.0,0.0,0.0,0.0,0.0,0.0,0.0,0.0,0.0,0.0,0.0,0.0,0.0,0.0,0.0,0.0,0.0,0.0,0.0,0.0,0.0,0.0,0.0,0.0,0.0,0.0,0.0,0.0,0.0,0.0,0.0,0.0,0.0,0.0,0.0,0.0,0.0,0.0,0.0,0.0,0.0,0.0,0.0,0.0,0.0,0.0,0.0,0.0,0.0,0.0,0.0,0.0,0.0,0.0,0.0,0.0,0.0,0.0,0.0,0.0,0.0,0.0,0.0,0.0,0.0,0.0,0.0,0.0,0.0,0.0,0.0,0.0,0.0,0.0,0.0,0.0,0.0,0.0,0.0,0.0,0.0,0.0,0.0,0.0,0.0,0.0,0.0,0.0,0.0,0.0,0.0,0.0,0.0,0.0,0.0,0.0,0.0,0.0,0.0,0.0,0.0,0.0,0.0,0.0,0.0,0.0,0.0,0.0,0.0,0.0,0.0,0.0,0.0,0.0,0.0,0.0,0.0,0.0,0.0,0.0,0.0,0.0,0.0,0.0,0.0,0.0,0.0,0.0,0.0,0.0,0.0,0.0,0.0,0.0,0.0,0.0,0.0,0.0,0.0,0.0,0.0,0.0,0.0,0.0,0.0,0.0,0.0,0.0,0.0,0.0,0.0,0.0,0.0,0.0,0.0,0.0,0.0,0.0,0.0,0.0,0.0,0.0,0.0,0.0,0.0,0.0,0.0,0.0,0.0,0.0,0.0,0.0,0.0,0.0,0.0,0.0,0.0,0.0,0.0,0.0,0.0,0.0,0.0,0.0,0.0,0.0,0.0,0.0,0.0,0.0,0.0,0.0,0.0,0.0,0.0,0.0,0.0,0.0,0.0,0.0,0.0,0.0,0.0,0.0,0.0,0.0,0.0,0.0,0.0,0.0,0.0,0.0,0.0,0.0,0.0,0.0,0.0,0.0,0.0,0.0,0.0,0.0,0.0,0.0,0.0,0.0,0.0,0.0,0.0,0.0,0.0,0.0,0.0,0.0,0.0,0.0,0.0,0.0,0.0,0.0,0.0,0.0,0.0,0.0,0.0,0.0,0.0,0.0,0.0,0.0,0.0,0.0,0.0,0.0,0.0,0.0,0.0,0.0,0.0,0.0,0.0,0.0,0.0,0.0,0.0,0.0,0.0,0.0,0.0,0.0,0.0,0.0,0.0,0.0,0.0,0.0,0.0,0.0,0.0,0.0,0.0,0.0,0.0,0.0,0.0,0.0,0.0,0.0,0.0,0.0,0.0,0.0,0.0,0.0,0.0,0.0,0.0,0.0,0.0,0.0,0.0,0.0,0.0,0.0,0.0,0.0,0.0,0.0,0.0,0.0,0.0,0.0,0.0,0.0,0.0,0.0,0.0,0.0,0.0,0.0,0.0,0.0,0.0,0.0,0.0,0.0,0.0,0.0,0.0,0.0,0.0,0.0,0.0,0.0,0.0,0.0,0.0,0.0,0.0,0.0,0.0,0.0,0.0,0.0,0.0,0.0,0.0,0.0,0.0,0.0,0.0,0.0,0.0,0.0,0.0,0.0,0.0,0.0,0.0,0.0,0.0,0.0,0.0,0.0,0.0,0.0,0.0,0.0,0.0,0.0,0.0,0.0,0.0,0.0,0.0,0.0,0.0,0.0,0.0,0.0,0.0,0.0,0.0,0.0,0.0,0.0,0.0,0.0,0.0,0.0,0.0,0.0,0.0,0.0,0.0,0.0,0.0,0.0,0.0,0.0,0.0,0.0,0.0,0.0,0.0,0.0,0.0,0.0,0.0,0.0,0.0,0.0,0.0,0.0,0.0,0.0,0.0,0.0,0.0,0.0,0.0,0.0,0.0,0.0,0.0,0.0,0.0,0.0,0.0,0.0,0.0,0.0,0.0,0.0,0.0,0.0,0.0,0.0,0.0,0.0,0.0,0.0,0.0,0.0,0.0,0.0,0.0,0.0,0.0,0.0,0.0,0.0,0.0,0.0,0.0,0.0,0.0,0.0,0.0,0.0,0.0,0.0,0.0,0.0,0.0,0.0,0.0,0.0,0.0,0.0,0.0,0.0,0.0,0.0,0.0,0.0,0.0,0.0,0.0,0.0,0.0,0.0,0.0,0.0,0.0,0.0,0.0,0.0,0.0,0.0,0.0,0.0,0.0,0.0,0.0,0.0,0.0,0.0,0.0,0.0,0.0,0.0,0.0,0.0,0.0,0.0,0.0,0.0,0.0,0.0,0.0,0.0,0.0,0.0,0.0,0.0,0.0,0.0,0.0,0.0,0.0,0.0,0.0,0.0,0.0,0.0,0.0,0.0,0.0,0.0,0.0,0.0,0.0,0.0,0.0,0.0,0.0,0.0,0.0,0.0,0.0,0.0,0.0,0.0,0.0,0.0,0.0,0.0,0.0,0.0,0.0,0.0,0.0,0.0,0.0,0.0,0.0,0.0,0.0,0.0,0.0,0.0,0.0,0.0,0.0,0.0,0.0,0.0,0.0,0.0,0.0,0.0,0.0,0.0,0.0,0.0,0.0,0.0,0.0,0.0,0.0,0.0,0.0,0.0,0.0,0.0,0.0,0.0,0.0,0.0,0.0,0.0,0.0,0.0,0.0,0.0,0.0,0.0,0.0,0.0,0.0,0.0,0.0,0.0,0.0,0.0,0.0,0.0,0.0,0.0,0.0,0.0,0.0,0.0,0.0,0.0,0.0,0.0,0.0,0.0,0.0,0.0,0.0,0.0,0.0,0.0,0.0,0.0,0.0,0.0,0.0,0.0,0.0,0.0,0.0,0.0,0.0,0.0,0.0,0.0,0.0,0.0,0.0,0.0,0.0,0.0,0.0,0.0,0.0,0.0,0.0,0.0,0.0,0.0,0.0,0.0,0.0,0.0,0.0,0.0,0.0,0.0,0.0,0.0,0.0,0.0,0.0,0.0,0.0,0.0,0.0,0.0,0.0,0.0,0.0,0.0,0.0,0.0,0.0,0.0,0.0,0.0,0.0,0.0,0.0,0.0,0.0,0.0,0.0,0.0,0.0,0.0,0.0,0.0,0.0,0.0,0.0,0.0,0.0,0.0,0.0,0.0,0.0,0.0,0.0,0.0,0.0,0.0,0.0,0.0,0.0,0.0,0.0,0.0,0.0,0.0,0.0,0.0,0.0,0.0,0.0,0.0,0.0,0.0,0.0,0.0,0.0,0.0,0.0,0.0,0.0,0.0,0.0,0.0,0.0,0.0,0.0,0.0,0.0,0.0,0.0,0.0,0.0,0.0,0.0,0.0,0.0,0.0,0.0,0.0,0.0,0.0,0.0,0.0,0.0,0.0,0.0,0.0,0.0,0.0,0.0,0.0,0.0,0.0,0.0,0.0,0.0,0.0,0.0,0.0,0.0,0.0,0.0,0.0,0.0,0.0,0.0,0.0,0.0,0.0,0.0,0.0,0.0,0.0,0.0,0.0,0.0,0.0,0.0,0.0,0.0,0.0,0.0,0.0,0.0,0.0,0.0,0.0,0.0,0.0,0.0,0.0,0.0,0.0,0.0,0.0,0.0,0.0,0.0,0.0,0.0,0.0,0.0,0.0,0.0,0.0,0.0,0.0,0.0,0.0,0.0,0.0,0.0,0.0,0.0,0.0,0.0,0.0,0.0,0.0,0.0,0.0,0.0,0.0,0.0,0.0,0.0,0.0,0.0,0.0,0.0,0.0,0.0,0.0,0.0,0.0,0.0,0.0,0.0,0.0,0.0,0.0,0.0,0.0,0.0,0.0,0.0,0.0,0.0,0.0,0.0,0.0,0.0,0.0,0.0,0.0,0.0,0.0,0.0,0.0,0.0,0.0,0.0,-2.9676,0.0,0.0,0.0,0.0,0.0,0.0,0.0,0.0,0.0,0.0,0.0,0.0,0.0,0.0,0.0,0.0,0.0,0.0,0.0,0.0,0.0,0.0,0.0,0.0,0.0,0.0,0.0,0.0,0.0,0.0,0.0,0.0,0.0,0.0,0.0,0.0,0.0,0.0,0.0,0.0,0.0,0.0,0.0,0.0,0.0,0.0,0.0,0.0,0.0,0.0,0.0,0.0,0.0,0.0,0.0,0.0,0.0,0.0,0.0,0.0,0.0,0.0,0.0,0.0,0.0,0.0,0.0,0.0,0.0,0.0,0.0,0.0,0.0,0.0,0.0,0.0,0.0,0.0,0.0,0.0,0.0,0.0,0.0,0.0,0.0,0.0,0.0,0.0,0.0,0.0,0.0,0.0,0.0,0.0,0.0,0.0,0.0,0.0,0.0,0.0,0.0,0.0,0.0,0.0,0.0,0.0,0.0,0.0,0.0,0.0,-2.9485,-2.9485,-2.9898,-2.9737,-2.8963,0.0,0.0,0.0,0.0,0.0,0.0,0.0,0.0,0.0,0.0,0.0,0.0,0.0,0.0,0.0,0.0,0.0,0.0,0.0,0.0,0.0,0.0,0.0,0.0,0.0,0.0,0.0,0.0,0.0,0.0,0.0,0.0,0.0,0.0,0.0,0.0,0.0,0.0,0.0,0.0,0.0,0.0,0.0,0.0,0.0,0.0,0.0,0.0,0.0,0.0,0.0,0.0,0.0,0.0,0.0,0.0,0.0,0.0,0.0,0.0,0.0,0.0,0.0,0.0,0.0,0.0,0.0,0.0,0.0,0.0,0.0,0.0,0.0,0.0,0.0,0.0,0.0,0.0,0.0,0.0,0.0,0.0,0.0,0.0,0.0,0.0,0.0,0.0,0.0,0.0,0.0,0.0,0.0,0.0,0.0,0.0,0.0,0.0,0.0,0.0,0.0,0.0,0.0,0.0,0.0,0.0,0.0,0.0,0.0,0.0,0.0,0.0,-3.0011,-3.0169,-2.9547,0.0,0.0,0.0,0.0,0.0,0.0,0.0,0.0,0.0,0.0,0.0,0.0,0.0,0.0,0.0,0.0,0.0,0.0,0.0,0.0,0.0,0.0,0.0,0.0,0.0,0.0,0.0,0.0,0.0,0.0,0.0,0.0,0.0,0.0,0.0,0.0,0.0,0.0,0.0,0.0,0.0,0.0,0.0,0.0,0.0,0.0,0.0,0.0,0.0,0.0,0.0,0.0,0.0,0.0,0.0,0.0,0.0,0.0,0.0,0.0,0.0,0.0,0.0,0.0,0.0,0.0,0.0,0.0,0.0,0.0,0.0,0.0,0.0,0.0,0.0,0.0,0.0,0.0,0.0,0.0,0.0,0.0,0.0,0.0,0.0,0.0,0.0,0.0,0.0,0.0,0.0,0.0,0.0,0.0,0.0,0.0,0.0,0.0,0.0,0.0,0.0,0.0,0.0,0.0,0.0,0.0,0.0,0.0,0.0,0.0,-2.9515,-3.2286,-3.3139,0.0,-3.339,0.0,0.0,0.0,0.0,0.0,0.0,0.0,0.0,0.0,0.0,0.0,0.0,0.0,0.0,0.0,0.0,0.0,0.0,0.0,0.0,0.0,0.0,0.0,0.0,0.0,0.0,0.0,0.0,0.0,0.0,0.0,0.0,0.0,0.0,0.0,0.0,0.0,0.0,0.0,0.0,0.0,0.0,0.0,0.0,0.0,0.0,0.0,0.0,0.0,0.0,0.0,0.0,0.0,0.0,0.0,0.0,0.0,0.0,0.0,0.0,0.0,0.0,0.0,0.0,0.0,0.0,0.0,0.0,0.0,0.0,0.0,0.0,0.0,0.0,0.0,0.0,0.0,0.0,0.0,0.0,0.0,0.0,0.0,0.0,0.0,0.0,0.0,0.0,0.0,0.0,0.0,0.0,0.0,0.0,0.0,0.0,0.0,0.0,0.0,0.0,0.0,0.0,0.0,0.0,0.0,0.0,0.0,0.0,0.0,0.0,-3.1285,-3.254,-3.2892,-3.2822,0.0,0.0,0.0,0.0,0.0,0.0,0.0,0.0,0.0,0.0,0.0,0.0,0.0,0.0,0.0,0.0,0.0,0.0,0.0,0.0,0.0,0.0,0.0,0.0,0.0,0.0,0.0,0.0,0.0,0.0,0.0,0.0,0.0,0.0,0.0,0.0,0.0,0.0,0.0,0.0,0.0,0.0,0.0,0.0,0.0,0.0,0.0,0.0,0.0,0.0,0.0,0.0,0.0,0.0,0.0,0.0,0.0,0.0,0.0,0.0,0.0,0.0,0.0,0.0,0.0,0.0,0.0,0.0,0.0,0.0,0.0,0.0,0.0,0.0,0.0,0.0,0.0,0.0,0.0,0.0,0.0,0.0,0.0,0.0,0.0,0.0,0.0,0.0,0.0,0.0,0.0,0.0,0.0,0.0,0.0,0.0,0.0,0.0,0.0,0.0,0.0,0.0,0.0,0.0,0.0,0.0,0.0,0.0,0.0,0.0,-3.1668,-3.2792,-3.3582,-3.3248,-3.2423,-3.1163,0.0,0.0,0.0,0.0,0.0,0.0,0.0,0.0,0.0,0.0,0.0,0.0,0.0,0.0,0.0,0.0,0.0,0.0,0.0,0.0,0.0,0.0,0.0,0.0,0.0,0.0,0.0,0.0,0.0,0.0,0.0,0.0,0.0,0.0,0.0,0.0,0.0,0.0,0.0,0.0,0.0,0.0,0.0,0.0,0.0,0.0,0.0,0.0,0.0,0.0,0.0,0.0,0.0,0.0,0.0,0.0,0.0,0.0,0.0,0.0,0.0,0.0,0.0,0.0,0.0,0.0,0.0,0.0,0.0,0.0,0.0,0.0,0.0,0.0,0.0,0.0,0.0,0.0,0.0,0.0,0.0,0.0,0.0,0.0,0.0,0.0,0.0,0.0,0.0,0.0,0.0,0.0,0.0,0.0,0.0,0.0,0.0,0.0,0.0,0.0,0.0,0.0,0.0,0.0,0.0,0.0,0.0,0.0,0.0,-3.3775,-3.381,-3.6673,-3.5391,-3.3457,0.0,0.0,0.0,0.0,0.0,0.0,0.0,0.0,0.0,0.0,0.0,0.0,0.0,0.0,0.0,0.0,0.0,0.0,0.0,0.0,0.0,0.0,0.0,0.0,0.0,0.0,0.0,0.0,0.0,0.0,0.0,0.0,0.0,0.0,0.0,0.0,0.0,0.0,0.0,0.0,0.0,0.0,0.0,0.0,0.0,0.0,0.0,0.0,0.0,0.0,0.0,0.0,0.0,0.0,0.0,0.0,0.0,0.0,0.0,0.0,0.0,0.0,0.0,0.0,0.0,0.0,0.0,0.0,0.0,0.0,0.0,0.0,0.0,0.0,0.0,0.0,0.0,0.0,0.0,0.0,0.0,0.0,0.0,0.0,0.0,0.0,0.0,0.0,0.0,0.0,0.0,0.0,0.0,0.0,0.0,0.0,0.0,0.0,0.0,0.0,0.0,0.0,0.0,0.0,0.0,0.0,0.0,0.0,0.0,-3.0931,-3.1897,-3.4828,-3.9515,-3.5109,-3.2407,0.0,0.0,0.0,0.0,0.0,0.0,0.0,0.0,0.0,0.0,0.0,0.0,0.0,0.0,0.0,0.0,0.0,0.0,0.0,0.0,0.0,0.0,0.0,0.0,0.0,0.0,0.0,0.0,0.0,0.0,0.0,0.0,0.0,0.0,0.0,0.0,0.0,0.0,0.0,0.0,0.0,0.0,0.0,0.0,0.0,0.0,0.0,0.0,0.0,0.0,0.0,0.0,0.0,0.0,0.0,0.0,0.0,0.0,0.0,0.0,0.0,0.0,0.0,0.0,0.0,0.0,0.0,0.0,0.0,0.0,0.0,0.0,0.0,0.0,0.0,0.0,0.0,0.0,0.0,0.0,0.0,0.0,0.0,0.0,0.0,0.0,0.0,0.0,0.0,0.0,0.0,0.0,0.0,0.0,0.0,0.0,0.0,0.0,0.0,0.0,0.0,0.0,0.0,0.0,0.0,0.0,0.0,0.0,0.0,-3.0301,0.0,-3.5776,0.0,-3.4688,-3.148,0.0,0.0,0.0,0.0,0.0,0.0,0.0,0.0,0.0,0.0,0.0,0.0,0.0,0.0,0.0,0.0,0.0,0.0,0.0,0.0,0.0,0.0,0.0,0.0,0.0,0.0,0.0,0.0,0.0,0.0,0.0,0.0,0.0,0.0,0.0,0.0,0.0,0.0,0.0,0.0,0.0,0.0,0.0,0.0,0.0,0.0,0.0,0.0,0.0,0.0,0.0,0.0,0.0,0.0,0.0,0.0,0.0,0.0,0.0,0.0,0.0,0.0,0.0,0.0,0.0,0.0,0.0,0.0,0.0,0.0,0.0,0.0,0.0,0.0,0.0,0.0,0.0,0.0,0.0,0.0,0.0,0.0,0.0,0.0,0.0,0.0,0.0,0.0,0.0,0.0,0.0,0.0,0.0,0.0,0.0,0.0,0.0,0.0,0.0,0.0,0.0,0.0,0.0,0.0,0.0,0.0,0.0,0.0,-3.0105,-3.5354,-3.6338,-3.6478,-3.588,-3.4214,-3.0748,0.0,0.0,0.0,0.0,0.0,0.0,0.0,0.0,0.0,0.0,0.0,0.0,0.0,0.0,0.0,0.0,0.0,0.0,0.0,0.0,0.0,0.0,0.0,0.0,0.0,0.0,0.0,0.0,0.0,0.0,0.0,0.0,0.0,0.0,0.0,0.0,0.0,0.0,0.0,0.0,0.0,0.0,0.0,0.0,0.0,0.0,0.0,0.0,0.0,0.0,0.0,0.0,0.0,0.0,0.0,0.0,0.0,0.0,0.0,0.0,0.0,0.0,0.0,0.0,0.0,0.0,0.0,0.0,0.0,0.0,0.0,0.0,0.0,0.0,0.0,0.0,0.0,0.0,0.0,0.0,0.0,0.0,0.0,0.0,0.0,0.0,0.0,0.0,0.0,0.0,0.0,0.0,0.0,0.0,0.0,0.0,0.0,0.0,0.0,0.0,0.0,0.0,0.0,0.0,0.0,0.0,0.0,0.0,0.0,-3.2564,-3.3898,-3.5497,-3.7108,-3.2616,-3.0144,0.0,0.0,0.0,0.0,0.0,0.0,0.0,0.0,0.0,0.0,0.0,0.0,0.0,0.0,0.0,0.0,0.0,0.0,0.0,0.0,0.0,0.0,0.0,0.0,0.0,0.0,0.0,0.0,0.0,0.0,0.0,0.0,0.0,0.0,0.0,0.0,0.0,0.0,0.0,0.0,0.0,0.0,0.0,0.0,0.0,0.0,0.0,0.0,0.0,0.0,0.0,0.0,0.0,0.0,0.0,0.0,0.0,0.0,0.0,0.0,0.0,0.0,0.0,0.0,0.0,0.0,0.0,0.0,0.0,0.0,0.0,0.0,0.0,0.0,0.0,0.0,0.0,0.0,0.0,0.0,0.0,0.0,0.0,0.0,0.0,0.0,0.0,0.0,0.0,0.0,0.0,0.0,0.0,0.0,0.0,0.0,0.0,0.0,0.0,0.0,0.0,0.0,0.0,0.0,0.0,0.0,0.0,0.0,0.0,-3.3593,-3.465,-3.6285,-3.8494,-3.3525,-3.0872,-3.0985,0.0,0.0,0.0,0.0,0.0,0.0,0.0,0.0,0.0,0.0,0.0,0.0,0.0,0.0,0.0,0.0,0.0,0.0,0.0,0.0,0.0,0.0,0.0,0.0,0.0,0.0,0.0,0.0,0.0,0.0,0.0,0.0,0.0,0.0,0.0,0.0,0.0,0.0,0.0,0.0,0.0,0.0,0.0,0.0,0.0,0.0,0.0,0.0,0.0,0.0,0.0,0.0,0.0,0.0,0.0,0.0,0.0,0.0,0.0,0.0,0.0,0.0,0.0,0.0,0.0,0.0,0.0,0.0,0.0,0.0,0.0,0.0,0.0,0.0,0.0,0.0,0.0,0.0,0.0,0.0,0.0,0.0,0.0,0.0,0.0,0.0,0.0,0.0,0.0,0.0,0.0,0.0,0.0,0.0,0.0,0.0,0.0,0.0,0.0,0.0,0.0,0.0,0.0,0.0,0.0,0.0,0.0,0.0,-3.769,-3.8129,-3.8716,-3.9421,-3.6385,-3.2788,0.0,0.0,0.0,0.0,0.0,0.0,0.0,0.0,0.0,0.0,0.0,0.0,0.0,0.0,0.0,0.0,0.0,0.0,0.0,0.0,0.0,0.0,0.0,0.0,0.0,0.0,0.0,0.0,0.0,0.0,0.0,0.0,0.0,0.0,0.0,0.0,0.0,0.0,0.0,0.0,0.0,0.0,0.0,0.0,0.0,0.0,0.0,0.0,0.0,0.0,0.0,0.0,0.0,0.0,0.0,0.0,0.0,0.0,0.0,0.0,0.0,0.0,0.0,0.0,0.0,0.0,0.0,0.0,0.0,0.0,0.0,0.0,0.0,0.0,0.0,0.0,0.0,0.0,0.0,0.0,0.0,0.0,0.0,0.0,0.0,0.0,0.0,0.0,0.0,0.0,0.0,0.0,0.0,0.0,0.0,0.0,0.0,0.0,0.0,0.0,0.0,0.0,0.0,0.0,0.0,0.0,0.0,0.0,0.0,-3.9224,-4.073,-4.1433,-4.1372,-3.7746,-3.4555,0.0,0.0,0.0,0.0,0.0,0.0,0.0,0.0,0.0,0.0,0.0,0.0,0.0,0.0,0.0,0.0,0.0,0.0,0.0,0.0,0.0,0.0,0.0,0.0,0.0,0.0,0.0,0.0,0.0,0.0,0.0,0.0,0.0,0.0,0.0,0.0,0.0,0.0,0.0,0.0,0.0,0.0,0.0,0.0,0.0,0.0,0.0,0.0,0.0,0.0,0.0,0.0,0.0,0.0,0.0,0.0,0.0,0.0,0.0,0.0,0.0,0.0,0.0,0.0,0.0,0.0,0.0,0.0,0.0,0.0,0.0,0.0,0.0,0.0,0.0,0.0,0.0,0.0,0.0,0.0,0.0,0.0,0.0,0.0,0.0,0.0,0.0,0.0,0.0,0.0,0.0,0.0,0.0,0.0,0.0,0.0,0.0,0.0,0.0,0.0,0.0,0.0,0.0,0.0,0.0,0.0,0.0,0.0,-3.6189,-4.0822,-4.2797,-4.3562,-4.31,-4.0011,-3.6604,0.0,0.0,0.0,0.0,0.0,0.0,0.0,0.0,0.0,0.0,0.0,0.0,0.0,0.0,0.0,0.0,0.0,0.0,0.0,0.0,0.0,0.0,0.0,0.0,0.0,0.0,0.0,0.0,0.0,0.0,0.0,0.0,0.0,0.0,0.0,0.0,0.0,0.0,0.0,0.0,0.0,0.0,0.0,0.0,0.0,0.0,0.0,0.0,0.0,0.0,0.0,0.0,0.0,0.0,0.0,0.0,0.0,0.0,0.0,0.0,0.0,0.0,0.0,0.0,0.0,0.0,0.0,0.0,0.0,0.0,0.0,0.0,0.0,0.0,0.0,0.0,0.0,0.0,0.0,0.0,0.0,0.0,0.0,0.0,0.0,0.0,0.0,0.0,0.0,0.0,0.0,0.0,0.0,0.0,0.0,0.0,0.0,0.0,0.0,0.0,0.0,0.0,0.0,0.0,0.0,0.0,0.0,0.0,-3.7394,-4.2014,-4.4209,-4.4971,-4.4197,-4.2373,-3.8526,0.0,0.0,0.0,0.0,0.0,0.0,0.0,0.0,0.0,0.0,0.0,0.0,0.0,0.0,0.0,0.0,0.0,0.0,0.0,0.0,0.0,0.0,0.0,0.0,0.0,0.0,0.0,0.0,0.0,0.0,0.0,0.0,0.0,0.0,0.0,0.0,0.0,0.0,0.0,0.0,0.0,0.0,0.0,0.0,0.0,0.0,0.0,0.0,0.0,0.0,0.0,0.0,0.0,0.0,0.0,0.0,0.0,0.0,0.0,0.0,0.0,0.0,0.0,0.0,0.0,0.0,0.0,0.0,0.0,0.0,0.0,0.0,0.0,0.0,0.0,0.0,0.0,0.0,0.0,0.0,0.0,0.0,0.0,0.0,0.0,0.0,0.0,0.0,0.0,0.0,0.0,0.0,0.0,0.0,0.0,0.0,0.0,0.0,0.0,0.0,0.0,0.0,0.0,0.0,0.0,0.0,0.0,0.0,-3.8231,-4.1466,-4.3722,-4.4474,-4.3759,-4.2068,-3.8748,0.0,0.0,0.0,0.0,0.0,0.0,0.0,0.0,0.0,0.0,0.0,0.0,0.0,0.0,0.0,0.0,0.0,0.0,0.0,0.0,0.0,0.0,0.0,0.0,0.0,0.0,0.0,0.0,0.0,0.0,0.0,0.0,0.0,0.0,0.0,0.0,0.0,0.0,0.0,0.0,0.0,0.0,0.0,0.0,0.0,0.0,0.0,0.0,-2.9837,0.0,0.0,0.0,0.0,0.0,0.0,0.0,0.0,0.0,0.0,0.0,0.0,0.0,0.0,0.0,0.0,0.0,0.0,0.0,0.0,0.0,0.0,0.0,0.0,0.0,0.0,0.0,0.0,0.0,0.0,0.0,0.0,0.0,0.0,0.0,0.0,0.0,0.0,0.0,0.0,0.0,0.0,0.0,0.0,0.0,0.0,0.0,0.0,0.0,0.0,0.0,0.0,0.0,0.0,0.0,0.0,0.0,0.0,0.0,-3.8874,-4.1359,-4.3545,-4.4191,-4.3098,-4.1572,-3.8421,0.0,0.0,0.0,0.0,0.0,0.0,0.0,0.0,0.0,0.0,0.0,0.0,0.0,0.0,0.0,0.0,0.0,0.0,0.0,0.0,0.0,0.0,0.0,0.0,0.0,0.0,0.0,0.0,0.0,0.0,0.0,0.0,0.0,0.0,0.0,0.0,0.0,0.0,0.0,0.0,0.0,0.0,0.0,0.0,0.0,0.0,0.0,0.0,0.0,0.0,0.0,0.0,0.0,0.0,0.0,0.0,0.0,0.0,0.0,0.0,0.0,0.0,0.0,0.0,0.0,0.0,0.0,0.0,0.0,0.0,0.0,0.0,0.0,0.0,0.0,0.0,0.0,0.0,0.0,0.0,0.0,0.0,0.0,0.0,0.0,0.0,0.0,0.0,0.0,0.0,0.0,0.0,0.0,0.0,0.0,0.0,0.0,0.0,0.0,0.0,0.0,0.0,0.0,0.0,0.0,0.0,0.0,-3.5587,-3.909,-4.1496,-4.3297,-4.3645,-4.2506,-4.0912,-3.7731,-3.2867,0.0,0.0,0.0,0.0,0.0,0.0,0.0,0.0,0.0,0.0,0.0,0.0,0.0,0.0,0.0,0.0,0.0,0.0,0.0,0.0,0.0,0.0,0.0,0.0,0.0,0.0,0.0,0.0,0.0,0.0,0.0,0.0,0.0,0.0,0.0,0.0,0.0,0.0,-2.7431,-2.9671,0.0,0.0,0.0,0.0,0.0,0.0,0.0,0.0,-3.1451,0.0,0.0,0.0,0.0,0.0,0.0,0.0,0.0,0.0,0.0,0.0,0.0,0.0,0.0,0.0,0.0,0.0,0.0,0.0,0.0,0.0,0.0,0.0,0.0,0.0,0.0,0.0,0.0,0.0,0.0,0.0,0.0,0.0,0.0,0.0,0.0,0.0,0.0,0.0,0.0,0.0,0.0,0.0,0.0,0.0,0.0,0.0,0.0,0.0,0.0,0.0,0.0,0.0,0.0,0.0,0.0,-3.4104,-3.5628,-3.8311,-4.2175,-4.2071,-4.2092,-4.239,-3.9951,-3.6646,-3.2669,0.0,0.0,0.0,0.0,0.0,0.0,0.0,0.0,0.0,0.0,0.0,0.0,0.0,0.0,0.0,0.0,0.0,0.0,0.0,0.0,0.0,0.0,0.0,0.0,0.0,0.0,0.0,0.0,0.0,0.0,0.0,0.0,0.0,0.0,0.0,0.0,0.0,0.0,0.0,-3.1535,-3.2742,0.0,0.0,0.0,0.0,0.0,0.0,0.0,0.0,-3.1577,0.0,0.0,0.0,0.0,0.0,0.0,0.0,0.0,0.0,0.0,0.0,0.0,0.0,0.0,0.0,0.0,0.0,0.0,0.0,0.0,0.0,0.0,0.0,0.0,0.0,0.0,0.0,0.0,0.0,0.0,0.0,0.0,0.0,0.0,0.0,0.0,0.0,0.0,0.0,0.0,0.0,0.0,0.0,0.0,0.0,0.0,0.0,0.0,0.0,0.0,0.0,0.0,0.0,0.0,0.0,-3.3624,-3.5992,-3.8526,-4.1309,-4.1409,-4.1425,-4.1342,-3.8593,-3.558,0.0,0.0,0.0,0.0,0.0,0.0,0.0,0.0,0.0,0.0,0.0,0.0,0.0,0.0,0.0,0.0,0.0,0.0,0.0,0.0,0.0,0.0,0.0,0.0,0.0,0.0,0.0,0.0,0.0,0.0,0.0,0.0,0.0,0.0,0.0,0.0,0.0,0.0,0.0,0.0,-3.1902,-3.2924,-3.3288,0.0,0.0,0.0,0.0,0.0,0.0,-3.2099,-3.2056,0.0,0.0,0.0,0.0,0.0,0.0,0.0,0.0,0.0,0.0,0.0,0.0,0.0,0.0,0.0,0.0,0.0,0.0,0.0,0.0,0.0,0.0,0.0,0.0,0.0,0.0,0.0,0.0,0.0,0.0,0.0,0.0,0.0,0.0,0.0,0.0,0.0,0.0,0.0,0.0,0.0,0.0,0.0,0.0,0.0,0.0,0.0,0.0,0.0,0.0,0.0,0.0,0.0,0.0,0.0,-3.2685,-3.5893,-3.846,-4.0299,-4.0763,-4.0779,-4.0376,-3.7614,-3.4946,0.0,0.0,0.0,0.0,0.0,0.0,0.0,0.0,0.0,0.0,0.0,0.0,0.0,0.0,0.0,0.0,0.0,0.0,0.0,0.0,0.0,0.0,0.0,0.0,0.0,0.0,0.0,0.0,0.0,0.0,0.0,0.0,0.0,0.0,0.0,0.0,0.0,0.0,0.0,0.0,0.0,-3.3514,-3.395,-3.3841,0.0,0.0,0.0,0.0,-3.1954,-3.2686,0.0,0.0,0.0,0.0,0.0,0.0,0.0,0.0,0.0,0.0,0.0,0.0,0.0,0.0,0.0,0.0,0.0,0.0,0.0,0.0,0.0,0.0,0.0,0.0,0.0,0.0,0.0,0.0,0.0,0.0,0.0,0.0,0.0,0.0,0.0,0.0,0.0,0.0,0.0,0.0,0.0,0.0,0.0,0.0,0.0,0.0,0.0,0.0,0.0,0.0,0.0,0.0,0.0,0.0,0.0,0.0,-3.2586,-3.4386,-3.6962,-4.0177,-3.9862,-3.9829,-4.0359,-3.7953,-3.5193,0.0,0.0,0.0,0.0,0.0,0.0,0.0,0.0,0.0,0.0,0.0,0.0,0.0,0.0,0.0,0.0,0.0,0.0,0.0,0.0,0.0,0.0,0.0,0.0,0.0,0.0,0.0,0.0,0.0,0.0,0.0,0.0,0.0,0.0,0.0,0.0,0.0,0.0,0.0,0.0,0.0,-3.5956,-3.34,-3.4657,-3.5301,0.0,0.0,-3.2796,-3.3284,-3.4226,0.0,0.0,0.0,0.0,0.0,0.0,0.0,0.0,0.0,0.0,0.0,0.0,0.0,0.0,0.0,0.0,0.0,0.0,0.0,0.0,0.0,0.0,0.0,0.0,0.0,0.0,0.0,0.0,0.0,0.0,0.0,0.0,0.0,0.0,0.0,0.0,0.0,0.0,0.0,0.0,0.0,0.0,0.0,0.0,0.0,0.0,0.0,0.0,0.0,0.0,0.0,0.0,0.0,0.0,0.0,-2.8833,-3.2613,-3.4627,-3.6986,-3.9636,-3.9464,-3.9265,-3.9156,-3.6379,-3.3638,0.0,0.0,0.0,0.0,0.0,0.0,0.0,0.0,0.0,0.0,0.0,0.0,0.0,0.0,0.0,0.0,0.0,0.0,0.0,0.0,0.0,0.0,0.0,0.0,0.0,0.0,0.0,0.0,0.0,0.0,0.0,0.0,0.0,0.0,0.0,0.0,0.0,0.0,0.0,0.0,0.0,0.0,-3.4,-3.4949,0.0,0.0,0.0,-3.3662,-3.4027,0.0,0.0,0.0,0.0,0.0,0.0,0.0,0.0,0.0,0.0,0.0,0.0,0.0,0.0,0.0,0.0,0.0,0.0,0.0,0.0,0.0,0.0,0.0,0.0,0.0,0.0,0.0,0.0,0.0,0.0,0.0,0.0,0.0,0.0,0.0,0.0,0.0,0.0,0.0,0.0,0.0,0.0,0.0,0.0,0.0,0.0,0.0,0.0,0.0,0.0,0.0,0.0,0.0,0.0,0.0,0.0,0.0,-3.249,-3.4944,-3.7192,-3.9222,-3.9148,-3.8774,-3.8169,-3.5424,0.0,0.0,0.0,0.0,0.0,0.0,0.0,0.0,0.0,0.0,0.0,0.0,0.0,0.0,0.0,0.0,0.0,0.0,0.0,0.0,0.0,0.0,0.0,0.0,0.0,0.0,0.0,-1.6376,0.0,0.0,0.0,0.0,0.0,0.0,0.0,0.0,0.0,0.0,0.0,0.0,0.0,0.0,-3.3718,-3.4394,-3.5249,-3.5718,0.0,0.0,-3.4547,-3.4373,-3.4315,-3.3678,0.0,0.0,0.0,0.0,0.0,0.0,0.0,0.0,0.0,0.0,0.0,0.0,0.0,0.0,0.0,0.0,0.0,0.0,0.0,0.0,0.0,0.0,0.0,0.0,0.0,0.0,0.0,0.0,0.0,0.0,0.0,0.0,0.0,0.0,0.0,0.0,0.0,0.0,0.0,0.0,0.0,0.0,0.0,0.0,0.0,0.0,0.0,0.0,0.0,0.0,0.0,0.0,0.0,0.0,0.0,-3.2101,-3.4758,-3.7128,-3.9179,-3.8689,-3.8319,-3.816,-3.6198,-3.3622,0.0,0.0,0.0,0.0,0.0,0.0,0.0,0.0,0.0,0.0,0.0,0.0,0.0,0.0,0.0,0.0,0.0,0.0,0.0,0.0,0.0,0.0,0.0,0.0,0.0,0.0,0.0,0.0,0.0,0.0,0.0,0.0,0.0,0.0,0.0,0.0,0.0,0.0,0.0,0.0,0.0,-3.5233,-3.4012,-3.5815,-3.6859,0.0,0.0,-3.528,-3.4113,-3.5764,-3.5872,-3.1974,0.0,0.0,0.0,0.0,0.0,0.0,0.0,0.0,0.0,0.0,0.0,0.0,0.0,0.0,0.0,0.0,0.0,0.0,0.0,0.0,0.0,0.0,0.0,0.0,0.0,0.0,0.0,0.0,0.0,0.0,0.0,0.0,0.0,0.0,0.0,0.0,0.0,0.0,0.0,0.0,0.0,0.0,0.0,0.0,0.0,0.0,0.0,0.0,0.0,0.0,0.0,0.0,0.0,-2.8526,-3.2055,-3.4049,-3.6442,-3.9109,-3.8169,-3.7673,-3.789,-3.568,-3.2921,0.0,0.0,0.0,0.0,0.0,0.0,0.0,0.0,0.0,0.0,0.0,0.0,0.0,0.0,0.0,0.0,0.0,0.0,0.0,0.0,0.0,0.0,0.0,0.0,0.0,0.0,0.0,0.0,-1.9754,-2.0277,-2.0251,0.0,0.0,0.0,0.0,0.0,0.0,0.0,0.0,0.0,0.0,-3.4576,-3.4816,-3.5728,0.0,0.0,-3.5405,-3.5403,-3.6035,-3.5642,-3.487,-3.3661,-3.244,0.0,0.0,0.0,0.0,0.0,0.0,0.0,0.0,0.0,0.0,0.0,0.0,0.0,0.0,0.0,0.0,0.0,0.0,0.0,0.0,0.0,0.0,0.0,0.0,0.0,0.0,0.0,0.0,0.0,0.0,0.0,0.0,0.0,0.0,0.0,0.0,0.0,0.0,0.0,0.0,0.0,0.0,0.0,0.0,0.0,0.0,0.0,0.0,0.0,0.0,0.0,0.0,-2.7999,-3.159,-3.3455,-3.5776,-3.8673,-3.7517,-3.7096,-3.746,-3.5177,-3.2515,0.0,0.0,0.0,0.0,0.0,0.0,0.0,0.0,0.0,0.0,0.0,0.0,0.0,0.0,0.0,0.0,0.0,0.0,0.0,0.0,0.0,0.0,0.0,0.0,0.0,0.0,0.0,0.0,-2.0915,-2.1151,-2.0733,0.0,0.0,0.0,0.0,0.0,0.0,0.0,0.0,0.0,0.0,-3.4114,-3.5339,-3.5608,-3.575,-3.5884,-3.56,-3.5696,-3.6781,-3.5683,-3.4666,-3.4545,0.0,0.0,0.0,0.0,0.0,0.0,0.0,0.0,0.0,0.0,0.0,0.0,0.0,0.0,0.0,0.0,0.0,0.0,0.0,0.0,0.0,0.0,0.0,0.0,0.0,0.0,0.0,0.0,0.0,0.0,0.0,0.0,0.0,0.0,0.0,0.0,0.0,0.0,0.0,0.0,0.0,0.0,0.0,0.0,0.0,0.0,0.0,0.0,0.0,0.0,0.0,0.0,0.0,-2.7829,-3.0525,-3.3026,-3.5324,-3.7381,-3.6784,-3.6668,-3.7137,-3.4888,-3.2753,-3.0907,0.0,0.0,0.0,0.0,0.0,0.0,0.0,0.0,0.0,0.0,0.0,0.0,0.0,0.0,0.0,0.0,0.0,0.0,0.0,0.0,0.0,0.0,0.0,0.0,0.0,0.0,-2.0915,-2.1583,-2.1621,0.0,0.0,0.0,0.0,0.0,0.0,0.0,0.0,0.0,0.0,-3.2618,-3.4303,-3.5344,-3.5622,-3.5844,-3.6312,-3.647,-3.6361,-3.5886,-3.6171,-3.5954,0.0,0.0,0.0,0.0,0.0,0.0,0.0,0.0,0.0,0.0,0.0,0.0,0.0,0.0,0.0,0.0,0.0,0.0,0.0,0.0,0.0,0.0,0.0,0.0,0.0,0.0,0.0,-2.6932,-2.5823,0.0,0.0,0.0,0.0,0.0,0.0,0.0,0.0,0.0,0.0,0.0,-3.104,-3.199,0.0,0.0,0.0,0.0,0.0,0.0,0.0,0.0,0.0,0.0,0.0,0.0,-2.7618,-3.1056,-3.2888,-3.4955,-3.7293,-3.6243,-3.6042,-3.6963,-3.4707,-3.194,-2.8688,0.0,0.0,0.0,0.0,0.0,0.0,0.0,0.0,0.0,0.0,0.0,0.0,0.0,0.0,0.0,0.0,0.0,0.0,0.0,0.0,0.0,0.0,0.0,0.0,0.0,-2.0524,0.0,0.0,0.0,0.0,0.0,0.0,0.0,0.0,0.0,0.0,0.0,-3.0826,-3.2518,-3.3963,-3.5189,-3.5991,-3.5882,-3.5764,0.0,0.0,0.0,0.0,0.0,0.0,0.0,0.0,0.0,0.0,0.0,0.0,0.0,0.0,-3.049,-2.7948,-2.7047,-2.6627,-2.6422,0.0,0.0,0.0,0.0,0.0,0.0,0.0,0.0,0.0,0.0,0.0,0.0,0.0,0.0,-2.9897,0.0,-2.8271,0.0,0.0,0.0,0.0,0.0,0.0,0.0,0.0,-3.4336,-3.4988,-3.3742,-3.4671,-3.4175,0.0,-3.1435,-2.9545,0.0,0.0,0.0,0.0,0.0,0.0,0.0,0.0,-2.8012,-3.1372,-3.305,-3.4804,-3.66,-3.5799,-3.5735,-3.6569,-3.441,-3.1511,-2.7986,-2.5535,-2.3853,0.0,0.0,0.0,0.0,0.0,0.0,0.0,0.0,0.0,0.0,0.0,0.0,0.0,0.0,0.0,0.0,0.0,0.0,0.0,0.0,0.0,0.0,0.0,-2.1189,0.0,0.0,0.0,0.0,0.0,0.0,0.0,0.0,0.0,-2.8232,-3.0474,-3.275,-3.4585,-3.5234,-3.5754,-3.6372,0.0,0.0,0.0,0.0,0.0,0.0,0.0,-3.5506,-3.5896,-3.4798,-3.3771,-3.3326,-3.3429,-3.314,-3.2172,0.0,0.0,-2.9427,-2.8661,-2.8349,-2.8179,-2.8446,-2.8612,-2.8333,-2.8727,-2.9051,0.0,0.0,0.0,0.0,0.0,0.0,0.0,0.0,-3.3012,-3.2464,0.0,-3.1664,0.0,0.0,0.0,0.0,0.0,0.0,0.0,0.0,-3.784,-3.8504,-3.7219,-3.7143,-3.6572,-3.5444,-3.5216,-3.3893,-3.1419,-2.7443,0.0,0.0,0.0,0.0,0.0,0.0,-2.8936,-3.1524,-3.3469,-3.4848,-3.5522,-3.5504,-3.5671,-3.5979,-3.394,-3.1482,-2.8867,-2.7488,-2.5662,-2.3149,-2.1815,0.0,0.0,0.0,0.0,0.0,0.0,0.0,0.0,0.0,0.0,0.0,0.0,0.0,0.0,0.0,0.0,0.0,0.0,0.0,0.0,-2.1967,0.0,0.0,0.0,0.0,0.0,0.0,0.0,0.0,0.0,0.0,-3.1073,-3.2242,-3.406,-3.6479,0.0,0.0,0.0,0.0,-3.5981,-3.6551,-3.6591,-3.6808,-3.739,-3.6834,-3.6362,-3.6362,0.0,0.0,-3.2783,-3.2984,-3.3174,-3.2635,-3.2981,-3.2959,-3.1886,-3.0869,-3.0368,-3.0802,-3.0176,-2.9887,-3.0742,-3.1259,-3.1777,-4.0079,0.0,0.0,0.0,0.0,-3.4213,-3.503,-3.6721,-3.6647,-3.5926,-3.4717,-3.4187,0.0,0.0,0.0,0.0,0.0,0.0,-3.5263,-3.6522,-3.788,-3.8117,-3.7316,-3.7332,-3.6684,-3.548,-3.4965,-3.436,-3.3575,-3.1459,-2.8696,-2.539,0.0,0.0,0.0,0.0,-3.0073,-3.2153,-3.3709,-3.4848,-3.5489,-3.5374,-3.4815,-3.3815,-3.2762,-3.1324,-2.9392,-2.8565,-2.7401,-2.5749,-2.4007,0.0,0.0,0.0,0.0,0.0,0.0,0.0,0.0,0.0,0.0,0.0,0.0,0.0,0.0,0.0,0.0,0.0,0.0,0.0,-2.0814,-2.2098,-2.31,0.0,0.0,0.0,0.0,0.0,0.0,0.0,0.0,0.0,-3.2761,-3.3555,-3.4534,0.0,0.0,-3.585,-3.6495,-3.6822,-3.7025,-3.7201,0.0,0.0,0.0,-3.6415,-3.5789,-3.6314,-3.5545,-3.4718,-3.4209,-3.3982,-3.373,-3.3574,-3.344,-3.3176,-3.2899,-3.2599,-3.2418,-3.2539,-3.2334,-3.2226,-3.2527,-3.2731,-3.2863,-4.3456,-4.0441,-3.8384,-3.7337,-3.7017,-3.6611,-3.727,-3.8626,-3.8626,-3.8129,-3.7284,-3.6846,-3.5429,-3.3319,-3.3038,0.0,0.0,0.0,-3.6837,-3.7996,-3.8427,-3.8324,-3.7748,-3.7501,-3.6875,-3.5863,-3.5198,-3.4876,-3.4876,-3.4083,-3.1884,-2.8442,0.0,0.0,-2.8397,-2.9939,-3.1569,-3.3245,-3.4337,-3.5085,-3.5489,-3.5026,-3.4076,-3.254,-3.2131,-3.1319,-3.0031,-2.9145,-2.8202,-2.7186,-2.5313,-2.3267,0.0,0.0,0.0,0.0,0.0,0.0,0.0,0.0,0.0,0.0,0.0,-1.8245,-1.6588,0.0,0.0,0.0,-2.0001,-2.1409,-2.2773,-2.4202,0.0,0.0,0.0,0.0,0.0,0.0,0.0,-3.0365,-3.1359,-3.2431,-3.3816,-3.4045,-3.4572,-3.5965,-3.5739,-3.5695,-3.6363,0.0,-3.6711,-3.6949,-3.6612,-3.6559,-3.7219,-3.6341,-3.5603,-3.5727,-3.5372,-3.4953,-3.4836,-3.451,-3.4306,-3.4258,-3.4102,-3.3897,-3.3897,-3.3897,-3.3741,-3.3368,-3.3284,-3.3284,-3.3284,-3.3452,-3.3585,-4.5886,-4.557,-4.2935,-4.0753,-3.9066,-3.8991,-3.9091,-3.9299,-3.9299,-3.9315,-3.9315,-3.9315,-3.8171,-3.6224,-3.5562,0.0,0.0,-3.7996,-3.8626,-3.9299,-3.9315,-3.8925,-3.8193,-3.7648,-3.7027,-3.6321,-3.5765,-3.5489,-3.5489,-3.5474,-3.4577,-3.2766,-3.1509,-3.142,-3.2392,-3.2572,-3.3275,-3.4488,-3.5145,-3.5474,-3.5382,-3.4582,-3.3428,-3.1957,-3.1762,-3.1274,-3.0482,-2.9334,-2.8418,-2.7681,-2.5897,-2.3766,-2.138,0.0,0.0,0.0,0.0,0.0,0.0,0.0,0.0,0.0,0.0,0.0,0.0,0.0,0.0,0.0,-2.3586,0.0,-2.5919,-2.7387,0.0,0.0,0.0,-2.8418,-2.9044,-3.0178,-3.101,-3.1259,0.0,0.0,0.0,0.0,-3.4274,-3.6315,-3.5865,-3.5513,-3.6115,-3.5827,-3.5622,-3.6315,-3.6243,-3.6402,-3.6996,-3.6433,-3.5724,-3.5053,-3.4775,-3.4799,-3.4775,-3.4775,-3.4763,-3.4739,-3.4763,-3.4739,-3.4763,-3.4751,-3.4486,-3.3621,-3.3452,-3.344,-3.3501,-3.3766,-3.4054,-4.669,-4.5753,-4.5072,-4.34,-4.1187,-4.068,-4.0012,-3.9315,-3.9315,-3.9315,-3.9315,-3.9315,-3.9017,-3.8503,-3.8337,-3.8453,-3.8801,-3.8984,-3.9149,-3.9299,-3.9315,-3.8706,-3.7618,-3.7488,-3.6814,-3.5733,-3.5569,-3.5489,-3.5489,-3.5489,-3.528,-3.4801,-3.4472,-3.3455,-3.1854,-3.326,-3.4189,-3.4503,-3.516,-3.5185,-3.4505,-3.3928,-3.2898,-3.1294,-3.0851,-3.0219,-2.9331,-2.9024,-2.8502,-2.771,-2.6344,-2.4873,-2.3304,-2.1235,0.0,0.0,0.0,0.0,0.0,0.0,0.0,0.0,0.0,-2.1815,-1.9101,0.0,-2.3717,0.0,-2.5546,-2.7086,-2.7231,-2.8074,0.0,0.0,-3.075,-3.135,-3.4123,-3.2985,-3.2471,-3.3692,-3.3421,-3.3239,-3.3663,-3.3727,-3.4038,-3.4892,-3.5127,-3.5445,-3.6075,-3.6506,-3.6698,-3.678,-3.6341,-3.6323,-3.6845,-3.6474,-3.5727,-3.4932,-3.4775,-3.4775,-3.4775,-3.4775,-3.4775,-3.4775,-3.4775,-3.4775,-3.4775,-3.4775,-3.4715,-3.4523,-3.4463,-3.4414,-3.4463,-3.4547,-3.4583,-4.728,-4.6629,-4.6413,-4.5209,-4.3334,-4.1868,-4.0804,-4.0024,-3.9511,-3.9315,-3.9315,-3.9315,-3.9315,-3.9315,-3.9315,-3.9315,-3.9315,-3.9315,-3.9315,-3.9315,-3.9315,-3.8761,-3.7809,-3.7517,-3.6875,-3.591,-3.5634,-3.5489,-3.5489,-3.5489,-3.5489,-3.5489,-3.5489,-3.4771,-3.3394,-3.4397,-3.4936,-3.4936,-3.531,-3.4961,-3.3943,-3.3648,-3.2571,-3.0704,-3.0333,-2.9776,-2.885,-2.8516,-2.8052,-2.7316,-2.6329,-2.5222,-2.3972,-2.257,-2.1525,0.0,0.0,0.0,0.0,0.0,0.0,0.0,0.0,0.0,0.0,0.0,-2.5792,0.0,-2.81,0.0,-2.9798,-3.093,-3.2268,-3.363,-3.3537,-3.4103,-3.5998,-3.4558,-3.367,-3.4285,-3.3475,-3.296,-3.3343,-3.3353,-3.3572,-3.4145,-3.4301,-3.4647,-3.5431,-3.5861,-3.6083,-3.6048,-3.5715,-3.5584,-3.6036,-3.5715,-3.5295,-3.4908,-3.4775,-3.4775,-3.4775,-3.4775,-3.4775,-3.4775,-3.4775,-3.4775,-3.4775,-3.4775,-3.4775,-3.4775,-3.4775,-3.4775,-3.4775,-3.4775,-3.4775,-4.7678,-4.7615,-4.716,-4.6369,-4.5206,-4.2869,-4.158,-4.1055,-3.9917,-3.9381,-3.9315,-3.9315,-3.9315,-3.9315,-3.9315,-3.9315,-3.9315,-3.9315,-3.9315,-3.9315,-3.9315,-3.8942,-3.8278,-3.7764,-3.7115,-3.6414,-3.5846,-3.5602,-3.5504,-3.5489,-3.5489,-3.5489,-3.5489,-3.5489,-3.5489,-3.5489,-3.5489,-3.5489,-3.5489,-3.4861,-3.3544,-3.3499,-3.2393,-3.0184,-3.0038,-2.9529,-2.8532,-2.7997,-2.7476,-2.6924,-2.6297,-2.5415,-2.435,-2.4036,-2.3412,0.0,-2.2736,0.0,0.0,0.0,0.0,0.0,0.0,0.0,0.0,-2.6939,-2.7968,-2.8985,-3.0771,-3.2106,-3.26,-3.4298,-3.5421,-3.5523,-3.6054,-3.6338,-3.6127,-3.5352,-3.4594,-3.41,-3.3288,-3.2866,-3.3136,-3.2955,-3.3093,-3.3743,-3.3579,-3.3687,-3.4486,-3.4715,-3.48,-3.4739,-3.4775,-3.4896,-3.48,-3.4739,-3.4691,-3.4703,-3.4643,-3.4703,-3.4775,-3.4775,-3.4775,-3.4775,-3.4775,-3.4799,-3.4691,-3.4667,-3.4667,-3.4691,-3.4558,-3.4607,-3.4727,-3.4775,-3.4775,-4.7593,-4.7323,-4.7093,-4.6735,-4.6177,-4.4207,-4.2804,-4.1812,-4.0683,-3.9879,-3.9315,-3.9315,-3.9315,-3.9315,-3.9315,-3.9315,-3.9315,-3.9315,-3.9315,-3.9315,-3.9315,-3.8952,-3.8306,-3.8193,-3.7531,-3.643,-3.629,-3.5958,-3.5489,-3.5489,-3.5489,-3.5489,-3.5489,-3.5489,-3.5489,0.0,0.0,0.0,-3.5489,-3.4861,-3.3574,-3.3499,-3.2273,-2.9809,-2.958,0.0,-2.7586,-2.7732,-2.7773,-2.7521,-2.6939,0.0,0.0,0.0,0.0,0.0,0.0,0.0,0.0,0.0,0.0,0.0,-2.7764,-2.7534,-2.7434,-2.9856,-3.1308,-3.1061,-3.2698,-3.3703,-3.3373,-3.4578,-3.5595,-3.6083,-3.6722,-3.7014,-3.6747,-3.5943,-3.5157,-3.44,-3.3569,-3.3063,-3.3102,-3.2872,-3.2952,-3.3459,-3.3212,-3.3241,-3.4035,-3.417,-3.4342,-3.4679,-3.4739,-3.4583,-3.4198,-3.4138,-3.4138,-3.4138,-3.415,-3.4294,-3.4643,-3.4727,-3.4763,-3.4739,-3.4775,-3.4619,-3.4222,-3.4138,-3.4138,-3.4126,-3.3873,-3.3825,-3.4631,-3.4763,-3.4775,-4.7615,0.0,-4.7232,-4.6875,0.0,-4.507,-4.4044,-4.3081,-4.1583,-4.0498,-3.9829,-3.9464,-3.9315,-3.9315,-3.9315,-3.9315,-3.9315,-3.9315,-3.9315,-3.9315,-3.9315,-3.8942,-3.8306,-3.8306,-3.7806,-3.692,-3.689,-3.6538,-3.5958,-3.5957,-3.5797,-3.5489,-3.5489,-3.5489,-3.5489,-3.5489,-3.5489,-3.5489,-3.5489,-3.4861,-3.3574,-3.3499,-3.2363,-3.0052,0.0,0.0,0.0,0.0,0.0,0.0,0.0,0.0,0.0,0.0,0.0,-2.6213,-2.6547,-2.6591,-2.6355,-2.7474,-2.8607,-2.9566,-3.0525,-3.0785,-3.0103,-3.1874,-3.2977,-3.2945,-3.3862,-3.4283,-3.4022,-3.5082,-3.5938,-3.6265,-3.679,-3.7049,-3.6827,-3.6108,-3.5318,-3.4551,-3.4021,-3.3569,-3.2982,-3.281,-3.281,-3.3027,-3.2825,-3.2901,-3.3564,-3.3691,-3.3789,-3.403,-3.4066,-3.397,-3.3741,-3.3669,-3.3669,-3.3669,-3.3669,-3.3777,-3.4018,-3.4066,-3.4054,-3.4066,-3.4078,-3.3958,-3.3753,-3.3622,-3.3669,-3.3645,-3.3464,-3.3428,-3.3982,-3.4066,-3.4066,-4.7699,-4.7678,-4.7407,-4.6931,-4.6286,-4.5614,-4.4797,-4.3882,0.0,0.0,0.0,-3.963,-3.9315,-3.9315,-3.9315,-3.9315,-3.9315,-3.9315,-3.9315,-3.9315,-3.9315,-3.8996,-3.849,-3.8463,-3.8153,-3.7576,-3.7576,-3.7205,-3.66,-3.6585,-3.6321,-3.5878,-3.5716,-3.5619,-3.5489,-3.5489,-3.5489,-3.5489,-3.5489,-3.4906,-3.3724,-3.3559,-3.2542,-3.0549,-3.0328,-2.986,-2.8988,-2.8978,-2.8486,-2.7387,-2.7287,-2.7273,-2.7287,-2.7198,-2.7619,-2.8636,-2.9261,-2.9392,-2.8913,-3.0031,-3.0874,-3.1092,-3.269,-3.3369,-3.273,-3.33,-3.3848,-3.437,-3.438,-3.438,-3.4395,-3.5444,-3.6185,-3.6301,-3.6561,-3.6718,-3.6621,-3.5923,-3.5047,-3.4343,-3.4105,-3.381,-3.2927,-3.2797,-3.2766,-3.2766,-3.2643,-3.2611,-3.318,-3.3345,-3.3437,-3.3427,-3.3428,-3.3308,-3.3164,-3.3152,-3.3152,-3.314,-3.3152,-3.3176,-3.326,-3.3284,-3.3284,-3.338,-3.3296,-3.3272,-3.3188,-3.3152,-3.3152,-3.3164,-3.3068,-3.3044,-3.3116,-3.3068,-3.3092,-4.7699,-4.7657,-4.7407,-4.6994,-4.6406,-4.5622,-4.4327,-4.2705,-4.1773,-4.1028,-4.0359,-3.963,-3.9315,-3.9315,-3.9315,-3.9315,-3.9315,-3.9315,-3.9315,0.0,-3.9315,-3.9245,-3.9175,-3.9148,-3.8799,-3.8193,-3.8165,-3.7851,-3.734,-3.7251,-3.7221,-3.7071,-3.6538,-3.599,-3.5537,-3.5489,-3.5489,-3.5489,-3.5489,-3.513,-3.4384,-3.3799,-3.2841,-3.1407,-3.0537,-2.9789,-2.9114,-2.936,-2.9406,-2.9204,-2.9204,-2.9204,-2.9175,-2.8695,-2.852,-2.8723,-2.9276,-2.9552,-2.9508,-3.0639,-3.1859,-3.3009,-3.3819,-3.4022,-3.346,-3.392,-3.4312,-3.438,-3.438,-3.438,-3.4457,-3.5082,-3.577,-3.6171,-3.6177,-3.6063,-3.5812,-3.5061,-3.4223,-3.3437,-3.3295,-3.3288,-3.3018,-3.3,-3.3025,-3.2982,-3.281,-3.2686,-3.2734,-3.3134,-3.3431,-3.3331,-3.3284,-3.3092,-3.2707,-3.2623,-3.2611,-3.2611,-3.2611,-3.2743,-3.3092,-3.3152,-3.3152,-3.3248,-3.3164,-3.3044,-3.2707,-3.2611,-3.2611,-3.2587,-3.231,-3.2175,-3.2503,-3.2286,-3.2238,-4.7699,-4.7678,-4.7572,-4.7151,-4.6525,-4.5399,-4.4073,-4.2629,-4.1768,-4.1028,-4.0359,-3.963,-3.9315,-3.9315,-3.9315,-3.9315,-3.9315,-3.9315,-3.9315,-3.9315,-3.9315,-3.9315,-3.9315,-3.9315,-3.9148,-3.8843,-3.8843,-3.8507,-3.7953,-3.7879,-3.7722,-3.7399,-3.6723,-3.6258,-3.6005,-3.5651,-3.5489,-3.5489,-3.5489,-3.4996,-3.3978,-3.3664,-3.2871,-3.154,-3.1038,-3.0713,-3.0316,-3.0367,-3.0192,-2.9755,-2.9653,-2.9595,-2.9595,-2.9348,-2.9348,-2.9711,-2.9972,-3.0292,-3.061,-3.1859,-3.2864,-3.346,-3.4051,-3.4298,-3.4008,-3.424,-3.438,-3.438,-3.438,-3.438,-3.4428,-3.4994,-3.5523,-3.5784,-3.5263,-3.4996,-3.5088,-3.4179,-3.3322,-3.2952,-3.3113,-3.3139,-3.2646,-3.288,-3.3124,-3.3068,-3.2982,-3.281,-3.2593,-3.2869,-3.2991,-3.2677,-3.2599,-3.2457,-3.2138,-3.2046,-3.2046,-3.2102,-3.2046,-3.2154,-3.2382,-3.2464,-3.2476,-3.2452,-3.2452,-3.2322,-3.207,-3.2046,-3.2046,-3.2022,-3.1922,-3.1862,-3.1949,-3.1874,-3.1922,-4.7699,-4.7699,-4.7699,-4.7236,-4.643,-4.5172,-4.3962,-4.276,-4.1813,-4.1028,-4.0359,-3.963,-3.9315,-3.9315,-3.9315,-3.9315,-3.9315,-3.9315,-3.9315,-3.9315,-3.9315,-3.9315,-3.9315,-3.9315,-3.9315,-3.9315,-3.9315,-3.9023,-3.859,-3.8535,-3.8124,-3.7429,-3.686,-3.6492,-3.6196,-3.5733,-3.5489,-3.5489,-3.534,-3.4771,-3.3754,-3.344,-3.2751,-3.1824,-3.1541,-3.1409,-3.1307,-3.1146,-3.0793,-3.0163,-2.9959,-2.9871,-2.9827,-2.9842,-3.006,-3.0554,-3.0743,-3.1134,-3.1932,-3.289,-3.3561,-3.3688,-3.4138,-3.438,-3.438,-3.438,-3.438,-3.438,-3.438,-3.438,-3.4457,-3.482,-3.5232,-3.5323,-3.4531,-3.4211,-3.4519,-3.3519,-3.2567,-3.246,-3.2717,-3.2703,-3.231,-3.2416,-3.2671,-3.2629,-3.2792,-3.2794,-3.2623,-3.2698,-3.2593,-3.2288,-3.2125,-3.2074,-3.1893,-3.1817,-3.1829,-3.1749,-3.1773,-3.1777,-3.1801,-3.1753,-3.1729,-3.1789,-3.1765,-3.1789,-3.1741,-3.1729,-3.1741,-3.1765,-3.1729,-3.1717,-3.1741,-3.1741,-3.1705,-4.7696,-4.7699,-4.7699,-4.7039,-4.5975,-4.5197,-4.4101,-4.2756,-4.1797,-4.1028,-4.0326,-3.963,-3.9315,-3.9315,-3.9315,-3.9315,-3.9315,-3.9315,-3.9315,-3.9315,-3.9315,-3.9315,-3.9315,-3.9315,-3.9315,-3.9315,-3.9315,-3.9272,-3.9148,-3.9175,-3.8579,-3.7517,-3.7324,-3.6769,-3.578,-3.5554,-3.5489,-3.5489,-3.4891,-3.4548,-3.4369,-3.3215,-3.2512,-3.2392,-3.1678,-3.1322,-3.1307,-3.119,-3.0984,-3.0748,-3.0689,-3.063,-3.051,-3.051,-3.0539,-3.0612,-3.1105,-3.1961,-3.3155,-3.3445,-3.3765,-3.4254,-3.4356,-3.438,-3.438,-3.438,-3.438,-3.438,-3.438,-3.438,-3.438,-3.4501,-3.4762,-3.5227,-3.4533,-3.4076,-3.3954,-3.3196,-3.2329,-3.1577,-3.1699,-3.1543,-3.1527,-3.1599,-3.1625,-3.1725,-3.2064,-3.2303,-3.2243,-3.2619,-3.2852,-3.2643,-3.2506,-3.24,-3.2313,-3.2125,-3.1981,-3.1937,-3.1805,-3.1761,-3.1705,-3.1705,-3.1705,-3.1705,-3.1705,-3.1705,-3.1705,-3.1705,-3.1705,-3.1681,-3.1681,-3.1669,-3.1693,-3.1657,-3.1645,-4.8113,-4.7717,-4.7699,-4.7236,-4.6454,-4.5792,-4.443,-4.2709,-4.1905,-4.0923,-3.9796,-3.9431,-3.9315,-3.9315,-3.9315,-3.9315,-3.9315,-3.9315,-3.9315,-3.9315,-3.9315,-3.9315,-3.9315,-3.9315,-3.9315,-3.9315,-3.9315,-3.9315,-3.9315,-3.9315,-3.904,-3.8523,-3.8153,-3.7677,-3.7131,-3.6399,-3.6227,-3.6554,-3.5141,-3.4379,-3.4273,-3.3186,-3.2317,-3.1929,-3.1572,-3.1424,-3.1424,-3.1292,-3.1176,-3.1087,-3.091,-3.0747,-3.0732,-3.0642,-3.0612,-3.067,-3.1555,-3.2498,-3.3445,-3.3837,-3.4138,-3.4366,-3.438,-3.438,-3.438,-3.438,-3.438,-3.438,-3.438,-3.438,-3.438,-3.438,-3.453,-3.4645,-3.4057,-3.3747,-3.415,-3.2634,-3.1575,-3.1716,-3.129,-3.0922,-3.0984,-3.1198,-3.1361,-3.1399,-3.1612,-3.1725,-3.175,-3.2202,-3.2474,-3.2489,-3.2628,-3.2667,-3.2475,-3.2313,-3.2169,-3.2038,-3.1937,-3.1849,-3.1761,-3.1705,-3.1705,-3.1705,-3.1705,-3.1705,-3.1705,-3.1705,-3.1705,-3.1621,-3.1356,-3.1235,-3.1247,-3.1247,-3.1332,-4.8442,-4.7772,-4.7699,-4.7259,-4.6542,-4.5999,-4.4637,-4.2766,-4.1933,-4.0886,-3.9737,-3.9425,-3.9325,-3.9352,-3.9325,-3.9315,-3.9315,-3.9315,-3.9315,-3.9315,-3.9315,-3.9315,-3.9315,-3.9315,-3.9315,-3.9315,-3.9315,-3.9315,-3.9315,-3.9315,-3.9218,-3.8996,-3.8535,-3.8222,-3.7966,-3.7055,-3.6906,-3.7168,-3.5517,-3.4614,-3.4463,-3.3221,-3.2149,-3.1584,-3.1496,-3.1496,-3.1496,-3.1424,-3.1351,-3.1292,-3.1058,-3.0866,-3.0791,-3.0702,-3.0788,-3.1179,-3.215,-3.305,-3.3688,-3.4153,-3.438,-3.438,-3.438,-3.438,-3.438,-3.438,-3.438,-3.438,-3.438,-3.438,-3.438,-3.438,-3.438,-3.4346,-3.3845,-3.3742,-3.3874,-3.242,-3.1663,-3.1676,-3.1149,-3.0566,-3.0471,-3.067,-3.0871,-3.0871,-3.106,-3.1185,-3.1248,-3.1625,-3.1989,-3.2001,-3.2353,-3.2577,-3.2562,-3.2519,-3.2388,-3.2245,-3.2157,-3.2025,-3.1849,-3.1805,-3.1705,-3.1749,-3.1705,-3.1585,-3.1416,-3.144,-3.1368,-3.1235,-3.097,-3.0651,-3.0663,-3.0663,-3.085,-4.842,-4.7753,-4.7699,-4.6938,-4.578,-4.5587,-4.4488,-4.2765,-4.175,-4.1101,-4.0548,-3.9731,-3.9395,-3.9475,-3.9352,-3.9315,-3.9315,-3.9315,-3.9315,-3.9315,-3.9315,-3.9315,-3.9315,-3.9315,-3.9315,-3.9315,-3.9315,-3.9315,-3.9315,-3.9315,-3.8952,-3.8407,-3.8379,-3.8067,-3.7648,-3.7458,-3.7399,-3.7358,-3.6099,-3.5272,-3.4998,-3.3401,-3.2214,-3.1568,-3.1496,-3.1496,-3.1496,-3.1496,-3.1438,-3.1322,-3.1248,-3.1146,-3.0851,-3.0806,-3.127,-3.2326,-3.3021,-3.3721,-3.4225,-3.4385,-3.438,-3.438,-3.438,-3.438,-3.438,-3.438,-3.438,-3.438,-3.438,-3.438,-3.438,-3.438,-3.438,-3.438,-3.4346,-3.3997,-3.3402,-3.3192,-3.2398,-3.1476,-3.1086,-3.0725,-3.0061,-2.9842,-3.0019,-3.0107,-3.0357,-3.0645,-3.0721,-3.1085,-3.1386,-3.1449,-3.1574,-3.1851,-3.2737,-3.2591,-3.2481,-3.2315,-3.2019,-3.2122,-3.2089,-3.195,-3.1801,-3.1709,-3.1532,-3.1351,-3.1067,-3.085,-3.0681,-3.0513,-3.029,-3.0122,-3.0122,-3.0122,-3.0278,-4.842,-4.7642,-4.7156,-4.6654,-4.6143,-4.5261,-4.4169,-4.298,-4.2002,-4.1179,-4.0493,-3.983,-3.9537,-3.9484,-3.9448,-3.9379,-3.9315,-3.9315,-3.9315,-3.9315,-3.9315,-3.9315,-3.9315,-3.9315,-3.9315,-3.9315,-3.9315,-3.9315,-3.9315,-3.9315,-3.9191,-3.8996,-3.8942,-3.8816,-3.8579,-3.8197,-3.8181,-3.8409,-3.7213,-3.6178,-3.5379,-3.4187,-3.2968,-3.1612,-3.1496,-3.1496,-3.1496,-3.1496,-3.1482,-3.1438,-3.1351,-3.1248,-3.1146,-3.1336,-3.1959,-3.298,-3.3373,-3.3779,-3.4298,-3.438,-3.438,-3.438,-3.438,-3.438,-3.438,-3.438,-3.438,-3.438,-3.438,-3.438,-3.438,-3.438,-3.438,-3.438,-3.438,-3.4298,-3.3962,-3.3506,-3.2953,-3.242,-3.1988,-3.1355,-3.0696,-3.0482,-3.0305,-2.9908,-2.9967,-3.008,-3.0168,-3.0557,-3.0896,-3.0959,-3.1185,-3.1524,-3.1838,-3.1935,-3.181,-3.1697,-3.1517,-3.1403,-3.1295,-3.1296,-3.1205,-3.1095,-3.1034,-3.0918,-3.0592,-3.0338,-3.0133,-2.9802,-2.9622,-2.9581,-2.9581,-2.9581,-2.9761,-4.8185,-4.7627,-4.6848,-4.6359,-4.5992,-4.4857,-4.3799,-4.2853,-4.2118,-4.1328,-4.0549,-4.0087,-3.9816,-3.9616,-3.9537,-3.9432,-3.9352,-3.9325,-3.9315,-3.9315,-3.9315,-3.9315,-3.9315,-3.9315,-3.9315,-3.9315,-3.9315,-3.9315,-3.9315,-3.9315,-3.9315,-3.9299,-3.9315,-3.9315,-3.9218,-3.8843,-3.8871,-3.9016,-3.8111,-3.7097,-3.6249,-3.5166,-3.3981,-3.282,-3.2283,-3.1866,-3.1524,-3.1496,-3.1496,-3.1467,-3.1409,-3.144,-3.1649,-3.2117,-3.275,-3.3471,-3.3725,-3.3949,-3.4327,-3.438,-3.438,-3.438,-3.438,-3.438,-3.438,-3.438,-3.438,-3.438,-3.438,-3.438,-3.438,-3.438,-3.438,-3.438,-3.438,-3.438,-3.438,-3.3928,-3.352,-3.3087,-3.247,-3.1783,-3.1119,-3.0932,-3.0545,-2.9895,-2.9779,-2.9779,-2.9842,-3.008,-3.0344,-3.0369,-3.0595,-3.0746,-3.0884,-3.0856,-3.1283,-3.126,-3.1269,-3.0993,-3.0783,-3.0737,-3.0667,-3.055,-3.0413,-3.0311,-3.0119,-2.9866,-2.9559,-2.9245,-2.908,-2.9039,-2.9039,-2.9039,-2.9261,-4.7714,-4.7591,-4.683,-4.5997,-4.5327,-4.4418,-4.3352,-4.2399,-4.2089,-4.1556,-4.0949,-4.0521,-4.0212,-3.991,-3.9668,-3.9528,-3.9475,-3.9369,-3.9299,-3.9315,-3.9315,-3.9315,-3.9315,-3.9315,-3.9315,-3.9315,-3.9315,-3.9315,-3.9315,-3.9315,-3.9315,-3.9315,-3.9315,-3.9315,-3.9315,-3.9245,-3.9245,-3.9156,-3.8547,-3.8124,-3.7926,-3.614,-3.4997,-3.4689,-3.3678,-3.2656,-3.1698,-3.1626,-3.1625,-3.1553,-3.1568,-3.1766,-3.2332,-3.3105,-3.3677,-3.382,-3.4137,-3.4356,-3.4399,-3.4414,-3.438,-3.438,-3.438,-3.438,-3.438,-3.438,-3.438,-3.438,-3.438,-3.438,-3.438,-3.438,-3.438,-3.438,-3.438,-3.438,-3.438,-3.438,-3.4113,-3.3367,-3.2755,-3.1856,-3.1193,-3.1044,-3.0771,-3.0075,-2.9779,-2.9779,-2.9779,-2.988,-2.9829,-2.9842,-3.0018,-3.0181,-2.9993,-2.988,-3.0495,-3.0984,-3.1032,-3.0951,-3.073,-3.0624,-3.0452,-3.0302,-3.0114,-3.0012,-2.9764,-2.95,-2.9265,-2.897,-2.8778,-2.8723,-2.8759,-2.8807,-2.8735,-4.7699,-4.7536,-4.6232,-4.5544,-4.511,-4.3842,-4.3005,-4.2671,-4.23,-4.1973,-4.1652,-4.0978,-4.0563,-4.0336,-3.9986,-3.9685,-3.9501,-3.9432,-3.9379,-3.9325,-3.9315,-3.9315,-3.9315,-3.9315,-3.9315,-3.9315,-3.9315,-3.9315,-3.9315,-3.9315,-3.9315,-3.9315,-3.9315,-3.9315,-3.9315,-3.9315,-3.9315,-3.9265,-3.9083,-3.8533,-3.7611,-3.6495,-3.5475,-3.4548,-3.3668,-3.3217,-3.34,-3.2928,-3.252,-3.2135,-3.2135,-3.2352,-3.2943,-3.3634,-3.4171,-3.4482,-3.4551,-3.4597,-3.4597,-3.4481,-3.4414,-3.4414,-3.4414,-3.438,-3.438,-3.438,-3.438,-3.438,-3.438,-3.438,-3.438,-3.438,-3.438,-3.438,-3.438,-3.438,-3.438,-3.438,-3.4312,-3.4079,-3.3825,-3.315,-3.211,-3.1733,-3.1206,-3.0088,-2.9856,-2.9818,-2.9792,-2.9779,-2.9779,-2.9779,-2.9779,-2.9779,-2.9779,-2.9779,-3.0093,-3.0432,-3.0532,-3.0633,-3.049,-3.0373,-3.0231,-3.0087,-2.9902,-2.9736,-2.9462,-2.9275,-2.9101,-2.9013,-2.8971,-2.8892,-2.8736,-2.8736,-2.8736,-4.7699,-4.7518,-4.5961,-4.5291,-4.5091,-4.357,-4.2919,-4.2863,-4.2577,-4.2378,-4.2095,-4.1587,-4.1088,-4.0666,-4.0311,-3.9986,-3.9668,-3.9606,-3.9484,-3.9379,-3.9299,-3.9315,-3.9315,-3.9315,-3.9315,-3.9315,-3.9315,-3.9315,-3.9315,-3.9315,-3.9315,-3.9315,-3.9315,-3.9315,-3.9315,-3.9315,-3.9315,-3.9315,-3.9299,-3.8906,-3.8029,-3.7055,-3.6163,-3.5372,-3.4633,-3.452,-3.4874,-3.4713,-3.4075,-3.3036,-3.2586,-3.2716,-3.3287,-3.3878,-3.4436,-3.4853,-3.4883,-3.4783,-3.475,-3.4616,-3.4515,-3.4515,-3.4448,-3.438,-3.438,-3.438,-3.438,-3.438,-3.438,-3.438,-3.438,-3.438,-3.438,-3.438,-3.438,-3.438,-3.438,-3.438,-3.438,-3.4346,-3.4346,-3.3742,-3.2911,-3.247,-3.1856,-3.0608,-3.0203,-2.9998,-2.9934,-2.9779,-2.9779,-2.9779,-2.9779,-2.9779,-2.9779,-2.9779,-2.9779,-2.988,-2.9942,-3.003,-3.0004,-3.0004,-2.99,-2.9886,-2.9756,-2.9793,-2.9568,-2.9361,-2.9197,-2.9197,-2.917,-2.9013,-2.8934,-2.8973,-2.8973,-4.7699,-4.75,-4.5961,-4.5291,-4.5091,-4.3589,-4.2919,-4.29,-4.2863,-4.2634,-4.23,-4.2136,-4.1674,-4.1019,-4.0767,-4.0449,-4.0037,-3.9867,-3.9738,-3.9599,-3.9458,-3.9352,-3.9299,-3.9315,-3.9315,-3.9315,-3.9315,-3.9315,-3.9315,-3.9315,-3.9315,-3.9315,-3.9315,-3.9315,-3.9315,-3.9315,-3.9315,-3.9315,-3.9315,-3.9239,-3.9096,-3.7788,-3.7035,-3.6885,-3.6084,-3.5687,-3.5877,-3.6114,-3.5635,-3.3849,-3.3086,-3.3051,-3.3529,-3.4001,-3.4651,-3.5184,-3.5049,-3.4935,-3.4868,-3.475,-3.4664,-3.4631,-3.4481,-3.438,-3.438,-3.438,-3.438,-3.438,-3.438,-3.438,-3.438,-3.438,-3.438,-3.438,-3.438,-3.438,-3.438,-3.438,-3.438,-3.438,-3.4332,-3.4065,-3.3227,-3.3122,-3.2349,-3.1304,-3.0782,-3.0482,-2.9998,-2.9779,-2.9779,-2.9779,-2.9779,-2.9779,-2.9779,-2.9779,-2.9779,-2.9779,-2.9779,-2.9779,-2.9779,-2.9779,-2.9779,-2.9753,-2.9753,-2.9753,-2.9702,-2.9521,-2.9431,-2.9443,-2.9365,-2.9182,-2.9143,-2.9209,-2.9209,-4.7699,-4.7536,-4.5961,-4.5291,-4.5073,-4.3589,-4.2919,-4.2919,-4.2919,-4.2825,-4.2635,-4.2358,-4.2074,-4.1803,-4.1432,-4.1122,-4.0814,-4.0497,-4.0294,-4.0137,-3.9764,-3.9494,-3.9325,-3.9315,-3.9315,-3.9315,-3.9315,-3.9315,-3.9315,-3.9315,-3.9315,-3.9315,-3.9315,-3.9315,-3.9315,-3.9315,-3.9315,-3.9315,-3.9315,-3.9299,-3.905,-3.7847,-3.7135,-3.6986,-3.5893,-3.5562,-3.5877,-3.5742,-3.5491,-3.492,-3.4178,-3.394,-3.4236,-3.4786,-3.5188,-3.5299,-3.5213,-3.5034,-3.4902,-3.4783,-3.4631,-3.4481,-3.4448,-3.438,-3.438,-3.438,-3.438,-3.438,-3.438,-3.438,-3.438,-3.438,-3.438,-3.438,-3.438,-3.438,-3.438,-3.438,-3.438,-3.438,-3.438,-3.3997,-3.352,-3.3192,-3.2706,-3.1476,-3.097,-3.072,-3.0203,-2.9779,-2.9779,-2.9779,-2.9779,-2.9779,-2.9779,-2.9779,-2.9779,-2.9779,-2.9779,-2.9779,-2.9779,-2.9779,-2.9779,-2.9779,-2.9753,-2.9779,-2.9779,-2.9702,-2.9689,-2.9638,-2.9611,-2.9507,-2.9443,-2.9431,-2.9443,-4.7699,-4.7572,-4.5961,-4.5291,-4.5091,-4.357,-4.2919,-4.2919,-4.2919,-4.2919,-4.2825,-4.2634,-4.2378,-4.2177,-4.1909,-4.1503,-4.1094,-4.0808,-4.0514,-4.0154,-3.9764,-3.9537,-3.9395,-3.9342,-3.9315,-3.9315,-3.9315,-3.9315,-3.9315,-3.9315,-3.9315,-3.9315,-3.9315,-3.9315,-3.9315,-3.9315,-3.9315,-3.9315,-3.9299,-3.9183,-3.8758,-3.7715,-3.6986,-3.6638,-3.5777,-3.5711,-3.6307,-3.6138,-3.5671,-3.5006,-3.4523,-3.4455,-3.4866,-3.5228,-3.5495,-3.5509,-3.5392,-3.5261,-3.5148,-3.4916,-3.475,-3.4616,-3.4515,-3.4414,-3.438,-3.438,-3.438,-3.438,-3.438,-3.438,-3.438,-3.438,-3.438,-3.438,-3.438,-3.438,-3.438,-3.438,-3.438,-3.438,-3.438,-3.4264,-3.3742,-3.3693,-3.3073,-3.2191,-3.1659,-3.1132,-3.0482,-3.0101,-2.9779,-2.9779,-2.9779,-2.9779,-2.9779,-2.9779,-2.9779,-2.9779,-2.9779,-2.9779,-2.9779,-2.9779,-2.9779,-2.9779,-2.9779,-2.9779,-2.9779,-2.9779,-2.9779,-2.974,-2.9779,-2.974,-2.965,-2.9548,-2.9573,-4.7714,-4.7446,-4.5924,-4.5254,-4.491,-4.3552,-4.2919,-4.2919,-4.2919,-4.2919,-4.29,-4.29,-4.2671,-4.2259,-4.2297,-4.1825,-4.1134,-4.1134,-4.0683,-4.0286,-3.9901,-3.9729,-3.9703,-3.9432,-3.9352,-3.9342,-3.9325,-3.9299,-3.9299,-3.9315,-3.9315,-3.9315,-3.9315,-3.9315,-3.9315,-3.9315,-3.9315,-3.9265,-3.9116,-3.8808,-3.8245,-3.74,-3.6638,-3.6174,-3.5843,-3.5909,-3.6423,-3.6538,-3.6044,-3.4569,-3.444,-3.4773,-3.5304,-3.5353,-3.5292,-3.5379,-3.5382,-3.5472,-3.5392,-3.5082,-3.4902,-3.482,-3.4568,-3.4448,-3.4448,-3.4448,-3.438,-3.438,-3.438,-3.438,-3.438,-3.438,-3.438,-3.438,-3.438,-3.438,-3.438,-3.438,-3.438,-3.438,-3.438,-3.438,-3.438,-3.4332,-3.4031,-3.2812,-3.2313,-3.1696,-3.102,-3.0444,-3.0062,-2.9779,-2.9779,-2.9779,-2.9779,-2.9779,-2.9779,-2.9779,-2.9779,-2.9779,-2.9779,-2.9779,-2.9779,-2.9779,-2.9779,-2.9779,-2.9779,-2.9779,-2.9779,-2.9779,-2.9779,-2.9779,-2.974,-2.9599,-2.956,-4.7913,-4.6685,-4.5707,-4.4928,-4.424,-4.3336,-4.2919,-4.2919,-4.2919,-4.2919,-4.2919,-4.2919,-4.2844,-4.2729,-4.271,-4.2596,-4.2239,-4.1948,-4.163,-4.1145,-4.0577,-4.0375,-4.022,-3.979,-3.9432,-3.9379,-3.9422,-3.9405,-3.9325,-3.9342,-3.9315,-3.9299,-3.9299,-3.9315,-3.9315,-3.9315,-3.9315,-3.9216,-3.8758,-3.8411,-3.7963,-3.6936,-3.6191,-3.5909,-3.5462,-3.5247,-3.5313,-3.5379,-3.544,-3.5502,-3.5289,-3.5147,-3.5317,-3.5049,-3.4875,-3.4956,-3.5295,-3.5439,-3.5294,-3.518,-3.5067,-3.4887,-3.475,-3.4631,-3.4597,-3.4481,-3.4414,-3.438,-3.438,-3.438,-3.438,-3.438,-3.438,-3.438,-3.438,-3.438,-3.438,-3.438,-3.438,-3.438,-3.438,-3.438,-3.438,-3.438,-3.4045,-3.3367,-3.2826,-3.2277,-3.1586,-3.0833,-3.0305,-2.9882,-2.9779,-2.9779,-2.9779,-2.9779,-2.9779,-2.9779,-2.9779,-2.9779,-2.9779,-2.9779,-2.9779,-2.9779,-2.9779,-2.9779,-2.9779,-2.9779,-2.9779,-2.9779,-2.9779,-2.9779,-2.974,-2.965,-2.9611,-4.7609,-4.6413,-4.5236,-4.4494,-4.3987,-4.3263,-4.2919,-4.2919,-4.2919,-4.2919,-4.2919,-4.2919,-4.2919,-4.2919,-4.29,-4.2788,-4.2498,-4.2077,-4.1739,-4.1415,-4.1053,-4.0797,-4.0552,-4.0195,-3.9876,-3.9573,-3.9563,-3.9537,-3.9511,-3.9448,-3.9422,-3.9379,-3.9325,-3.9315,-3.9315,-3.9315,-3.9315,-3.9166,-3.8576,-3.8053,-3.7549,-3.6622,-3.5744,-3.5528,-3.5098,-3.4899,-3.4949,-3.5313,-3.5611,-3.5762,-3.5493,-3.5423,-3.5658,-3.5263,-3.4953,-3.506,-3.525,-3.5472,-3.5374,-3.5261,-3.5148,-3.5034,-3.4916,-3.4798,-3.4698,-3.4597,-3.4481,-3.4414,-3.438,-3.438,-3.438,-3.438,-3.438,-3.438,-3.438,-3.438,-3.438,-3.438,-3.438,-3.438,-3.438,-3.438,-3.438,-3.438,-3.4346,-3.3825,-3.3262,-3.2706,-3.1915,-3.1156,-3.0444,-3.0062,-2.9856,-2.9779,-2.9779,-2.9779,-2.9779,-2.9779,-2.9779,-2.9779,-2.9779,-2.9779,-2.9779,-2.9779,-2.9779,-2.9779,-2.9779,-2.9779,-2.9779,-2.9779,-2.9779,-2.9779,-2.9779,-2.9702,-2.9702,-4.6975,-4.6033,-4.4657,-4.4023,-4.3825,-4.3172,-4.2919,-4.2919,-4.2919,-4.2919,-4.2919,-4.2919,-4.2919,-4.2919,-4.2919,-4.2653,-4.234,-4.2035,-4.1909,-4.1846,-4.1591,-4.1303,-4.0984,-4.0672,-4.0343,-3.9893,-3.9781,-3.9729,-3.9651,-3.959,-3.9511,-3.9501,-3.9395,-3.9342,-3.9315,-3.9299,-3.9199,-3.8967,-3.8295,-3.759,-3.6953,-3.6158,-3.5479,-3.5098,-3.4949,-3.4899,-3.4998,-3.5346,-3.576,-3.5778,-3.5255,-3.5433,-3.5732,-3.5478,-3.5217,-3.5215,-3.5212,-3.5307,-3.5409,-3.5359,-3.5246,-3.5213,-3.5082,-3.4916,-3.4831,-3.4765,-3.465,-3.4549,-3.4481,-3.4448,-3.4414,-3.438,-3.438,-3.438,-3.438,-3.438,-3.438,-3.438,-3.438,-3.438,-3.438,-3.438,-3.438,-3.438,-3.438,-3.4298,-3.3707,-3.3073,-3.2313,-3.1733,-3.1169,-3.0595,-3.0457,-2.996,-2.9856,-2.9779,-2.9779,-2.9779,-2.9779,-2.9779,-2.9779,-2.9779,-2.9779,-2.9779,-2.9779,-2.9779,-2.9779,-2.9779,-2.9779,-2.9779,-2.9779,-2.9779,-2.9779,-2.9753,-2.974,-4.5834,-4.4458,-4.4204,-4.3715,-4.3118,-4.2955,-4.2919,-4.2919,-4.2919,-4.2919,-4.2919,-4.2919,-4.2919,-4.2919,-4.2919,-4.2843,-4.2692,-4.2555,-4.2575,-4.2498,-4.2218,-4.1909,-4.1696,-4.1094,-4.0713,-4.0507,-4.0146,-3.9833,-3.9755,-3.9677,-3.9616,-3.9511,-3.9458,-3.9405,-3.9325,-3.9282,-3.9,-3.8493,-3.7798,-3.7069,-3.6324,-3.5595,-3.5131,-3.4899,-3.4899,-3.4899,-3.4899,-3.4998,-3.5081,-3.5033,-3.4554,-3.4706,-3.4963,-3.4419,-3.4239,-3.4591,-3.4788,-3.5053,-3.5377,-3.5477,-3.5442,-3.5392,-3.5261,-3.5148,-3.5096,-3.4983,-3.485,-3.4769,-3.4683,-3.4597,-3.4414,-3.4414,-3.4399,-3.4399,-3.438,-3.438,-3.438,-3.438,-3.438,-3.438,-3.438,-3.438,-3.438,-3.438,-3.438,-3.438,-3.4113,-3.352,-3.2861,-3.2577,-3.2362,-3.1746,-3.1206,-3.0533,-2.9934,-2.9818,-2.9779,-2.9779,-2.9779,-2.9779,-2.9779,-2.9779,-2.9779,-2.9779,-2.9779,-2.9779,-2.9779,-2.9779,-2.9779,-2.9779,-2.9779,-2.9779,-2.9779,-2.9753,-2.9702,-4.5182,-4.4077,-4.3643,-4.3244,-4.2955,-4.2919,-4.2919,-4.2919,-4.2919,-4.2919,-4.2919,-4.2919,-4.2919,-4.2919,-4.2919,-4.2919,-4.2919,-4.2919,-4.2919,-4.2825,-4.2673,-4.2398,-4.2177,-4.1477,-4.1065,-4.0707,-4.0254,-4.0011,-3.991,-3.9849,-3.9729,-3.9616,-3.9537,-3.9432,-3.9325,-3.9299,-3.8884,-3.8195,-3.7466,-3.6721,-3.5992,-3.5263,-3.4949,-3.4899,-3.4899,-3.4899,-3.4899,-3.4899,-3.4916,-3.4892,-3.4659,-3.4718,-3.4641,-3.4374,-3.403,-3.46,-3.4809,-3.4973,-3.5337,-3.541,-3.5421,-3.5492,-3.5407,-3.5294,-3.5228,-3.5115,-3.5016,-3.4902,-3.4868,-3.4716,-3.4597,-3.4563,-3.4515,-3.4414,-3.438,-3.438,-3.438,-3.438,-3.438,-3.438,-3.438,-3.438,-3.438,-3.438,-3.438,-3.438,-3.438,-3.3928,-3.3332,-3.3227,-3.3122,-3.2362,-3.1673,-3.1132,-3.0419,-3.0101,-2.9998,-2.996,-2.9779,-2.9779,-2.9779,-2.9779,-2.9779,-2.9779,-2.9779,-2.9779,-2.9779,-2.9779,-2.9779,-2.9779,-2.9779,-2.9779,-2.9779,-2.974,-2.974,-4.444,-4.3806,-4.3173,-4.2919,-4.2919,-4.2919,-4.2919,-4.2919,-4.2919,-4.2919,-4.2919,-4.2919,-4.2919,-4.2919,-4.2919,-4.2919,-4.2919,-4.2919,-4.2919,-4.29,-4.2863,-4.2653,-4.232,-4.1867,-4.1499,-4.1208,-4.0713,-4.0279,-4.007,-3.9986,-3.9858,-3.9755,-3.9616,-3.9511,-3.9432,-3.9163,-3.8738,-3.8006,-3.7251,-3.6522,-3.5794,-3.523,-3.4899,-3.4899,-3.4899,-3.4899,-3.4899,-3.4899,-3.4899,-3.4899,-3.4875,-3.4892,-3.4844,-3.4497,-3.4542,-3.5026,-3.5055,-3.5151,-3.5483,-3.5551,-3.5677,-3.5785,-3.5718,-3.5539,-3.5326,-3.5261,-3.5195,-3.5016,-3.4968,-3.4902,-3.475,-3.4731,-3.4631,-3.4515,-3.4414,-3.438,-3.438,-3.438,-3.438,-3.438,-3.438,-3.438,-3.438,-3.438,-3.438,-3.438,-3.438,-3.4298,-3.3776,-3.3673,-3.3416,-3.2648,-3.2024,-3.1636,-3.1095,-3.052,-3.0381,-3.0317,-2.9998,-2.9779,-2.9779,-2.9779,-2.9779,-2.9779,-2.9779,-2.9779,-2.9779,-2.9779,-2.9779,-2.9779,-2.9779,-2.9779,-2.9779,-2.9779,-2.974,-4.3137,-4.3046,-4.2973,-4.2919,-4.2919,-4.2919,-4.2919,-4.2919,-4.2919,-4.2919,-4.2919,-4.2919,-4.2919,-4.2937,-4.2973,-4.2955,-4.2973,-4.3028,-4.3064,-4.3082,-4.2936,-4.2863,-4.2749,-4.2338,-4.2032,-4.176,-4.1415,-4.0855,-4.041,-4.0179,-4.0011,-3.9884,-3.9824,-3.9738,-3.9415,-3.8918,-3.8152,-3.7411,-3.658,-3.5794,-3.5197,-3.4965,-3.4916,-3.4899,-3.4899,-3.4899,-3.4899,-3.4899,-3.4899,-3.4899,-3.4899,-3.4899,-3.4899,-3.4875,-3.482,-3.4799,-3.4726,-3.4857,-3.5852,-3.5878,-3.6005,-3.6029,-3.6103,-3.5943,-3.5499,-3.532,-3.5255,-3.5195,-3.5118,-3.5067,-3.4887,-3.4783,-3.4698,-3.4597,-3.4515,-3.4448,-3.4399,-3.438,-3.438,-3.438,-3.438,-3.438,-3.438,-3.438,-3.438,-3.438,-3.438,-3.4298,-3.4182,-3.4079,-3.3928,-3.3241,-3.2648,-3.2241,-3.1842,-3.1281,-3.0809,-3.0696,-3.0343,-2.9921,-2.9779,-2.9779,-2.9779,-2.9779,-2.9779,-2.9779,-2.9779,-2.9779,-2.9779,-2.9779,-2.9779,-2.9779,-2.9779,-2.9779,-2.9779,-4.3032,-4.2919,-4.2919,-4.2919,-4.2919,-4.2919,-4.2919,-4.2919,-4.2919,-4.2919,-4.2919,-4.2919,-4.2919,-4.3046,-4.3318,-4.3589,-4.3588,-4.3516,-4.357,-4.3353,-4.3118,-4.2919,-4.2787,-4.2438,-4.2216,-4.2115,-4.1743,-4.1366,-4.0902,-4.0563,-4.0328,-3.9901,-3.9833,-3.9538,-3.9117,-3.8629,-3.7744,-3.6795,-3.5867,-3.5247,-3.4982,-3.4899,-3.4899,-3.4899,-3.4899,-3.4899,-3.4899,-3.4899,-3.4899,-3.4899,-3.4899,-3.4899,-3.4899,-3.4899,-3.4916,-3.4885,-3.4734,-3.5134,-3.5913,-3.5502,-3.5739,-3.5983,-3.5828,-3.5115,-3.4985,-3.4921,-3.4921,-3.481,-3.4795,-3.4847,-3.4981,-3.5016,-3.4883,-3.4735,-3.4426,-3.437,-3.4302,-3.4399,-3.438,-3.438,-3.438,-3.438,-3.438,-3.438,-3.438,-3.438,-3.438,-3.4346,-3.4332,-3.4298,-3.4196,-3.3962,-3.3451,-3.2932,-3.2541,-3.206,-3.1341,-3.1082,-3.0796,-3.0368,-2.9882,-2.9779,-2.9754,-2.9767,-2.9767,-2.9767,-2.9754,-2.9779,-2.9779,-2.9779,-2.9779,-2.9779,-2.9779,-2.9779,-2.9779,-4.3178,-4.2995,-4.2938,-4.2919,-4.2919,-4.2919,-4.2919,-4.2919,-4.2919,-4.2919,-4.2973,-4.3137,-4.3318,-4.348,-4.3896,-4.3987,-4.4023,-4.3896,-4.3806,-4.3552,-4.3281,-4.2955,-4.2806,-4.2536,-4.2398,-4.2378,-4.216,-4.1846,-4.1609,-4.1303,-4.0769,-3.9892,-3.9831,-3.9294,-3.8564,-3.7953,-3.7176,-3.6004,-3.5367,-3.5013,-3.4899,-3.4899,-3.4899,-3.4899,-3.4899,-3.4899,-3.4899,-3.4899,-3.4899,-3.4899,-3.4899,-3.4899,-3.4899,-3.4899,-3.4899,-3.4899,-3.4838,-3.5202,-3.5626,-3.5535,-3.5399,-3.5506,-3.5309,-3.4682,-3.4817,-3.457,-3.4264,-3.4233,-3.4247,-3.4407,-3.4624,-3.4649,-3.4416,-3.4224,-3.4152,-3.409,-3.4078,-3.4078,-3.4118,-3.408,-3.4153,-3.438,-3.438,-3.438,-3.438,-3.438,-3.438,-3.438,-3.438,-3.438,-3.4332,-3.423,-3.4011,-3.3604,-3.3346,-3.2861,-3.2132,-3.1549,-3.1254,-3.0782,-3.0343,-2.9909,-2.9679,-2.9691,-2.9641,-2.934,-2.9076,-2.944,-2.9779,-2.9779,-2.9779,-2.9779,-2.9779,-2.9754,-2.9754,-4.3285,-4.3249,-4.305,-4.2992,-4.2955,-4.2919,-4.2937,-4.3137,-4.3028,-4.3028,-4.3137,-4.3644,-4.4277,-4.4639,-4.4222,-4.4095,-4.4059,-4.3335,-4.3262,-4.3173,-4.2937,-4.2919,-4.2844,-4.2825,-4.2787,-4.2787,-4.2596,-4.24,-4.2183,-4.1896,-4.1025,-3.9957,-3.9753,-3.8969,-3.8021,-3.7151,-3.6413,-3.5525,-3.5138,-3.5034,-3.4947,-3.4923,-3.4899,-3.4899,-3.4899,-3.4899,-3.4899,-3.4899,-3.4899,-3.4899,-3.4899,-3.4899,-3.4899,-3.4899,-3.4899,-3.4899,-3.4899,-3.5257,-3.5515,-3.5578,-3.5834,-3.5663,-3.5162,-3.4499,-3.4728,-3.403,-3.3666,-3.3559,-3.3574,-3.3664,-3.3631,-3.3495,-3.3684,-3.3646,-3.3638,-3.3495,-3.3516,-3.3659,-3.3682,-3.3696,-3.3794,-3.391,-3.3964,-3.3862,-3.4235,-3.4279,-3.438,-3.438,-3.438,-3.438,-3.438,-3.4346,-3.4346,-3.4196,-3.4162,-3.3638,-3.2932,-3.2349,-3.1951,-3.1402,-3.0796,-3.0329,-2.9732,-2.9277,-2.9114,-2.8762,-2.8549,-2.8938,-2.9315,-2.9641,-2.9767,-2.9729,-2.9553,-2.9415,-2.9515,-4.5243,-4.507,-4.4965,-4.4437,-4.3643,-4.3625,-4.3914,-4.4331,-4.4367,-4.4059,-4.3644,-4.3969,-4.3987,-4.3932,-4.4168,-4.4095,-4.4059,-4.3843,-4.3607,-4.3425,-4.3226,-4.2973,-4.2919,-4.2919,-4.29,-4.2883,-4.2864,-4.2863,-4.2635,-4.2089,-4.0897,-3.9985,-3.9619,-3.8579,-3.7522,-3.6437,-3.5759,-3.5442,-3.5222,-3.5152,-3.5041,-3.5018,-3.497,-3.4899,-3.4899,-3.4899,-3.4899,-3.4899,-3.4899,-3.4899,-3.4899,-3.4899,-3.4899,-3.4899,-3.4899,-3.4899,-3.4899,-3.5081,-3.5191,-3.5128,-3.488,-3.4888,-3.4535,-3.4321,-3.438,-3.338,-3.2976,-3.2901,-3.2901,-3.2976,-3.3409,-3.3423,-3.3451,-3.3253,-3.3071,-3.2887,-3.2928,-3.3071,-3.3138,-3.3109,-3.3106,-3.3132,-3.3155,-3.3166,-3.3699,-3.4192,-3.4293,-3.4351,-3.4327,-3.4298,-3.4254,-3.4167,-3.4138,-3.424,-3.4187,-3.3945,-3.3665,-3.3094,-3.2475,-3.173,-3.0993,-3.0414,-2.9799,-2.9223,-2.8612,-2.8298,-2.8235,-2.8499,-2.88,-2.9126,-2.9415,-2.9616,-2.939,-2.9076,-2.9114,-4.5762,-4.5582,-4.548,-4.5149,-4.4633,-4.4613,-4.4863,-4.5182,-4.4965,-4.4657,-4.4095,-4.4059,-4.3969,-4.3788,-4.3842,-4.4095,-4.3987,-4.3788,-4.3697,-4.3462,-4.3118,-4.2937,-4.2919,-4.2865,-4.2737,-4.2647,-4.252,-4.2447,-4.1958,-4.1578,-4.0482,-3.9578,-3.9161,-3.8191,-3.6712,-3.5886,-3.5475,-3.5383,-3.5354,-3.5291,-3.5175,-3.5152,-3.5152,-3.5041,-3.5018,-3.497,-3.497,-3.4947,-3.4899,-3.4899,-3.4899,-3.4899,-3.4899,-3.4899,-3.4899,-3.4899,-3.4899,-3.4899,-3.4804,-3.4636,-3.4491,-3.4971,-3.4433,-3.4128,-3.3627,-3.2959,-3.2535,-3.2183,-3.2213,-3.2437,-3.2961,-3.2721,-3.2632,-3.2407,-3.2407,-3.2302,-3.2329,-3.2429,-3.2467,-3.2474,-3.2557,-3.2693,-3.2736,-3.2817,-3.318,-3.3703,-3.3891,-3.3949,-3.3964,-3.3949,-3.3978,-3.3862,-3.3732,-3.3891,-3.4018,-3.3561,-3.3102,-3.2715,-3.2137,-3.1632,-3.0994,-3.0358,-2.9582,-2.8757,-2.8235,-2.7883,-2.777,-2.7795,-2.8147,-2.8549,-2.8825,-2.9013,-2.8888,-2.8561,-2.8536,-4.4296,-4.4116,-4.4029,-4.4665,-4.5627,-4.5718,-4.553,-4.5278,-4.464,-4.424,-4.4114,-4.4095,-4.4367,-4.4584,-4.4077,-4.3806,-4.3625,-4.3244,-4.2991,-4.2864,-4.2755,-4.2792,-4.2737,-4.2592,-4.214,-4.1831,-4.1687,-4.1397,-4.08,-4.0637,-3.9805,-3.9023,-3.8569,-3.772,-3.5835,-3.5633,-3.5571,-3.5498,-3.5492,-3.5423,-3.5314,-3.5291,-3.5268,-3.5222,-3.5111,-3.5065,-3.5041,-3.4947,-3.4899,-3.4899,-3.4899,-3.4899,-3.4899,-3.4899,-3.4899,-3.4899,-3.4899,-3.4899,-3.4899,-3.4875,-3.5061,-3.53,-3.4636,-3.4138,-3.3957,-3.3236,-3.23,-3.2081,-3.1849,-3.1688,-3.1674,-3.1645,-3.1765,-3.1795,-3.1841,-3.1871,-3.1916,-3.193,-3.1987,-3.1985,-3.2236,-3.2469,-3.2454,-3.2513,-3.2759,-3.3093,-3.3402,-3.3518,-3.3485,-3.3485,-3.3485,-3.3427,-3.3267,-3.3311,-3.334,-3.2948,-3.2526,-3.2194,-3.1929,-3.1611,-3.0802,-2.9923,-2.9126,-2.8315,-2.7733,-2.7281,-2.7092,-2.6967,-2.7394,-2.7808,-2.8047,-2.8185,-2.8109,-2.8034,-2.7934,-4.6031,-4.6031,-4.5922,-4.6031,-4.6123,-4.5296,-4.5149,-4.5436,-4.5081,-4.4584,-4.4168,-4.4095,-4.3824,-4.3698,-4.3463,-4.3045,-4.2592,-4.3045,-4.2774,-4.2122,-4.2103,-4.2103,-4.2013,-4.1669,-4.1234,-4.0999,-4.0872,-4.0818,-4.0564,-4.0039,-3.9446,-3.8758,-3.8015,-3.7003,-3.6293,-3.6023,-3.5937,-3.5639,-3.5549,-3.5526,-3.5469,-3.5406,-3.5383,-3.5331,-3.5182,-3.5111,-3.5111,-3.497,-3.4923,-3.4923,-3.4899,-3.4899,-3.4899,-3.4899,-3.4899,-3.4899,-3.4899,-3.4899,-3.4899,-3.4916,-3.4982,-3.497,-3.4702,-3.4189,-3.4028,-3.3441,-3.2711,-3.2244,-3.212,-3.1938,-3.1641,-3.1569,-3.16,-3.16,-3.1601,-3.1601,-3.1632,-3.1633,-3.1663,-3.1531,-3.1632,-3.1535,-3.1471,-3.1687,-3.1978,-3.2222,-3.2483,-3.2745,-3.2817,-3.2832,-3.28,-3.2832,-3.2759,-3.2759,-3.2643,-3.2309,-3.2208,-3.2032,-3.2015,-3.1994,-3.0995,-2.9587,-2.8913,-2.8213,-2.7411,-2.6713,-2.6725,-2.6738,-2.6776,-2.7027,-2.7366,-2.7544,-2.7544,-2.7381,-2.7178,-4.6134,-4.6134,-4.6134,-4.6023,-4.5758,-4.5249,-4.5151,-4.5165,-4.4935,-4.4421,-4.3807,-4.3643,-4.3244,-4.2683,-4.2429,-4.2049,-4.1397,-4.1759,-4.194,-4.1288,-4.1288,-4.1288,-4.1071,-4.0745,-4.051,-4.0256,-4.0093,-4.0021,-3.9568,-3.9188,-3.8813,-3.8367,-3.7753,-3.7314,-3.6821,-3.6597,-3.6305,-3.6006,-3.5871,-3.5756,-3.5616,-3.552,-3.5498,-3.5389,-3.5297,-3.5238,-3.5152,-3.5058,-3.4947,-3.4923,-3.4923,-3.4923,-3.4899,-3.4899,-3.4899,-3.4899,-3.4899,-3.4899,-3.4899,-3.4899,-3.4932,-3.4925,-3.4521,-3.43,-3.4126,-3.3713,-3.3256,-3.2884,-3.2738,-3.2477,-3.216,-3.2035,-3.1768,-3.1768,-3.1582,-3.1568,-3.1482,-3.1512,-3.1454,-3.1322,-3.119,-3.094,-3.0746,-3.0819,-3.1094,-3.1324,-3.1569,-3.1859,-3.2118,-3.2133,-3.2133,-3.2118,-3.2063,-3.1961,-3.1888,-3.1743,-3.17,-3.1816,-3.1729,-3.1593,-3.054,-2.9053,-2.8573,-2.8105,-2.7279,-2.6659,-2.6549,-2.6549,-2.6625,-2.6688,-2.6839,-2.6977,-2.7014,-2.6901,-2.6713,-4.4501,-4.4444,-4.4463,-4.4463,-4.4566,-4.5148,-4.5003,-4.4117,-4.4079,-4.3643,-4.2955,-4.2918,-4.2502,-4.1868,-4.1705,-4.1198,-4.0691,-4.0655,-4.0601,-4.0492,-4.0474,-4.0474,-4.0456,-4.0256,-3.9767,-3.9478,-3.9297,-3.9079,-3.8337,-3.8427,-3.8356,-3.8249,-3.8093,-3.7739,-3.7431,-3.7188,-3.6759,-3.6346,-3.6002,-3.5844,-3.5622,-3.5594,-3.5571,-3.5526,-3.5475,-3.54,-3.5308,-3.5175,-3.5065,-3.4994,-3.4939,-3.4923,-3.4899,-3.4899,-3.4899,-3.4899,-3.4899,-3.4899,-3.4899,-3.4899,-3.4899,-3.4899,-3.4875,-3.4586,-3.4349,-3.4159,-3.3799,-3.3465,-3.3256,-3.3188,-3.3066,-3.2668,-3.2287,-3.2051,-3.1754,-3.164,-3.1496,-3.1453,-3.1395,-3.1292,-3.1205,-3.1029,-3.0821,-3.0761,-3.079,-3.0831,-3.1092,-3.1177,-3.1424,-3.1496,-3.1482,-3.1453,-3.1322,-3.1105,-3.1047,-3.1163,-3.1179,-3.128,-3.0754,-3.0441,-2.9403,-2.8963,-2.8724,-2.8232,-2.7191,-2.6721,-2.6794,-2.6679,-2.6499,-2.6562,-2.6625,-2.665,-2.6763,-2.67,-2.6575,-4.4163,-4.367,-4.3651,-4.3313,-4.279,-4.2861,-4.3107,-4.347,-4.3321,-4.3082,-4.2864,-4.2285,-4.1868,-4.1669,-4.1089,-4.0419,-4.0166,-4.0111,-4.0057,-3.993,-3.9695,-3.9713,-3.955,-3.9242,-3.8826,-3.8663,-3.8536,-3.85,-3.8301,-3.8209,-3.8209,-3.821,-3.8209,-3.8071,-3.7985,-3.7881,-3.7167,-3.6553,-3.6156,-3.5849,-3.5689,-3.5616,-3.5616,-3.5594,-3.5543,-3.5469,-3.54,-3.5291,-3.5205,-3.5175,-3.5081,-3.5041,-3.5058,-3.497,-3.4899,-3.4899,-3.4899,-3.4899,-3.4899,-3.4899,-3.4899,-3.4899,-3.4899,-3.4875,-3.4707,-3.457,-3.4341,-3.4043,-3.3841,-3.3774,-3.3423,-3.3018,-3.2738,-3.252,-3.2092,-3.164,-3.1524,-3.1496,-3.1438,-3.1395,-3.1292,-3.1146,-3.094,-3.0851,-3.0836,-3.0702,-3.0656,-3.0772,-3.0859,-3.0945,-3.0988,-3.0974,-3.0916,-3.0816,-3.0757,-3.083,-3.0743,-3.061,-3.031,-3.0097,-2.9857,-2.9519,-2.9132,-2.8511,-2.7716,-2.7356,-2.7263,-2.7027,-2.6714,-2.6521,-2.6537,-2.6512,-2.6487,-2.6487,-2.6487,-4.3243,-4.2825,-4.2787,-4.2468,-4.2002,-4.1722,-4.2038,-4.2529,-4.235,-4.2229,-4.2156,-4.1649,-4.1196,-4.0815,-4.0273,-3.9659,-3.8989,-3.9206,-3.9224,-3.9043,-3.8952,-3.8916,-3.8681,-3.8482,-3.8337,-3.8209,-3.8209,-3.8281,-3.8209,-3.8209,-3.8209,-3.8209,-3.8209,-3.8209,-3.8106,-3.788,-3.7487,-3.69,-3.6412,-3.5985,-3.5739,-3.5622,-3.5616,-3.5616,-3.5549,-3.552,-3.5492,-3.5383,-3.5377,-3.5308,-3.5158,-3.5088,-3.5065,-3.497,-3.4923,-3.4899,-3.4899,-3.4899,-3.4899,-3.4899,-3.4899,-3.4899,-3.4899,-3.4899,-3.4899,-3.4804,-3.4643,-3.4456,-3.4423,-3.4259,-3.3748,-3.3293,-3.3203,-3.3087,-3.2382,-3.1668,-3.1611,-3.1626,-3.1568,-3.1511,-3.1395,-3.1278,-3.1117,-3.1014,-3.094,-3.0851,-3.0762,-3.0746,-3.0759,-3.0743,-3.0772,-3.0757,-3.0714,-3.0656,-3.0612,-3.0612,-3.0612,-3.0612,-3.0552,-3.0387,-3.0296,-2.9915,-2.9352,-2.8849,-2.8357,-2.8019,-2.7637,-2.7297,-2.6973,-2.6714,-2.6487,-2.6487,-2.6487,-2.6487,-2.6487,-4.1986,-4.1892,-4.1854,-4.1723,-4.1772,-4.1451,-4.1371,-4.1431,-4.1193,-4.1148,-4.118,-4.095,-4.0485,-4.0087,-3.9574,-3.9037,-3.8585,-3.8569,-3.859,-3.8245,-3.8373,-3.8391,-3.8373,-3.8209,-3.8209,-3.8209,-3.8209,-3.8209,-3.8209,-3.8209,-3.8209,-3.8209,-3.8209,-3.8209,-3.8158,-3.7933,-3.7596,-3.7302,-3.6919,-3.6539,-3.5898,-3.5689,-3.5644,-3.5616,-3.5594,-3.5571,-3.5537,-3.5492,-3.5469,-3.5337,-3.5205,-3.5135,-3.5041,-3.497,-3.4923,-3.4899,-3.4899,-3.4899,-3.4899,-3.4899,-3.4899,-3.4899,-3.4899,-3.4899,-3.4899,-3.4899,-3.4804,-3.4756,-3.4667,-3.4643,-3.4267,-3.3774,-3.3533,-3.3351,-3.283,-3.241,-3.2299,-3.2092,-3.1754,-3.164,-3.1482,-3.1351,-3.1263,-3.1146,-3.1014,-3.1014,-3.0895,-3.0791,-3.0732,-3.0672,-3.0642,-3.0612,-3.0612,-3.0612,-3.0612,-3.0612,-3.0612,-3.0612,-3.0612,-3.0507,-3.0326,-2.9931,-2.9484,-2.9251,-2.9048,-2.8376,-2.7934,-2.755,-2.7142,-2.6645,-2.6487,-2.6487,-2.6487,-2.6487,-2.6487,-4.1629,-4.1022,-4.0422,-4.019,-4.0178,-4.0108,-4.0101,-4.0083,-4.0025,-4.0454,-4.0979,-4.0554,-4.0191,-3.9866,-3.9129,-3.8634,-3.8476,-3.8307,-3.8225,-3.8227,-3.8209,-3.8209,-3.8209,-3.8209,-3.8209,-3.8209,-3.8209,-3.8209,-3.8209,-3.8209,-3.8209,-3.8209,-3.8209,-3.8209,-3.8192,-3.7967,-3.7845,-3.7596,-3.7414,-3.6978,-3.6308,-3.6071,-3.6023,-3.58,-3.5644,-3.5644,-3.5616,-3.5571,-3.5554,-3.5509,-3.5337,-3.5158,-3.4954,-3.4923,-3.4923,-3.4923,-3.4923,-3.4899,-3.4899,-3.4899,-3.4899,-3.4899,-3.4899,-3.4899,-3.4899,-3.4899,-3.4899,-3.4899,-3.4899,-3.4899,-3.478,-3.4259,-3.3866,-3.3636,-3.3308,-3.3108,-3.2922,-3.2449,-3.1951,-3.171,-3.1524,-3.1438,-3.1351,-3.1263,-3.1117,-3.0999,-3.0881,-3.0762,-3.0732,-3.0657,-3.0672,-3.0642,-3.0612,-3.0612,-3.0612,-3.0612,-3.0612,-3.0612,-3.0612,-3.0477,-3.0326,-3.016,-2.9962,-2.9993,-2.9763,-2.9093,-2.8422,-2.7835,-2.7384,-2.6871,-2.6611,-2.6679,-2.6555,-2.6487,-2.6487,-4.0685,-4.0234,-3.9796,-3.9608,-3.9608,-3.9608,-3.9608,-3.9608,-3.9608,-3.9919,-4.0365,-3.995,-3.9707,-3.9678,-3.8954,-3.8588,-3.8525,-3.8419,-3.829,-3.8242,-3.8209,-3.8209,-3.8209,-3.8209,-3.8209,-3.8209,-3.8209,-3.8209,-3.8209,-3.8209,-3.8209,-3.8209,-3.8209,-3.8209,-3.8209,-3.8175,-3.8071,-3.7827,-3.7774,-3.7413,-3.6801,-3.662,-3.6495,-3.6203,-3.6028,-3.598,-3.5805,-3.5739,-3.56,-3.5577,-3.5452,-3.5314,-3.5135,-3.5041,-3.4994,-3.497,-3.4947,-3.4899,-3.4923,-3.4923,-3.4923,-3.4899,-3.4899,-3.4899,-3.4899,-3.4899,-3.4899,-3.4899,-3.4899,-3.4899,-3.478,-3.4358,-3.4333,-3.4193,-3.3553,-3.3082,-3.2815,-3.2437,-3.1979,-3.1611,-3.1496,-3.1482,-3.1424,-3.1424,-3.1292,-3.1263,-3.1117,-3.0999,-3.0896,-3.0717,-3.0702,-3.0672,-3.0672,-3.0612,-3.0612,-3.0612,-3.0612,-3.0612,-3.0612,-3.0538,-3.0477,-3.0538,-3.0538,-3.0372,-3.019,-2.9808,-2.917,-2.8487,-2.7802,-2.7297,-2.7061,-2.6905,-2.6748,-2.6589,-2.6555,-3.9946,-3.9777,-3.9758,-3.9683,-3.9608,-3.9608,-3.9608,-3.9608,-3.9608,-3.9608,-3.969,-3.9447,-3.9251,-3.917,-3.9017,-3.88,-3.8634,-3.851,-3.8387,-3.829,-3.8207,-3.8209,-3.8209,-3.8209,-3.8209,-3.8209,-3.8209,-3.8209,-3.8209,-3.8209,-3.8209,-3.8209,-3.8209,-3.8209,-3.8209,-3.8192,-3.8141,-3.8106,-3.8055,-3.7933,-3.7577,-3.7208,-3.6958,-3.6761,-3.6597,-3.6388,-3.622,-3.6002,-3.5756,-3.5639,-3.5588,-3.5383,-3.5291,-3.5175,-3.5152,-3.5105,-3.4994,-3.497,-3.4947,-3.4906,-3.4923,-3.4899,-3.4899,-3.4899,-3.4899,-3.4899,-3.4899,-3.4899,-3.4899,-3.4875,-3.4732,-3.4643,-3.4691,-3.4643,-3.386,-3.3172,-3.2841,-3.2547,-3.2132,-3.1682,-3.1524,-3.1511,-3.1482,-3.1482,-3.1482,-3.1482,-3.1424,-3.1322,-3.1205,-3.0969,-3.0851,-3.0762,-3.0702,-3.0672,-3.0642,-3.0612,-3.0612,-3.0612,-3.0612,-3.0612,-3.0612,-3.0612,-3.0612,-3.0612,-3.0357,-3.0068,-2.9808,-2.9265,-2.8551,-2.7835,-2.7384,-2.7183,-2.7183,-2.7027,-2.6726,-4.116,-4.0572,-4.0553,-4.0228,-3.9702,-3.9646,-3.9608,-3.9608,-3.9664,-3.9608,-3.9708,-3.9602,-3.9527,-3.9533,-3.9256,-3.9115,-3.9149,-3.8906,-3.8611,-3.8449,-3.8416,-3.8315,-3.8209,-3.8209,-3.8209,-3.8209,-3.8209,-3.8209,-3.8209,-3.8209,-3.8209,-3.8209,-3.8209,-3.8209,-3.8209,-3.8209,-3.8209,-3.8209,-3.8209,-3.8106,-3.7984,-3.7596,-3.7227,-3.7017,-3.6838,-3.6799,-3.6678,-3.6371,-3.622,-3.6062,-3.5768,-3.5498,-3.536,-3.5291,-3.5268,-3.5198,-3.5088,-3.5041,-3.4994,-3.493,-3.4923,-3.4899,-3.4899,-3.4899,-3.4899,-3.4899,-3.4899,-3.4899,-3.4899,-3.4899,-3.4828,-3.4828,-3.4851,-3.4851,-3.4391,-3.3783,-3.3345,-3.3029,-3.2652,-3.2104,-3.1611,-3.1553,-3.1496,-3.1482,-3.1453,-3.1424,-3.138,-3.1322,-3.1234,-3.1087,-3.0969,-3.0881,-3.0791,-3.0702,-3.0642,-3.0612,-3.0612,-3.0612,-3.0612,-3.0612,-3.0612,-3.0612,-3.0612,-3.0612,-3.0507,-3.0282,-2.9993,-2.9808,-2.9219,-2.8505,-2.7802,-2.7471,-2.7537,-2.7417,-2.704]},{"header":{"parameterUnit":"m.s-1","parameterCategory":1,"la1":31.0,"la2":29.5877,"lo1":-88.7671,"lo2":-86.6584,"dy":0.0162,"dx":0.0185,"nx":115,"ny":88,"refTime":"2024-06-08T06:00:00:Z","depth":0,"parameterNumber":3,"parameterNumberName":"V-component_of_WINDS"},"data":[0.0,0.0,0.0,0.0,0.0,0.0,0.0,0.0,0.0,0.0,0.0,0.0,0.0,0.0,0.0,0.0,0.0,0.0,0.0,0.0,0.0,0.0,0.0,0.0,0.0,0.0,0.0,0.0,0.0,0.0,0.0,0.0,0.0,0.0,0.0,0.0,0.0,0.0,0.0,0.0,0.0,0.0,0.0,0.0,0.0,0.0,0.0,0.0,0.0,0.0,0.0,0.0,0.0,0.0,0.0,0.0,0.0,0.0,0.0,0.0,0.0,0.0,0.0,0.0,0.0,0.0,0.0,0.0,0.0,0.0,0.0,0.0,0.0,0.0,0.0,0.0,0.0,0.0,0.0,0.0,0.0,0.0,0.0,0.0,0.0,0.0,0.0,0.0,0.0,0.0,0.0,0.0,0.0,0.0,0.0,0.0,0.0,0.0,0.0,0.0,0.0,0.0,0.0,0.0,0.0,0.0,0.0,0.0,0.0,0.0,0.0,0.0,0.0,0.0,0.0,0.0,0.0,0.0,0.0,0.0,0.0,0.0,0.0,0.0,0.0,0.0,0.0,0.0,0.0,0.0,0.0,0.0,0.0,0.0,0.0,0.0,0.0,0.0,0.0,0.0,0.0,0.0,0.0,0.0,0.0,0.0,0.0,0.0,0.0,0.0,0.0,0.0,0.0,0.0,0.0,0.0,0.0,0.0,0.0,0.0,0.0,0.0,0.0,0.0,0.0,0.0,0.0,0.0,0.0,0.0,0.0,0.0,0.0,0.0,0.0,0.0,0.0,0.0,0.0,0.0,0.0,0.0,0.0,0.0,0.0,0.0,0.0,0.0,0.0,0.0,0.0,0.0,0.0,0.0,0.0,0.0,0.0,0.0,0.0,0.0,0.0,0.0,0.0,0.0,0.0,0.0,0.0,0.0,0.0,0.0,0.0,0.0,0.0,0.0,0.0,0.0,0.0,0.0,0.0,0.0,0.0,0.0,0.0,0.0,0.0,0.0,0.0,0.0,0.0,0.0,0.0,0.0,0.0,0.0,0.0,0.0,0.0,0.0,0.0,0.0,0.0,0.0,0.0,0.0,0.0,0.0,0.0,0.0,0.0,0.0,0.0,0.0,0.0,0.0,0.0,0.0,0.0,0.0,0.0,0.0,0.0,0.0,0.0,0.0,0.0,0.0,0.0,0.0,0.0,0.0,0.0,0.0,0.0,0.0,0.0,0.0,0.0,0.0,0.0,0.0,0.0,0.0,0.0,0.0,0.0,0.0,0.0,0.0,0.0,0.0,0.0,0.0,0.0,0.0,0.0,0.0,0.0,0.0,0.0,0.0,0.0,0.0,0.0,0.0,0.0,0.0,0.0,0.0,0.0,0.0,0.0,0.0,0.0,0.0,0.0,0.0,0.0,0.0,0.0,0.0,0.0,0.0,0.0,0.0,0.0,0.0,0.0,0.0,0.0,0.0,0.0,0.0,0.0,0.0,0.0,0.0,0.0,0.0,0.0,0.0,0.0,0.0,0.0,0.0,0.0,0.0,0.0,0.0,0.0,0.0,0.0,0.0,0.0,0.0,0.0,0.0,0.0,0.0,0.0,0.0,0.0,0.0,0.0,0.0,0.0,0.0,0.0,0.0,0.0,0.0,0.0,0.0,0.0,0.0,0.0,0.0,0.0,0.0,0.0,0.0,0.0,0.0,0.0,0.0,0.0,0.0,0.0,0.0,0.0,0.0,0.0,0.0,0.0,0.0,0.0,0.0,0.0,0.0,0.0,0.0,0.0,0.0,0.0,0.0,0.0,0.0,0.0,0.0,0.0,0.0,0.0,0.0,0.0,0.0,0.0,0.0,0.0,0.0,0.0,0.0,0.0,0.0,0.0,0.0,0.0,0.0,0.0,0.0,0.0,0.0,0.0,0.0,0.0,0.0,0.0,0.0,0.0,0.0,0.0,0.0,0.0,0.0,0.0,0.0,0.0,0.0,0.0,0.0,0.0,0.0,0.0,0.0,0.0,0.0,0.0,0.0,0.0,0.0,0.0,0.0,0.0,0.0,0.0,0.0,0.0,0.0,0.0,0.0,0.0,0.0,0.0,0.0,0.0,0.0,0.0,0.0,0.0,0.0,0.0,0.0,0.0,0.0,0.0,0.0,0.0,0.0,0.0,0.0,0.0,0.0,0.0,0.0,0.0,0.0,0.0,0.0,0.0,0.0,0.0,0.0,0.0,0.0,0.0,0.0,0.0,0.0,0.0,0.0,0.0,0.0,0.0,0.0,0.0,0.0,0.0,0.0,0.0,0.0,0.0,0.0,0.0,0.0,0.0,0.0,0.0,0.0,0.0,0.0,0.0,0.0,0.0,0.0,0.0,0.0,0.0,0.0,0.0,0.0,0.0,0.0,0.0,0.0,0.0,0.0,0.0,0.0,0.0,0.0,0.0,0.0,0.0,0.0,0.0,0.0,0.0,0.0,0.0,0.0,0.0,0.0,0.0,0.0,0.0,0.0,0.0,0.0,0.0,0.0,0.0,0.0,0.0,0.0,0.0,0.0,0.0,0.0,0.0,0.0,0.0,0.0,0.0,0.0,0.0,0.0,0.0,0.0,0.0,0.0,0.0,0.0,0.0,0.0,0.0,0.0,0.0,0.0,0.0,0.0,0.0,0.0,0.0,0.0,0.0,0.0,0.0,0.0,0.0,0.0,0.0,0.0,0.0,0.0,0.0,0.0,0.0,0.0,0.0,0.0,0.0,0.0,0.0,0.0,0.0,0.0,0.0,0.0,0.0,0.0,0.0,0.0,0.0,0.0,0.0,0.0,0.0,0.0,0.0,0.0,0.0,0.0,0.0,0.0,0.0,0.0,0.0,0.0,0.0,0.0,0.0,0.0,0.0,0.0,0.0,0.0,0.0,0.0,0.0,0.0,0.0,0.0,0.0,0.0,0.0,0.0,0.0,0.0,0.0,0.0,0.0,0.0,0.0,0.0,0.0,0.0,0.0,0.0,0.0,0.0,0.0,0.0,0.0,0.0,0.0,0.0,0.0,0.0,0.0,0.0,0.0,0.0,0.0,0.0,0.0,0.0,0.0,0.0,0.0,0.0,0.0,0.0,0.0,0.0,0.0,0.0,0.0,0.0,0.0,0.0,0.0,0.0,0.0,0.0,0.0,0.0,0.0,0.0,0.0,0.0,0.0,0.0,0.0,0.0,0.0,0.0,0.0,0.0,0.0,0.0,0.0,0.0,0.0,0.0,0.0,0.0,0.0,0.0,0.0,0.0,0.0,0.0,0.0,0.0,0.0,0.0,0.0,0.0,0.0,0.0,0.0,0.0,0.0,0.0,0.0,0.0,0.0,0.0,0.0,0.0,0.0,0.0,0.0,0.0,0.0,0.0,0.0,0.0,0.0,0.0,0.0,0.0,0.0,0.0,0.0,0.0,0.0,0.0,0.0,0.0,0.0,0.0,0.0,0.0,0.0,0.0,0.0,0.0,0.0,0.0,0.0,0.0,0.0,0.0,0.0,0.0,0.0,0.0,0.0,0.0,0.0,0.0,0.0,0.0,0.0,0.0,0.0,0.0,0.0,0.0,0.0,0.0,0.0,0.0,0.0,0.0,0.0,0.0,0.0,0.0,0.0,0.0,0.0,0.0,0.0,0.0,0.0,0.0,0.0,0.0,0.0,0.0,0.0,0.0,0.0,0.0,0.0,0.0,0.0,0.0,0.0,0.0,0.0,0.0,0.0,0.0,0.0,0.0,0.0,0.0,0.0,0.0,0.0,0.0,0.0,0.0,0.0,0.0,0.0,0.0,0.0,0.0,0.0,0.0,0.0,0.0,0.0,0.0,0.0,0.0,0.0,0.0,0.0,0.0,0.0,0.0,0.0,0.0,0.0,0.0,0.0,0.0,0.0,0.0,0.0,0.0,0.0,0.0,0.0,0.0,0.0,0.0,0.0,0.0,0.0,0.0,0.0,0.0,0.0,0.0,0.0,0.0,0.0,0.0,0.0,0.0,0.0,0.0,0.0,0.0,0.0,0.0,0.0,0.0,0.0,0.0,0.0,0.0,0.0,0.0,0.0,0.0,0.0,0.0,0.0,0.0,0.0,0.0,0.0,0.0,0.0,0.0,0.0,0.0,0.0,0.0,0.0,0.0,0.0,0.0,0.0,0.0,0.0,0.0,0.0,0.0,0.0,0.0,0.0,0.0,0.0,0.0,0.0,0.0,0.0,0.0,0.0,0.0,0.0,0.0,0.0,0.0,0.0,0.0,0.0,0.0,0.0,0.0,-1.1952,0.0,0.0,0.0,0.0,0.0,0.0,0.0,0.0,0.0,0.0,0.0,0.0,0.0,0.0,0.0,0.0,0.0,0.0,0.0,0.0,0.0,0.0,0.0,0.0,0.0,0.0,0.0,0.0,0.0,0.0,0.0,0.0,0.0,0.0,0.0,0.0,0.0,0.0,0.0,0.0,0.0,0.0,0.0,0.0,0.0,0.0,0.0,0.0,0.0,0.0,0.0,0.0,0.0,0.0,0.0,0.0,0.0,0.0,0.0,0.0,0.0,0.0,0.0,0.0,0.0,0.0,0.0,0.0,0.0,0.0,0.0,0.0,0.0,0.0,0.0,0.0,0.0,0.0,0.0,0.0,0.0,0.0,0.0,0.0,0.0,0.0,0.0,0.0,0.0,0.0,0.0,0.0,0.0,0.0,0.0,0.0,0.0,0.0,0.0,0.0,0.0,0.0,0.0,0.0,0.0,0.0,0.0,0.0,0.0,0.0,-1.2516,-1.2516,-1.2691,-1.2622,-1.2294,0.0,0.0,0.0,0.0,0.0,0.0,0.0,0.0,0.0,0.0,0.0,0.0,0.0,0.0,0.0,0.0,0.0,0.0,0.0,0.0,0.0,0.0,0.0,0.0,0.0,0.0,0.0,0.0,0.0,0.0,0.0,0.0,0.0,0.0,0.0,0.0,0.0,0.0,0.0,0.0,0.0,0.0,0.0,0.0,0.0,0.0,0.0,0.0,0.0,0.0,0.0,0.0,0.0,0.0,0.0,0.0,0.0,0.0,0.0,0.0,0.0,0.0,0.0,0.0,0.0,0.0,0.0,0.0,0.0,0.0,0.0,0.0,0.0,0.0,0.0,0.0,0.0,0.0,0.0,0.0,0.0,0.0,0.0,0.0,0.0,0.0,0.0,0.0,0.0,0.0,0.0,0.0,0.0,0.0,0.0,0.0,0.0,0.0,0.0,0.0,0.0,0.0,0.0,0.0,0.0,0.0,0.0,0.0,0.0,0.0,0.0,0.0,-1.3362,-1.3393,-1.3155,0.0,0.0,0.0,0.0,0.0,0.0,0.0,0.0,0.0,0.0,0.0,0.0,0.0,0.0,0.0,0.0,0.0,0.0,0.0,0.0,0.0,0.0,0.0,0.0,0.0,0.0,0.0,0.0,0.0,0.0,0.0,0.0,0.0,0.0,0.0,0.0,0.0,0.0,0.0,0.0,0.0,0.0,0.0,0.0,0.0,0.0,0.0,0.0,0.0,0.0,0.0,0.0,0.0,0.0,0.0,0.0,0.0,0.0,0.0,0.0,0.0,0.0,0.0,0.0,0.0,0.0,0.0,0.0,0.0,0.0,0.0,0.0,0.0,0.0,0.0,0.0,0.0,0.0,0.0,0.0,0.0,0.0,0.0,0.0,0.0,0.0,0.0,0.0,0.0,0.0,0.0,0.0,0.0,0.0,0.0,0.0,0.0,0.0,0.0,0.0,0.0,0.0,0.0,0.0,0.0,0.0,0.0,0.0,0.0,0.0,-1.318,-1.4544,-1.4884,0.0,-1.5041,0.0,0.0,0.0,0.0,0.0,0.0,0.0,0.0,0.0,0.0,0.0,0.0,0.0,0.0,0.0,0.0,0.0,0.0,0.0,0.0,0.0,0.0,0.0,0.0,0.0,0.0,0.0,0.0,0.0,0.0,0.0,0.0,0.0,0.0,0.0,0.0,0.0,0.0,0.0,0.0,0.0,0.0,0.0,0.0,0.0,0.0,0.0,0.0,0.0,0.0,0.0,0.0,0.0,0.0,0.0,0.0,0.0,0.0,0.0,0.0,0.0,0.0,0.0,0.0,0.0,0.0,0.0,0.0,0.0,0.0,0.0,0.0,0.0,0.0,0.0,0.0,0.0,0.0,0.0,0.0,0.0,0.0,0.0,0.0,0.0,0.0,0.0,0.0,0.0,0.0,0.0,0.0,0.0,0.0,0.0,0.0,0.0,0.0,0.0,0.0,0.0,0.0,0.0,0.0,0.0,0.0,0.0,0.0,0.0,0.0,-1.4755,-1.539,-1.5513,-1.548,0.0,0.0,0.0,0.0,0.0,0.0,0.0,0.0,0.0,0.0,0.0,0.0,0.0,0.0,0.0,0.0,0.0,0.0,0.0,0.0,0.0,0.0,0.0,0.0,0.0,0.0,0.0,0.0,0.0,0.0,0.0,0.0,0.0,0.0,0.0,0.0,0.0,0.0,0.0,0.0,0.0,0.0,0.0,0.0,0.0,0.0,0.0,0.0,0.0,0.0,0.0,0.0,0.0,0.0,0.0,0.0,0.0,0.0,0.0,0.0,0.0,0.0,0.0,0.0,0.0,0.0,0.0,0.0,0.0,0.0,0.0,0.0,0.0,0.0,0.0,0.0,0.0,0.0,0.0,0.0,0.0,0.0,0.0,0.0,0.0,0.0,0.0,0.0,0.0,0.0,0.0,0.0,0.0,0.0,0.0,0.0,0.0,0.0,0.0,0.0,0.0,0.0,0.0,0.0,0.0,0.0,0.0,0.0,0.0,0.0,-1.5446,-1.5994,-1.6379,-1.6216,-1.5858,-1.5368,0.0,0.0,0.0,0.0,0.0,0.0,0.0,0.0,0.0,0.0,0.0,0.0,0.0,0.0,0.0,0.0,0.0,0.0,0.0,0.0,0.0,0.0,0.0,0.0,0.0,0.0,0.0,0.0,0.0,0.0,0.0,0.0,0.0,0.0,0.0,0.0,0.0,0.0,0.0,0.0,0.0,0.0,0.0,0.0,0.0,0.0,0.0,0.0,0.0,0.0,0.0,0.0,0.0,0.0,0.0,0.0,0.0,0.0,0.0,0.0,0.0,0.0,0.0,0.0,0.0,0.0,0.0,0.0,0.0,0.0,0.0,0.0,0.0,0.0,0.0,0.0,0.0,0.0,0.0,0.0,0.0,0.0,0.0,0.0,0.0,0.0,0.0,0.0,0.0,0.0,0.0,0.0,0.0,0.0,0.0,0.0,0.0,0.0,0.0,0.0,0.0,0.0,0.0,0.0,0.0,0.0,0.0,0.0,0.0,-1.6473,-1.649,-1.7837,-1.7214,-1.6499,0.0,0.0,0.0,0.0,0.0,0.0,0.0,0.0,0.0,0.0,0.0,0.0,0.0,0.0,0.0,0.0,0.0,0.0,0.0,0.0,0.0,0.0,0.0,0.0,0.0,0.0,0.0,0.0,0.0,0.0,0.0,0.0,0.0,0.0,0.0,0.0,0.0,0.0,0.0,0.0,0.0,0.0,0.0,0.0,0.0,0.0,0.0,0.0,0.0,0.0,0.0,0.0,0.0,0.0,0.0,0.0,0.0,0.0,0.0,0.0,0.0,0.0,0.0,0.0,0.0,0.0,0.0,0.0,0.0,0.0,0.0,0.0,0.0,0.0,0.0,0.0,0.0,0.0,0.0,0.0,0.0,0.0,0.0,0.0,0.0,0.0,0.0,0.0,0.0,0.0,0.0,0.0,0.0,0.0,0.0,0.0,0.0,0.0,0.0,0.0,0.0,0.0,0.0,0.0,0.0,0.0,0.0,0.0,0.0,-1.5086,-1.5557,-1.6987,-1.9273,-1.7124,-1.6025,0.0,0.0,0.0,0.0,0.0,0.0,0.0,0.0,0.0,0.0,0.0,0.0,0.0,0.0,0.0,0.0,0.0,0.0,0.0,0.0,0.0,0.0,0.0,0.0,0.0,0.0,0.0,0.0,0.0,0.0,0.0,0.0,0.0,0.0,0.0,0.0,0.0,0.0,0.0,0.0,0.0,0.0,0.0,0.0,0.0,0.0,0.0,0.0,0.0,0.0,0.0,0.0,0.0,0.0,0.0,0.0,0.0,0.0,0.0,0.0,0.0,0.0,0.0,0.0,0.0,0.0,0.0,0.0,0.0,0.0,0.0,0.0,0.0,0.0,0.0,0.0,0.0,0.0,0.0,0.0,0.0,0.0,0.0,0.0,0.0,0.0,0.0,0.0,0.0,0.0,0.0,0.0,0.0,0.0,0.0,0.0,0.0,0.0,0.0,0.0,0.0,0.0,0.0,0.0,0.0,0.0,0.0,0.0,0.0,-1.4819,0.0,-1.7449,0.0,-1.6918,-1.5652,0.0,0.0,0.0,0.0,0.0,0.0,0.0,0.0,0.0,0.0,0.0,0.0,0.0,0.0,0.0,0.0,0.0,0.0,0.0,0.0,0.0,0.0,0.0,0.0,0.0,0.0,0.0,0.0,0.0,0.0,0.0,0.0,0.0,0.0,0.0,0.0,0.0,0.0,0.0,0.0,0.0,0.0,0.0,0.0,0.0,0.0,0.0,0.0,0.0,0.0,0.0,0.0,0.0,0.0,0.0,0.0,0.0,0.0,0.0,0.0,0.0,0.0,0.0,0.0,0.0,0.0,0.0,0.0,0.0,0.0,0.0,0.0,0.0,0.0,0.0,0.0,0.0,0.0,0.0,0.0,0.0,0.0,0.0,0.0,0.0,0.0,0.0,0.0,0.0,0.0,0.0,0.0,0.0,0.0,0.0,0.0,0.0,0.0,0.0,0.0,0.0,0.0,0.0,0.0,0.0,0.0,0.0,0.0,-1.5257,-1.7291,-1.7723,-1.7792,-1.7548,-1.6687,-1.5456,0.0,0.0,0.0,0.0,0.0,0.0,0.0,0.0,0.0,0.0,0.0,0.0,0.0,0.0,0.0,0.0,0.0,0.0,0.0,0.0,0.0,0.0,0.0,0.0,0.0,0.0,0.0,0.0,0.0,0.0,0.0,0.0,0.0,0.0,0.0,0.0,0.0,0.0,0.0,0.0,0.0,0.0,0.0,0.0,0.0,0.0,0.0,0.0,0.0,0.0,0.0,0.0,0.0,0.0,0.0,0.0,0.0,0.0,0.0,0.0,0.0,0.0,0.0,0.0,0.0,0.0,0.0,0.0,0.0,0.0,0.0,0.0,0.0,0.0,0.0,0.0,0.0,0.0,0.0,0.0,0.0,0.0,0.0,0.0,0.0,0.0,0.0,0.0,0.0,0.0,0.0,0.0,0.0,0.0,0.0,0.0,0.0,0.0,0.0,0.0,0.0,0.0,0.0,0.0,0.0,0.0,0.0,0.0,0.0,-1.5926,-1.6533,-1.7265,-1.8149,-1.6306,-1.5608,0.0,0.0,0.0,0.0,0.0,0.0,0.0,0.0,0.0,0.0,0.0,0.0,0.0,0.0,0.0,0.0,0.0,0.0,0.0,0.0,0.0,0.0,0.0,0.0,0.0,0.0,0.0,0.0,0.0,0.0,0.0,0.0,0.0,0.0,0.0,0.0,0.0,0.0,0.0,0.0,0.0,0.0,0.0,0.0,0.0,0.0,0.0,0.0,0.0,0.0,0.0,0.0,0.0,0.0,0.0,0.0,0.0,0.0,0.0,0.0,0.0,0.0,0.0,0.0,0.0,0.0,0.0,0.0,0.0,0.0,0.0,0.0,0.0,0.0,0.0,0.0,0.0,0.0,0.0,0.0,0.0,0.0,0.0,0.0,0.0,0.0,0.0,0.0,0.0,0.0,0.0,0.0,0.0,0.0,0.0,0.0,0.0,0.0,0.0,0.0,0.0,0.0,0.0,0.0,0.0,0.0,0.0,0.0,0.0,-1.6841,-1.704,-1.7697,-1.8827,-1.6715,-1.5943,-1.6692,0.0,0.0,0.0,0.0,0.0,0.0,0.0,0.0,0.0,0.0,0.0,0.0,0.0,0.0,0.0,0.0,0.0,0.0,0.0,0.0,0.0,0.0,0.0,0.0,0.0,0.0,0.0,0.0,0.0,0.0,0.0,0.0,0.0,0.0,0.0,0.0,0.0,0.0,0.0,0.0,0.0,0.0,0.0,0.0,0.0,0.0,0.0,0.0,0.0,0.0,0.0,0.0,0.0,0.0,0.0,0.0,0.0,0.0,0.0,0.0,0.0,0.0,0.0,0.0,0.0,0.0,0.0,0.0,0.0,0.0,0.0,0.0,0.0,0.0,0.0,0.0,0.0,0.0,0.0,0.0,0.0,0.0,0.0,0.0,0.0,0.0,0.0,0.0,0.0,0.0,0.0,0.0,0.0,0.0,0.0,0.0,0.0,0.0,0.0,0.0,0.0,0.0,0.0,0.0,0.0,0.0,0.0,0.0,-1.9725,-1.9167,-1.904,-1.9333,-1.7894,-1.6616,0.0,0.0,0.0,0.0,0.0,0.0,0.0,0.0,0.0,0.0,0.0,0.0,0.0,0.0,0.0,0.0,0.0,0.0,0.0,0.0,0.0,0.0,0.0,0.0,0.0,0.0,0.0,0.0,0.0,0.0,0.0,0.0,0.0,0.0,0.0,0.0,0.0,0.0,0.0,0.0,0.0,0.0,0.0,0.0,0.0,0.0,0.0,0.0,0.0,0.0,0.0,0.0,0.0,0.0,0.0,0.0,0.0,0.0,0.0,0.0,0.0,0.0,0.0,0.0,0.0,0.0,0.0,0.0,0.0,0.0,0.0,0.0,0.0,0.0,0.0,0.0,0.0,0.0,0.0,0.0,0.0,0.0,0.0,0.0,0.0,0.0,0.0,0.0,0.0,0.0,0.0,0.0,0.0,0.0,0.0,0.0,0.0,0.0,0.0,0.0,0.0,0.0,0.0,0.0,0.0,0.0,0.0,0.0,0.0,-2.2135,-2.2403,-2.2088,-2.1194,-1.9702,-1.8713,0.0,0.0,0.0,0.0,0.0,0.0,0.0,0.0,0.0,0.0,0.0,0.0,0.0,0.0,0.0,0.0,0.0,0.0,0.0,0.0,0.0,0.0,0.0,0.0,0.0,0.0,0.0,0.0,0.0,0.0,0.0,0.0,0.0,0.0,0.0,0.0,0.0,0.0,0.0,0.0,0.0,0.0,0.0,0.0,0.0,0.0,0.0,0.0,0.0,0.0,0.0,0.0,0.0,0.0,0.0,0.0,0.0,0.0,0.0,0.0,0.0,0.0,0.0,0.0,0.0,0.0,0.0,0.0,0.0,0.0,0.0,0.0,0.0,0.0,0.0,0.0,0.0,0.0,0.0,0.0,0.0,0.0,0.0,0.0,0.0,0.0,0.0,0.0,0.0,0.0,0.0,0.0,0.0,0.0,0.0,0.0,0.0,0.0,0.0,0.0,0.0,0.0,0.0,0.0,0.0,0.0,0.0,0.0,-2.153,-2.3747,-2.4584,-2.4583,-2.3645,-2.2008,-2.0499,0.0,0.0,0.0,0.0,0.0,0.0,0.0,0.0,0.0,0.0,0.0,0.0,0.0,0.0,0.0,0.0,0.0,0.0,0.0,0.0,0.0,0.0,0.0,0.0,0.0,0.0,0.0,0.0,0.0,0.0,0.0,0.0,0.0,0.0,0.0,0.0,0.0,0.0,0.0,0.0,0.0,0.0,0.0,0.0,0.0,0.0,0.0,0.0,0.0,0.0,0.0,0.0,0.0,0.0,0.0,0.0,0.0,0.0,0.0,0.0,0.0,0.0,0.0,0.0,0.0,0.0,0.0,0.0,0.0,0.0,0.0,0.0,0.0,0.0,0.0,0.0,0.0,0.0,0.0,0.0,0.0,0.0,0.0,0.0,0.0,0.0,0.0,0.0,0.0,0.0,0.0,0.0,0.0,0.0,0.0,0.0,0.0,0.0,0.0,0.0,0.0,0.0,0.0,0.0,0.0,0.0,0.0,0.0,-2.2859,-2.4687,-2.6041,-2.6556,-2.6099,-2.4341,-2.202,0.0,0.0,0.0,0.0,0.0,0.0,0.0,0.0,0.0,0.0,0.0,0.0,0.0,0.0,0.0,0.0,0.0,0.0,0.0,0.0,0.0,0.0,0.0,0.0,0.0,0.0,0.0,0.0,0.0,0.0,0.0,0.0,0.0,0.0,0.0,0.0,0.0,0.0,0.0,0.0,0.0,0.0,0.0,0.0,0.0,0.0,0.0,0.0,0.0,0.0,0.0,0.0,0.0,0.0,0.0,0.0,0.0,0.0,0.0,0.0,0.0,0.0,0.0,0.0,0.0,0.0,0.0,0.0,0.0,0.0,0.0,0.0,0.0,0.0,0.0,0.0,0.0,0.0,0.0,0.0,0.0,0.0,0.0,0.0,0.0,0.0,0.0,0.0,0.0,0.0,0.0,0.0,0.0,0.0,0.0,0.0,0.0,0.0,0.0,0.0,0.0,0.0,0.0,0.0,0.0,0.0,0.0,0.0,-2.3773,-2.5597,-2.6924,-2.7454,-2.7013,-2.4904,-2.2767,0.0,0.0,0.0,0.0,0.0,0.0,0.0,0.0,0.0,0.0,0.0,0.0,0.0,0.0,0.0,0.0,0.0,0.0,0.0,0.0,0.0,0.0,0.0,0.0,0.0,0.0,0.0,0.0,0.0,0.0,0.0,0.0,0.0,0.0,0.0,0.0,0.0,0.0,0.0,0.0,0.0,0.0,0.0,0.0,0.0,0.0,0.0,0.0,-2.1233,0.0,0.0,0.0,0.0,0.0,0.0,0.0,0.0,0.0,0.0,0.0,0.0,0.0,0.0,0.0,0.0,0.0,0.0,0.0,0.0,0.0,0.0,0.0,0.0,0.0,0.0,0.0,0.0,0.0,0.0,0.0,0.0,0.0,0.0,0.0,0.0,0.0,0.0,0.0,0.0,0.0,0.0,0.0,0.0,0.0,0.0,0.0,0.0,0.0,0.0,0.0,0.0,0.0,0.0,0.0,0.0,0.0,0.0,0.0,-2.4291,-2.5844,-2.721,-2.7614,-2.6931,-2.535,-2.3314,0.0,0.0,0.0,0.0,0.0,0.0,0.0,0.0,0.0,0.0,0.0,0.0,0.0,0.0,0.0,0.0,0.0,0.0,0.0,0.0,0.0,0.0,0.0,0.0,0.0,0.0,0.0,0.0,0.0,0.0,0.0,0.0,0.0,0.0,0.0,0.0,0.0,0.0,0.0,0.0,0.0,0.0,0.0,0.0,0.0,0.0,0.0,0.0,0.0,0.0,0.0,0.0,0.0,0.0,0.0,0.0,0.0,0.0,0.0,0.0,0.0,0.0,0.0,0.0,0.0,0.0,0.0,0.0,0.0,0.0,0.0,0.0,0.0,0.0,0.0,0.0,0.0,0.0,0.0,0.0,0.0,0.0,0.0,0.0,0.0,0.0,0.0,0.0,0.0,0.0,0.0,0.0,0.0,0.0,0.0,0.0,0.0,0.0,0.0,0.0,0.0,0.0,0.0,0.0,0.0,0.0,0.0,-2.2291,-2.4426,-2.5993,-2.7055,-2.7272,-2.6625,-2.5564,-2.3577,-2.0637,0.0,0.0,0.0,0.0,0.0,0.0,0.0,0.0,0.0,0.0,0.0,0.0,0.0,0.0,0.0,0.0,0.0,0.0,0.0,0.0,0.0,0.0,0.0,0.0,0.0,0.0,0.0,0.0,0.0,0.0,0.0,0.0,0.0,0.0,0.0,0.0,0.0,0.0,-1.993,-2.0824,0.0,0.0,0.0,0.0,0.0,0.0,0.0,0.0,-2.2903,0.0,0.0,0.0,0.0,0.0,0.0,0.0,0.0,0.0,0.0,0.0,0.0,0.0,0.0,0.0,0.0,0.0,0.0,0.0,0.0,0.0,0.0,0.0,0.0,0.0,0.0,0.0,0.0,0.0,0.0,0.0,0.0,0.0,0.0,0.0,0.0,0.0,0.0,0.0,0.0,0.0,0.0,0.0,0.0,0.0,0.0,0.0,0.0,0.0,0.0,0.0,0.0,0.0,0.0,0.0,0.0,-2.1311,-2.2263,-2.3939,-2.6418,-2.6289,-2.6366,-2.6553,-2.4964,-2.3066,-2.0913,0.0,0.0,0.0,0.0,0.0,0.0,0.0,0.0,0.0,0.0,0.0,0.0,0.0,0.0,0.0,0.0,0.0,0.0,0.0,0.0,0.0,0.0,0.0,0.0,0.0,0.0,0.0,0.0,0.0,0.0,0.0,0.0,0.0,0.0,0.0,0.0,0.0,0.0,0.0,-2.2754,-2.3517,0.0,0.0,0.0,0.0,0.0,0.0,0.0,0.0,-2.3259,0.0,0.0,0.0,0.0,0.0,0.0,0.0,0.0,0.0,0.0,0.0,0.0,0.0,0.0,0.0,0.0,0.0,0.0,0.0,0.0,0.0,0.0,0.0,0.0,0.0,0.0,0.0,0.0,0.0,0.0,0.0,0.0,0.0,0.0,0.0,0.0,0.0,0.0,0.0,0.0,0.0,0.0,0.0,0.0,0.0,0.0,0.0,0.0,0.0,0.0,0.0,0.0,0.0,0.0,0.0,-2.101,-2.249,-2.4074,-2.5813,-2.5875,-2.5885,-2.5834,-2.4115,-2.2449,0.0,0.0,0.0,0.0,0.0,0.0,0.0,0.0,0.0,0.0,0.0,0.0,0.0,0.0,0.0,0.0,0.0,0.0,0.0,0.0,0.0,0.0,0.0,0.0,0.0,0.0,0.0,0.0,0.0,0.0,0.0,0.0,0.0,0.0,0.0,0.0,0.0,0.0,0.0,0.0,-2.3178,-2.3866,-2.4129,0.0,0.0,0.0,0.0,0.0,0.0,-2.4742,-2.4988,0.0,0.0,0.0,0.0,0.0,0.0,0.0,0.0,0.0,0.0,0.0,0.0,0.0,0.0,0.0,0.0,0.0,0.0,0.0,0.0,0.0,0.0,0.0,0.0,0.0,0.0,0.0,0.0,0.0,0.0,0.0,0.0,0.0,0.0,0.0,0.0,0.0,0.0,0.0,0.0,0.0,0.0,0.0,0.0,0.0,0.0,0.0,0.0,0.0,0.0,0.0,0.0,0.0,0.0,0.0,-2.0374,-2.2428,-2.4033,-2.5181,-2.5471,-2.5482,-2.5168,-2.3618,-2.2209,0.0,0.0,0.0,0.0,0.0,0.0,0.0,0.0,0.0,0.0,0.0,0.0,0.0,0.0,0.0,0.0,0.0,0.0,0.0,0.0,0.0,0.0,0.0,0.0,0.0,0.0,0.0,0.0,0.0,0.0,0.0,0.0,0.0,0.0,0.0,0.0,0.0,0.0,0.0,0.0,0.0,-2.4349,-2.4779,-2.4927,0.0,0.0,0.0,0.0,-2.5589,-2.6765,0.0,0.0,0.0,0.0,0.0,0.0,0.0,0.0,0.0,0.0,0.0,0.0,0.0,0.0,0.0,0.0,0.0,0.0,0.0,0.0,0.0,0.0,0.0,0.0,0.0,0.0,0.0,0.0,0.0,0.0,0.0,0.0,0.0,0.0,0.0,0.0,0.0,0.0,0.0,0.0,0.0,0.0,0.0,0.0,0.0,0.0,0.0,0.0,0.0,0.0,0.0,0.0,0.0,0.0,0.0,0.0,-2.0312,-2.1487,-2.304,-2.5044,-2.4848,-2.4828,-2.5158,-2.4178,-2.2909,0.0,0.0,0.0,0.0,0.0,0.0,0.0,0.0,0.0,0.0,0.0,0.0,0.0,0.0,0.0,0.0,0.0,0.0,0.0,0.0,0.0,0.0,0.0,0.0,0.0,0.0,0.0,0.0,0.0,0.0,0.0,0.0,0.0,0.0,0.0,0.0,0.0,0.0,0.0,0.0,0.0,-2.6304,-2.4998,-2.5762,-2.6662,0.0,0.0,-2.7276,-2.8933,-3.0347,0.0,0.0,0.0,0.0,0.0,0.0,0.0,0.0,0.0,0.0,0.0,0.0,0.0,0.0,0.0,0.0,0.0,0.0,0.0,0.0,0.0,0.0,0.0,0.0,0.0,0.0,0.0,0.0,0.0,0.0,0.0,0.0,0.0,0.0,0.0,0.0,0.0,0.0,0.0,0.0,0.0,0.0,0.0,0.0,0.0,0.0,0.0,0.0,0.0,0.0,0.0,0.0,0.0,0.0,0.0,-1.868,-2.0379,-2.2273,-2.3733,-2.4767,-2.46,-2.4476,-2.4467,-2.3232,-2.1897,0.0,0.0,0.0,0.0,0.0,0.0,0.0,0.0,0.0,0.0,0.0,0.0,0.0,0.0,0.0,0.0,0.0,0.0,0.0,0.0,0.0,0.0,0.0,0.0,0.0,0.0,0.0,0.0,0.0,0.0,0.0,0.0,0.0,0.0,0.0,0.0,0.0,0.0,0.0,0.0,0.0,0.0,-2.7965,-2.881,0.0,0.0,0.0,-2.9716,-3.118,0.0,0.0,0.0,0.0,0.0,0.0,0.0,0.0,0.0,0.0,0.0,0.0,0.0,0.0,0.0,0.0,0.0,0.0,0.0,0.0,0.0,0.0,0.0,0.0,0.0,0.0,0.0,0.0,0.0,0.0,0.0,0.0,0.0,0.0,0.0,0.0,0.0,0.0,0.0,0.0,0.0,0.0,0.0,0.0,0.0,0.0,0.0,0.0,0.0,0.0,0.0,0.0,0.0,0.0,0.0,0.0,0.0,-2.0648,-2.3074,-2.4384,-2.4509,-2.47,-2.4524,-2.3909,-2.2731,0.0,0.0,0.0,0.0,0.0,0.0,0.0,0.0,0.0,0.0,0.0,0.0,0.0,0.0,0.0,0.0,0.0,0.0,0.0,0.0,0.0,0.0,0.0,0.0,0.0,0.0,0.0,-1.4267,0.0,0.0,0.0,0.0,0.0,0.0,0.0,0.0,0.0,0.0,0.0,0.0,0.0,0.0,-2.9505,-3.0097,-3.1254,-3.2019,0.0,0.0,-3.2286,-3.3122,-3.3574,-3.3386,0.0,0.0,0.0,0.0,0.0,0.0,0.0,0.0,0.0,0.0,0.0,0.0,0.0,0.0,0.0,0.0,0.0,0.0,0.0,0.0,0.0,0.0,0.0,0.0,0.0,0.0,0.0,0.0,0.0,0.0,0.0,0.0,0.0,0.0,0.0,0.0,0.0,0.0,0.0,0.0,0.0,0.0,0.0,0.0,0.0,0.0,0.0,0.0,0.0,0.0,0.0,0.0,0.0,0.0,0.0,-2.1247,-2.3389,-2.4516,-2.4541,-2.5306,-2.5123,-2.3961,-2.362,-2.2732,0.0,0.0,0.0,0.0,0.0,0.0,0.0,0.0,0.0,0.0,0.0,0.0,0.0,0.0,0.0,0.0,0.0,0.0,0.0,0.0,0.0,0.0,0.0,0.0,0.0,0.0,0.0,0.0,0.0,0.0,0.0,0.0,0.0,0.0,0.0,0.0,0.0,0.0,0.0,0.0,0.0,-3.0561,-2.9762,-3.1617,-3.3116,0.0,0.0,-3.4821,-3.5018,-3.6954,-3.7066,-3.3038,0.0,0.0,0.0,0.0,0.0,0.0,0.0,0.0,0.0,0.0,0.0,0.0,0.0,0.0,0.0,0.0,0.0,0.0,0.0,0.0,0.0,0.0,0.0,0.0,0.0,0.0,0.0,0.0,0.0,0.0,0.0,0.0,0.0,0.0,0.0,0.0,0.0,0.0,0.0,0.0,0.0,0.0,0.0,0.0,0.0,0.0,0.0,0.0,0.0,0.0,0.0,0.0,0.0,-2.0347,-2.1317,-2.4343,-2.5457,-2.4616,-2.6049,-2.6013,-2.4313,-2.4465,-2.3536,0.0,0.0,0.0,0.0,0.0,0.0,0.0,0.0,0.0,0.0,0.0,0.0,0.0,0.0,0.0,0.0,0.0,0.0,0.0,0.0,0.0,0.0,0.0,0.0,0.0,0.0,0.0,0.0,-1.7787,-1.8257,-1.8315,0.0,0.0,0.0,0.0,0.0,0.0,0.0,0.0,0.0,0.0,-3.274,-3.3111,-3.4502,0.0,0.0,-3.5637,-3.6105,-3.7316,-3.6989,-3.6188,-3.4857,-3.3593,0.0,0.0,0.0,0.0,0.0,0.0,0.0,0.0,0.0,0.0,0.0,0.0,0.0,0.0,0.0,0.0,0.0,0.0,0.0,0.0,0.0,0.0,0.0,0.0,0.0,0.0,0.0,0.0,0.0,0.0,0.0,0.0,0.0,0.0,0.0,0.0,0.0,0.0,0.0,0.0,0.0,0.0,0.0,0.0,0.0,0.0,0.0,0.0,0.0,0.0,0.0,0.0,-2.1099,-2.1966,-2.5153,-2.6352,-2.5295,-2.6946,-2.6829,-2.4794,-2.5149,-2.4225,0.0,0.0,0.0,0.0,0.0,0.0,0.0,0.0,0.0,0.0,0.0,0.0,0.0,0.0,0.0,0.0,0.0,0.0,0.0,0.0,0.0,0.0,0.0,0.0,0.0,0.0,0.0,0.0,-1.8832,-1.9212,-1.9292,0.0,0.0,0.0,0.0,0.0,0.0,0.0,0.0,0.0,0.0,-3.4413,-3.5261,-3.6314,-3.694,-3.6836,-3.6704,-3.7046,-3.8171,-3.7031,-3.5977,-3.585,0.0,0.0,0.0,0.0,0.0,0.0,0.0,0.0,0.0,0.0,0.0,0.0,0.0,0.0,0.0,0.0,0.0,0.0,0.0,0.0,0.0,0.0,0.0,0.0,0.0,0.0,0.0,0.0,0.0,0.0,0.0,0.0,0.0,0.0,0.0,0.0,0.0,0.0,0.0,0.0,0.0,0.0,0.0,0.0,0.0,0.0,0.0,0.0,0.0,0.0,0.0,0.0,0.0,-2.1354,-2.3423,-2.5745,-2.6922,-2.7035,-2.7971,-2.7444,-2.5345,-2.5581,-2.485,-2.2818,0.0,0.0,0.0,0.0,0.0,0.0,0.0,0.0,0.0,0.0,0.0,0.0,0.0,0.0,0.0,0.0,0.0,0.0,0.0,0.0,0.0,0.0,0.0,0.0,0.0,0.0,-1.8832,-1.9433,-1.9682,0.0,0.0,0.0,0.0,0.0,0.0,0.0,0.0,0.0,0.0,-3.3338,-3.5213,-3.5421,-3.6328,-3.6875,-3.647,-3.7193,-3.7653,-3.7161,-3.7456,-3.7231,0.0,0.0,0.0,0.0,0.0,0.0,0.0,0.0,0.0,0.0,0.0,0.0,0.0,0.0,0.0,0.0,0.0,0.0,0.0,0.0,0.0,0.0,0.0,0.0,0.0,0.0,0.0,-1.6829,-1.6097,0.0,0.0,0.0,0.0,0.0,0.0,0.0,0.0,0.0,0.0,0.0,-2.0691,-2.1274,0.0,0.0,0.0,0.0,0.0,0.0,0.0,0.0,0.0,0.0,0.0,0.0,-2.2067,-2.4046,-2.6454,-2.7495,-2.7157,-2.87,-2.8733,-2.6979,-2.7177,-2.598,-2.3231,0.0,0.0,0.0,0.0,0.0,0.0,0.0,0.0,0.0,0.0,0.0,0.0,0.0,0.0,0.0,0.0,0.0,0.0,0.0,0.0,0.0,0.0,0.0,0.0,0.0,-1.8479,0.0,0.0,0.0,0.0,0.0,0.0,0.0,0.0,0.0,0.0,0.0,-3.0492,-3.2447,-3.4261,-3.5575,-3.5991,-3.6593,-3.6954,0.0,0.0,0.0,0.0,0.0,0.0,0.0,0.0,0.0,0.0,0.0,0.0,0.0,0.0,-3.5937,-3.2868,-3.1738,-3.1453,-3.1981,0.0,0.0,0.0,0.0,0.0,0.0,0.0,0.0,0.0,0.0,0.0,0.0,0.0,0.0,-1.8682,0.0,-1.7709,0.0,0.0,0.0,0.0,0.0,0.0,0.0,0.0,-2.1455,-2.2505,-2.2974,-2.3552,-2.4097,0.0,-2.4066,-2.3031,0.0,0.0,0.0,0.0,0.0,0.0,0.0,0.0,-2.304,-2.5066,-2.7244,-2.8247,-2.8084,-2.9314,-2.9392,-2.8187,-2.7802,-2.6559,-2.4221,-2.2691,-2.1524,0.0,0.0,0.0,0.0,0.0,0.0,0.0,0.0,0.0,0.0,0.0,0.0,0.0,0.0,0.0,0.0,0.0,0.0,0.0,0.0,0.0,0.0,0.0,-1.9374,0.0,0.0,0.0,0.0,0.0,0.0,0.0,0.0,0.0,-2.8171,-3.0209,-3.2324,-3.4135,-3.5311,-3.6225,-3.6851,0.0,0.0,0.0,0.0,0.0,0.0,0.0,-3.7497,-3.7909,-3.8393,-3.8679,-3.8677,-3.9488,-4.0112,-3.9818,0.0,0.0,-3.5857,-3.4768,-3.462,-3.511,-3.5522,-3.5889,-3.6184,-3.6769,-3.7184,0.0,0.0,0.0,0.0,0.0,0.0,0.0,0.0,-2.0329,-2.0286,0.0,-1.9834,0.0,0.0,0.0,0.0,0.0,0.0,0.0,0.0,-2.3588,-2.4766,-2.5223,-2.5231,-2.6086,-2.763,-2.77,-2.7324,-2.6305,-2.2223,0.0,0.0,0.0,0.0,0.0,0.0,-2.428,-2.6452,-2.8084,-2.9176,-2.974,-2.9792,-2.947,-2.8812,-2.7545,-2.6533,-2.5821,-2.4696,-2.3106,-2.0935,-1.9643,0.0,0.0,0.0,0.0,0.0,0.0,0.0,0.0,0.0,0.0,0.0,0.0,0.0,0.0,0.0,0.0,0.0,0.0,0.0,0.0,-2.0173,0.0,0.0,0.0,0.0,0.0,0.0,0.0,0.0,0.0,0.0,-2.9423,-3.2171,-3.4659,-3.5691,0.0,0.0,0.0,0.0,-3.7259,-3.785,-3.7974,-3.8199,-3.8804,-3.9413,-3.9769,-3.9769,0.0,0.0,-4.1679,-4.2217,-4.2365,-4.1771,-4.2119,-4.2186,-4.072,-3.9333,-3.8782,-3.9336,-3.8536,-3.8167,-3.9259,-3.992,-4.0582,-1.7687,0.0,0.0,0.0,0.0,-2.0761,-2.1783,-2.2724,-2.2844,-2.2449,-2.1694,-2.1362,0.0,0.0,0.0,0.0,0.0,0.0,-2.2035,-2.2822,-2.367,-2.4931,-2.6556,-2.6567,-2.7455,-2.9118,-2.8759,-2.845,-2.811,-2.6164,-2.3867,-2.1305,0.0,0.0,0.0,0.0,-2.5234,-2.704,-2.8285,-2.9176,-2.9779,-2.9946,-2.9669,-2.8945,-2.8043,-2.7169,-2.6465,-2.572,-2.4618,-2.3184,-2.1616,0.0,0.0,0.0,0.0,0.0,0.0,0.0,0.0,0.0,0.0,0.0,0.0,0.0,0.0,0.0,0.0,0.0,0.0,0.0,-1.8741,-2.0029,-2.1075,0.0,0.0,0.0,0.0,0.0,0.0,0.0,0.0,0.0,-3.4448,-3.5283,-3.5996,0.0,0.0,-3.8193,-3.7957,-3.8131,-3.8424,-3.8607,0.0,0.0,0.0,-3.9827,-4.0364,-3.9892,-4.1252,-4.2682,-4.3589,-4.3494,-4.327,-4.3069,-4.2802,-4.2463,-4.2109,-4.1724,-4.1494,-4.1648,-4.1386,-4.1247,-4.1632,-4.1894,-4.2063,-1.9178,-1.8643,-1.94,-2.022,-2.1157,-2.189,-2.2951,-2.4136,-2.4136,-2.3826,-2.3298,-2.2968,-2.2139,-2.0871,-2.0695,0.0,0.0,0.0,-2.3018,-2.3743,-2.4012,-2.5007,-2.6554,-2.6935,-2.7851,-2.9236,-2.9274,-2.9264,-2.9264,-2.8599,-2.6753,-2.3866,0.0,0.0,-2.3828,-2.5121,-2.649,-2.7896,-2.8812,-2.944,-2.9779,-2.9783,-2.9361,-2.8537,-2.8116,-2.7648,-2.704,-2.6242,-2.5393,-2.4478,-2.2792,-2.0949,0.0,0.0,0.0,0.0,0.0,0.0,0.0,0.0,0.0,0.0,0.0,-1.6428,-1.4969,0.0,0.0,0.0,-1.8009,-1.9277,-2.0505,-2.1983,0.0,0.0,0.0,0.0,0.0,0.0,0.0,-3.2279,-3.3702,-3.5238,-3.7147,-3.781,-3.8228,-3.8567,-3.9174,-3.9557,-3.9423,0.0,-3.9714,-3.9972,-4.0307,-4.0514,-4.044,-4.1257,-4.187,-4.1739,-4.2625,-4.3648,-4.4388,-4.4271,-4.4009,-4.3947,-4.3648,-4.3387,-4.3387,-4.3387,-4.3187,-4.2709,-4.2602,-4.2602,-4.2602,-4.2817,-4.2987,-2.025,-2.0289,-2.0364,-2.1328,-2.2726,-2.2853,-2.3488,-2.4497,-2.4497,-2.4507,-2.4507,-2.4507,-2.3794,-2.2635,-2.2221,0.0,0.0,-2.3743,-2.4136,-2.4497,-2.4507,-2.4978,-2.5944,-2.673,-2.7649,-2.8633,-2.9417,-2.9779,-2.9779,-2.9767,-2.9013,-2.7494,-2.644,-2.6364,-2.718,-2.7331,-2.7921,-2.8875,-2.949,-2.9767,-2.9755,-2.934,-2.8677,-2.778,-2.7855,-2.773,-2.7326,-2.6354,-2.5532,-2.4979,-2.3369,-2.1446,-1.9251,0.0,0.0,0.0,0.0,0.0,0.0,0.0,0.0,0.0,0.0,0.0,0.0,0.0,0.0,0.0,-2.1237,0.0,-2.3287,-2.5041,0.0,0.0,0.0,-2.7563,-2.962,-3.0642,-3.2041,-3.4113,0.0,0.0,0.0,0.0,-4.0846,-4.1228,-4.1077,-4.1124,-4.1637,-4.1214,-4.1159,-4.1592,-4.1784,-4.206,-4.2372,-4.3036,-4.3626,-4.4167,-4.461,-4.4541,-4.461,-4.461,-4.4594,-4.4564,-4.4594,-4.4564,-4.4594,-4.4479,-4.424,-4.3033,-4.2817,-4.2802,-4.2879,-4.3316,-4.3685,-1.9819,-2.0311,-2.0303,-2.1109,-2.2421,-2.3368,-2.4042,-2.4507,-2.4507,-2.4507,-2.4507,-2.4507,-2.4321,-2.4001,-2.3898,-2.397,-2.4187,-2.4301,-2.4404,-2.4497,-2.4507,-2.5316,-2.6771,-2.6987,-2.7931,-2.9456,-2.9714,-2.9779,-2.9779,-2.9779,-2.9603,-2.9202,-2.8925,-2.8072,-2.6788,-2.7908,-2.8624,-2.8888,-2.9503,-2.9655,-2.934,-2.8722,-2.7974,-2.7203,-2.67,-2.6327,-2.6064,-2.5792,-2.5439,-2.5005,-2.372,-2.2347,-2.0937,-1.912,0.0,0.0,0.0,0.0,0.0,0.0,0.0,0.0,0.0,-1.9643,-1.7199,0.0,-2.1355,0.0,-2.3001,-2.4442,-2.4573,-2.5389,0.0,0.0,-2.8425,-2.9299,-3.1681,-3.3057,-3.4292,-3.5504,-3.6794,-3.8237,-3.9853,-4.0284,-4.1017,-4.2515,-4.2423,-4.2055,-4.1775,-4.1995,-4.2216,-4.2404,-4.2832,-4.3001,-4.2761,-4.318,-4.3825,-4.4511,-4.461,-4.461,-4.461,-4.461,-4.461,-4.461,-4.461,-4.461,-4.461,-4.461,-4.4533,-4.4187,-4.411,-4.4148,-4.411,-4.4218,-4.4363,-1.9524,-1.9913,-2.0362,-2.1081,-2.1902,-2.3089,-2.3856,-2.4287,-2.445,-2.4507,-2.4507,-2.4507,-2.4507,-2.4507,-2.4507,-2.4507,-2.4507,-2.4507,-2.4507,-2.4507,-2.4507,-2.5232,-2.6535,-2.6946,-2.7851,-2.9209,-2.9636,-2.9779,-2.9779,-2.9779,-2.9779,-2.9779,-2.9779,-2.9176,-2.8083,-2.8863,-2.9315,-2.9315,-2.9628,-2.9466,-2.8735,-2.8297,-2.7635,-2.6632,-2.6194,-2.5884,-2.5693,-2.5452,-2.5092,-2.4596,-2.3707,-2.266,-2.1538,-2.0322,-1.9381,0.0,0.0,0.0,0.0,0.0,0.0,0.0,0.0,0.0,0.0,0.0,-2.3223,0.0,-2.5301,0.0,-2.6889,-2.785,-2.8991,-3.0281,-3.0529,-3.1386,-3.3422,-3.4633,-3.5793,-3.7009,-3.8004,-3.9194,-4.0628,-4.0822,-4.1273,-4.2543,-4.2643,-4.269,-4.2982,-4.3311,-4.3482,-4.3536,-4.381,-4.3942,-4.3521,-4.381,-4.4174,-4.448,-4.461,-4.461,-4.461,-4.461,-4.461,-4.461,-4.461,-4.461,-4.461,-4.461,-4.461,-4.461,-4.461,-4.461,-4.461,-4.461,-4.461,-1.9324,-1.948,-2.0506,-2.1131,-2.1501,-2.2674,-2.3525,-2.4123,-2.4461,-2.4549,-2.4507,-2.4507,-2.4507,-2.4507,-2.4507,-2.4507,-2.4507,-2.4507,-2.4507,-2.4507,-2.4507,-2.4988,-2.5819,-2.6565,-2.7464,-2.8514,-2.9287,-2.9675,-2.9792,-2.9779,-2.9779,-2.9779,-2.9779,-2.9779,-2.9779,-2.9779,-2.9779,-2.9779,-2.9779,-2.9252,-2.8147,-2.8109,-2.7422,-2.6008,-2.5939,-2.5839,-2.5522,-2.5153,-2.4739,-2.4243,-2.3626,-2.2884,-2.1877,-2.1642,-2.108,0.0,-2.0517,0.0,0.0,0.0,0.0,0.0,0.0,0.0,0.0,-2.4256,-2.5127,-2.6041,-2.7706,-2.8908,-2.9353,-3.0882,-3.1823,-3.1915,-3.2463,-3.337,-3.4736,-3.5662,-3.6774,-3.8206,-3.9147,-3.9958,-4.0646,-4.0969,-4.1233,-4.1763,-4.212,-4.2732,-4.3943,-4.4234,-4.4342,-4.4564,-4.461,-4.4465,-4.4342,-4.4365,-4.4402,-4.4418,-4.444,-4.4517,-4.461,-4.461,-4.461,-4.461,-4.461,-4.4541,-4.4502,-4.4471,-4.4471,-4.4402,-4.4332,-4.4295,-4.4548,-4.461,-4.461,-1.9532,-2.0027,-2.066,-2.1175,-2.1778,-2.332,-2.4217,-2.4568,-2.4931,-2.4859,-2.4507,-2.4507,-2.4507,-2.4507,-2.4507,-2.4507,-2.4507,-2.4507,-2.4507,-2.4507,-2.4507,-2.4935,-2.5777,-2.5944,-2.6894,-2.8462,-2.8673,-2.9118,-2.9779,-2.9779,-2.9779,-2.9779,-2.9779,-2.9779,-2.9779,0.0,0.0,0.0,-2.9779,-2.9252,-2.8172,-2.8109,-2.714,-2.5124,-2.5152,0.0,-2.4086,-2.4481,-2.4788,-2.4835,-2.4256,0.0,0.0,0.0,0.0,0.0,0.0,0.0,0.0,0.0,0.0,0.0,-2.4944,-2.4792,-2.4756,-2.6883,-2.819,-2.7968,-2.9506,-3.0346,-2.9983,-3.1066,-3.198,-3.2489,-3.3064,-3.3991,-3.5331,-3.6258,-3.7129,-3.8121,-3.8958,-3.949,-3.9712,-3.9877,-4.0241,-4.0861,-4.1288,-4.179,-4.2406,-4.3247,-4.3956,-4.4486,-4.4464,-4.4363,-4.387,-4.3793,-4.3793,-4.3793,-4.3809,-4.3994,-4.444,-4.4548,-4.4594,-4.4564,-4.461,-4.4409,-4.3901,-4.3793,-4.3793,-4.3778,-4.3356,-4.3294,-4.4326,-4.4594,-4.461,-1.948,0.0,-2.0292,-2.1054,0.0,-2.3524,-2.4602,-2.5377,-2.5482,-2.5306,-2.4828,-2.46,-2.4507,-2.4507,-2.4507,-2.4507,-2.4507,-2.4507,-2.4507,-2.4507,-2.4507,-2.4988,-2.5777,-2.5777,-2.6472,-2.7758,-2.7799,-2.8291,-2.9118,-2.9182,-2.9378,-2.9779,-2.9779,-2.9779,-2.9779,-2.9779,-2.9779,-2.9779,-2.9779,-2.9252,-2.8172,-2.8109,-2.7216,-2.5441,0.0,0.0,0.0,0.0,0.0,0.0,0.0,0.0,0.0,0.0,0.0,-2.3602,-2.3903,-2.3942,-2.3678,-2.4683,-2.5702,-2.6563,-2.7425,-2.7719,-2.7164,-2.8699,-2.9693,-2.9729,-3.049,-3.0869,-3.0634,-3.1588,-3.2359,-3.2725,-3.386,-3.4928,-3.5641,-3.6425,-3.7218,-3.8037,-3.8538,-3.8958,-3.9481,-3.9625,-3.9802,-4.0154,-4.0446,-4.0811,-4.1355,-4.2356,-4.3248,-4.3556,-4.3602,-4.3479,-4.3187,-4.3094,-4.3094,-4.3094,-4.3094,-4.3233,-4.3541,-4.3602,-4.3587,-4.3602,-4.3618,-4.3464,-4.3202,-4.3131,-4.3094,-4.3063,-4.2833,-4.2786,-4.3494,-4.3602,-4.3602,-1.9272,-1.9324,-1.9879,-2.0834,-2.2139,-2.3493,-2.4895,-2.6172,0.0,0.0,0.0,-2.4704,-2.4507,-2.4507,-2.4507,-2.4507,-2.4507,-2.4507,-2.4507,-2.4507,-2.4507,-2.4903,-2.5537,-2.5579,-2.6038,-2.6864,-2.6864,-2.7342,-2.8211,-2.8263,-2.8633,-2.9248,-2.9507,-2.9624,-2.9779,-2.9779,-2.9779,-2.9779,-2.9779,-2.9289,-2.8298,-2.816,-2.7427,-2.6033,-2.596,-2.5786,-2.5478,-2.5638,-2.5369,-2.4605,-2.457,-2.4557,-2.457,-2.4435,-2.4814,-2.5728,-2.6347,-2.6465,-2.6033,-2.704,-2.7738,-2.7934,-2.9369,-3.0045,-2.947,-2.9918,-3.0477,-3.0947,-3.1024,-3.1024,-3.1037,-3.1914,-3.2581,-3.2685,-3.4393,-3.5614,-3.5909,-3.6635,-3.7501,-3.8225,-3.8464,-3.8723,-3.9502,-3.961,-3.9661,-3.9661,-3.9864,-4.0092,-4.061,-4.1733,-4.2606,-4.2688,-4.2786,-4.2633,-4.2448,-4.2432,-4.2432,-4.2417,-4.2432,-4.2463,-4.2571,-4.2602,-4.2602,-4.2725,-4.2617,-4.2586,-4.2479,-4.2432,-4.2432,-4.2448,-4.2325,-4.2294,-4.2386,-4.2325,-4.2355,-1.9272,-1.9376,-1.9879,-2.0739,-2.1887,-2.3434,-2.5015,-2.6491,-2.6103,-2.5637,-2.5158,-2.4704,-2.4507,-2.4507,-2.4507,-2.4507,-2.4507,-2.4507,-2.4507,0.0,-2.4507,-2.4583,-2.4658,-2.47,-2.5137,-2.5944,-2.5986,-2.6442,-2.7191,-2.7313,-2.7354,-2.7557,-2.8291,-2.9079,-2.9753,-2.9779,-2.9779,-2.9779,-2.9779,-2.9478,-2.8787,-2.836,-2.7557,-2.6471,-2.6197,-2.5838,-2.5364,-2.609,-2.6478,-2.6353,-2.6353,-2.6353,-2.6327,-2.5837,-2.5623,-2.5806,-2.636,-2.6667,-2.6627,-2.7648,-2.8686,-2.9657,-3.0451,-3.0634,-3.0061,-3.0542,-3.0895,-3.1024,-3.1024,-3.1024,-3.1026,-3.1588,-3.2137,-3.2712,-3.4032,-3.5362,-3.6443,-3.7353,-3.8175,-3.8891,-3.9243,-3.9147,-3.9349,-3.9415,-3.9445,-3.9481,-3.9625,-3.9828,-4.0243,-4.1376,-4.2312,-4.2565,-4.2602,-4.2355,-4.1863,-4.1755,-4.174,-4.174,-4.174,-4.1909,-4.2355,-4.2432,-4.2432,-4.2556,-4.2448,-4.2294,-4.1863,-4.174,-4.174,-4.1709,-4.1355,-4.1089,-4.1601,-4.1324,-4.1263,-1.9272,-1.9324,-1.9583,-2.038,-2.1633,-2.3822,-2.5382,-2.6316,-2.6036,-2.5637,-2.5158,-2.4704,-2.4507,-2.4507,-2.4507,-2.4507,-2.4507,-2.4507,-2.4507,-2.4507,-2.4507,-2.4507,-2.4507,-2.4507,-2.47,-2.5105,-2.5105,-2.5547,-2.6329,-2.64,-2.6659,-2.711,-2.8051,-2.8712,-2.9091,-2.9585,-2.9779,-2.9779,-2.9779,-2.9365,-2.8511,-2.8247,-2.7582,-2.6524,-2.6392,-2.6232,-2.6065,-2.6572,-2.6771,-2.6557,-2.6641,-2.6706,-2.6706,-2.6425,-2.6425,-2.6694,-2.6987,-2.7275,-2.7622,-2.8686,-2.9526,-3.0061,-3.066,-3.0882,-3.062,-3.083,-3.1024,-3.1024,-3.1024,-3.1024,-3.0999,-3.1509,-3.1915,-3.215,-3.3831,-3.4996,-3.5318,-3.6413,-3.7252,-3.7657,-3.8009,-3.8375,-3.882,-3.9185,-3.9388,-3.9409,-3.9481,-3.9625,-3.9803,-4.041,-4.1015,-4.1265,-4.1352,-4.1264,-4.1043,-4.1016,-4.1016,-4.0997,-4.1016,-4.1155,-4.1447,-4.1458,-4.1474,-4.1443,-4.1443,-4.137,-4.1047,-4.1016,-4.1016,-4.0986,-4.0766,-4.0689,-4.0893,-4.0705,-4.0766,-1.9272,-1.9272,-1.9272,-2.0233,-2.1836,-2.4208,-2.5574,-2.6139,-2.6001,-2.5637,-2.5158,-2.4704,-2.4507,-2.4507,-2.4507,-2.4507,-2.4507,-2.4507,-2.4507,-2.4507,-2.4507,-2.4507,-2.4507,-2.4507,-2.4507,-2.4507,-2.4507,-2.4861,-2.5421,-2.5505,-2.608,-2.7069,-2.7839,-2.8383,-2.8791,-2.9456,-2.9779,-2.9779,-2.9654,-2.9176,-2.8323,-2.8059,-2.7542,-2.6763,-2.6584,-2.6589,-2.6679,-2.6897,-2.6886,-2.6627,-2.6739,-2.6837,-2.6857,-2.687,-2.7066,-2.7451,-2.762,-2.8033,-2.8752,-2.9614,-3.0153,-3.0333,-3.0738,-3.1024,-3.1024,-3.1024,-3.1024,-3.1024,-3.1024,-3.1024,-3.1026,-3.1352,-3.1654,-3.1874,-3.3492,-3.451,-3.4369,-3.5399,-3.6328,-3.6529,-3.698,-3.7538,-3.8082,-3.8631,-3.885,-3.8886,-3.908,-3.9257,-3.9399,-3.9489,-3.9803,-4.0051,-4.0207,-4.0323,-4.0366,-4.0451,-4.0466,-4.0455,-4.0486,-4.0582,-4.0612,-4.0551,-4.052,-4.0597,-4.0566,-4.0597,-4.0536,-4.052,-4.0536,-4.0566,-4.052,-4.0505,-4.0536,-4.0536,-4.0489,-1.9331,-1.9272,-1.9272,-2.0637,-2.2735,-2.4285,-2.5333,-2.6072,-2.5991,-2.5637,-2.5137,-2.4704,-2.4507,-2.4507,-2.4507,-2.4507,-2.4507,-2.4507,-2.4507,-2.4507,-2.4507,-2.4507,-2.4507,-2.4507,-2.4507,-2.4507,-2.4507,-2.454,-2.47,-2.4658,-2.5474,-2.6946,-2.718,-2.8023,-2.9429,-2.9702,-2.9779,-2.9779,-2.9277,-2.8925,-2.8775,-2.7871,-2.7341,-2.7241,-2.6876,-2.6692,-2.6679,-2.6875,-2.7053,-2.7204,-2.7211,-2.7278,-2.7411,-2.7411,-2.7438,-2.7503,-2.8007,-2.8778,-2.9787,-3.0048,-3.0335,-3.0843,-3.0934,-3.1024,-3.1024,-3.1024,-3.1024,-3.1024,-3.1024,-3.1024,-3.1024,-3.1065,-3.13,-3.1718,-3.2699,-3.3706,-3.4627,-3.5754,-3.6541,-3.7218,-3.7114,-3.7425,-3.749,-3.7659,-3.7689,-3.7808,-3.8212,-3.8497,-3.8597,-3.9047,-3.9412,-3.9687,-3.9874,-4.0011,-4.0081,-4.0207,-4.0296,-4.0331,-4.0436,-4.047,-4.0489,-4.0489,-4.0489,-4.0489,-4.0489,-4.0489,-4.0489,-4.0489,-4.0489,-4.0459,-4.0459,-4.0443,-4.0474,-4.0428,-4.0413,-1.95,-1.9279,-1.9272,-2.0233,-2.1785,-2.3144,-2.4061,-2.4658,-2.5366,-2.5324,-2.4807,-2.458,-2.4507,-2.4507,-2.4507,-2.4507,-2.4507,-2.4507,-2.4507,-2.4507,-2.4507,-2.4507,-2.4507,-2.4507,-2.4507,-2.4507,-2.4507,-2.4507,-2.4507,-2.4507,-2.4871,-2.5558,-2.6038,-2.6689,-2.7476,-2.8502,-2.8752,-2.8239,-2.789,-2.7716,-2.763,-2.7417,-2.7118,-2.6851,-2.6669,-2.6602,-2.6602,-2.6726,-2.6863,-2.6964,-2.7167,-2.7323,-2.7369,-2.7469,-2.7503,-2.7555,-2.8412,-2.9261,-3.0048,-3.0401,-3.0738,-3.1011,-3.1024,-3.1024,-3.1024,-3.1024,-3.1024,-3.1024,-3.1024,-3.1024,-3.1024,-3.1024,-3.1091,-3.1401,-3.2038,-3.2589,-3.262,-3.4164,-3.5145,-3.5071,-3.6074,-3.6851,-3.6926,-3.718,-3.7375,-3.7419,-3.7674,-3.7808,-3.7838,-3.8377,-3.8786,-3.8977,-3.9319,-3.9717,-3.9925,-4.0081,-4.0172,-4.0277,-4.0331,-4.0401,-4.047,-4.0489,-4.0489,-4.0489,-4.0489,-4.0489,-4.0489,-4.0489,-4.0489,-4.0382,-4.0043,-3.989,-3.9905,-3.9905,-4.0013,-1.9572,-1.9301,-1.9272,-1.9878,-2.0844,-2.1879,-2.2744,-2.3523,-2.4516,-2.4749,-2.453,-2.4516,-2.4454,-2.4411,-2.4454,-2.4507,-2.4507,-2.4507,-2.4507,-2.4507,-2.4507,-2.4507,-2.4507,-2.4507,-2.4507,-2.4507,-2.4507,-2.4507,-2.4507,-2.4507,-2.4625,-2.4903,-2.5505,-2.5902,-2.6276,-2.7545,-2.781,-2.7128,-2.6764,-2.65,-2.6504,-2.6663,-2.6679,-2.6502,-2.6487,-2.6487,-2.6487,-2.6602,-2.6658,-2.6726,-2.6998,-2.7188,-2.7302,-2.7403,-2.76,-2.8012,-2.8948,-2.9758,-3.0333,-3.0751,-3.1024,-3.1024,-3.1024,-3.1024,-3.1024,-3.1024,-3.1024,-3.1024,-3.1024,-3.1024,-3.1024,-3.1024,-3.1024,-3.1061,-3.1492,-3.1603,-3.1519,-3.2847,-3.3659,-3.3673,-3.4976,-3.6026,-3.6234,-3.6552,-3.6791,-3.6791,-3.7015,-3.7165,-3.724,-3.7689,-3.8123,-3.8138,-3.8556,-3.9082,-3.9677,-3.9889,-3.9996,-4.0086,-4.0156,-4.0261,-4.0401,-4.0436,-4.0489,-4.0455,-4.0489,-4.0336,-4.012,-4.0151,-4.0059,-3.989,-3.9551,-3.9231,-3.9247,-3.9247,-3.9398,-1.9625,-1.9294,-1.9272,-1.9683,-2.0442,-2.0775,-2.1819,-2.3159,-2.3501,-2.3849,-2.4364,-2.4467,-2.4378,-2.4249,-2.4411,-2.4507,-2.4507,-2.4507,-2.4507,-2.4507,-2.4507,-2.4507,-2.4507,-2.4507,-2.4507,-2.4507,-2.4507,-2.4507,-2.4507,-2.4507,-2.4935,-2.5663,-2.5704,-2.6163,-2.673,-2.7028,-2.711,-2.6832,-2.6108,-2.5685,-2.5662,-2.5514,-2.5796,-2.643,-2.6487,-2.6487,-2.6487,-2.6487,-2.6555,-2.6692,-2.6748,-2.6897,-2.7235,-2.7315,-2.791,-2.9043,-2.9732,-3.0296,-3.0817,-3.096,-3.1024,-3.1024,-3.1024,-3.1024,-3.1024,-3.1024,-3.1024,-3.1024,-3.1024,-3.1024,-3.1024,-3.1024,-3.1024,-3.1024,-3.1061,-3.1357,-3.1905,-3.2123,-3.2897,-3.3754,-3.4298,-3.4804,-3.5431,-3.5564,-3.5696,-3.5801,-3.6178,-3.6522,-3.6611,-3.7045,-3.7404,-3.7479,-3.7629,-3.7958,-3.9101,-3.9273,-3.9491,-3.9551,-3.954,-3.9934,-4.0161,-4.0347,-4.0339,-4.0313,-4.0178,-3.9948,-3.9674,-3.9398,-3.9182,-3.8967,-3.8769,-3.8554,-3.8554,-3.8554,-3.8754,-1.9625,-1.9309,-1.9052,-1.9146,-1.9409,-1.9974,-2.0538,-2.1079,-2.2392,-2.3002,-2.3261,-2.3814,-2.411,-2.4196,-2.4292,-2.4368,-2.4507,-2.4507,-2.4507,-2.4507,-2.4507,-2.4507,-2.4507,-2.4507,-2.4507,-2.4507,-2.4507,-2.4507,-2.4507,-2.4507,-2.4668,-2.4903,-2.4988,-2.5147,-2.5474,-2.6008,-2.5997,-2.5483,-2.5337,-2.5391,-2.547,-2.5182,-2.5469,-2.6408,-2.6487,-2.6487,-2.6487,-2.6487,-2.6533,-2.6555,-2.6658,-2.6748,-2.6956,-2.7481,-2.8399,-2.9631,-2.9983,-3.0348,-3.0882,-3.1024,-3.1024,-3.1024,-3.1024,-3.1024,-3.1024,-3.1024,-3.1024,-3.1024,-3.1024,-3.1024,-3.1024,-3.1024,-3.1024,-3.1024,-3.1024,-3.1086,-3.1394,-3.1796,-3.2313,-3.2847,-3.3269,-3.3919,-3.4543,-3.4758,-3.4938,-3.5407,-3.5714,-3.5848,-3.5953,-3.6417,-3.6821,-3.6896,-3.7165,-3.7569,-3.7943,-3.8142,-3.8247,-3.8366,-3.8489,-3.8607,-3.8819,-3.8994,-3.8967,-3.918,-3.9278,-3.922,-3.8806,-3.8657,-3.8396,-3.806,-3.7829,-3.7861,-3.7861,-3.7861,-3.8092,-1.9529,-1.9242,-1.8928,-1.873,-1.8699,-1.904,-1.9272,-1.9473,-2.0885,-2.1744,-2.2246,-2.3028,-2.357,-2.398,-2.411,-2.4282,-2.4411,-2.4454,-2.4507,-2.4507,-2.4507,-2.4507,-2.4507,-2.4507,-2.4507,-2.4507,-2.4507,-2.4507,-2.4507,-2.4507,-2.4507,-2.4497,-2.4507,-2.4507,-2.4625,-2.5105,-2.5062,-2.4617,-2.4691,-2.4846,-2.4913,-2.4623,-2.4802,-2.5469,-2.5679,-2.5978,-2.6452,-2.6487,-2.6487,-2.6521,-2.6589,-2.6734,-2.7031,-2.8042,-2.9038,-2.9874,-3.0233,-3.0568,-3.0908,-3.1024,-3.1024,-3.1024,-3.1024,-3.1024,-3.1024,-3.1024,-3.1024,-3.1024,-3.1024,-3.1024,-3.1024,-3.1024,-3.1024,-3.1024,-3.1024,-3.1024,-3.1024,-3.1431,-3.1809,-3.2232,-3.2826,-3.3492,-3.4109,-3.4279,-3.4677,-3.5392,-3.5489,-3.5489,-3.5564,-3.5848,-3.6163,-3.6193,-3.6462,-3.6641,-3.6806,-3.6855,-3.7364,-3.7586,-3.768,-3.7681,-3.7676,-3.7788,-3.7871,-3.8065,-3.8149,-3.8106,-3.8034,-3.7885,-3.758,-3.7181,-3.7137,-3.7169,-3.7169,-3.7169,-3.7368,-1.9338,-1.9228,-1.8921,-1.8584,-1.8313,-1.8059,-1.8235,-1.8767,-1.9126,-2.0212,-2.1373,-2.2173,-2.2809,-2.345,-2.3894,-2.4163,-2.4249,-2.4421,-2.4497,-2.4507,-2.4507,-2.4507,-2.4507,-2.4507,-2.4507,-2.4507,-2.4507,-2.4507,-2.4507,-2.4507,-2.4507,-2.4507,-2.4507,-2.4507,-2.4507,-2.4583,-2.4583,-2.4467,-2.4262,-2.4054,-2.3929,-2.3921,-2.3941,-2.4009,-2.4189,-2.4945,-2.6305,-2.6361,-2.6302,-2.6418,-2.643,-2.6832,-2.7614,-2.8841,-2.9729,-2.9921,-3.0535,-3.0934,-3.0973,-3.0986,-3.1024,-3.1024,-3.1024,-3.1024,-3.1024,-3.1024,-3.1024,-3.1024,-3.1024,-3.1024,-3.1024,-3.1024,-3.1024,-3.1024,-3.1024,-3.1024,-3.1024,-3.1024,-3.1259,-3.1942,-3.2541,-3.3422,-3.4041,-3.4177,-3.4476,-3.5213,-3.5489,-3.5489,-3.5489,-3.5609,-3.5549,-3.5564,-3.5774,-3.5968,-3.5744,-3.5609,-3.6342,-3.6926,-3.7064,-3.7132,-3.7113,-3.7149,-3.7189,-3.7337,-3.7438,-3.7395,-3.7168,-3.7004,-3.6792,-3.6502,-3.6505,-3.6598,-3.6644,-3.6706,-3.6614,-1.9272,-1.9206,-1.8679,-1.8401,-1.8225,-1.7713,-1.7594,-1.7839,-1.8557,-1.9239,-1.9923,-2.1275,-2.2138,-2.2589,-2.3319,-2.3904,-2.4206,-2.4282,-2.4368,-2.4454,-2.4507,-2.4507,-2.4507,-2.4507,-2.4507,-2.4507,-2.4507,-2.4507,-2.4507,-2.4507,-2.4507,-2.4507,-2.4507,-2.4507,-2.4507,-2.4507,-2.4507,-2.4476,-2.4363,-2.443,-2.46,-2.427,-2.4211,-2.4416,-2.4237,-2.4523,-2.5226,-2.5039,-2.5123,-2.5676,-2.5676,-2.6433,-2.795,-2.8917,-2.9639,-3.0174,-3.0568,-3.0811,-3.0811,-3.0911,-3.0986,-3.0986,-3.0986,-3.1024,-3.1024,-3.1024,-3.1024,-3.1024,-3.1024,-3.1024,-3.1024,-3.1024,-3.1024,-3.1024,-3.1024,-3.1024,-3.1024,-3.1024,-3.1099,-3.1296,-3.1542,-3.2223,-3.3178,-3.3512,-3.4056,-3.5228,-3.5424,-3.5457,-3.5504,-3.5489,-3.5489,-3.5489,-3.5489,-3.5489,-3.5489,-3.5489,-3.5863,-3.6267,-3.6387,-3.6507,-3.6499,-3.652,-3.6511,-3.6579,-3.668,-3.6639,-3.6383,-3.6233,-3.6098,-3.6068,-3.6177,-3.624,-3.6289,-3.6289,-3.6289,-1.9272,-1.9199,-1.8569,-1.8299,-1.8218,-1.7604,-1.7286,-1.7372,-1.7963,-1.8427,-1.9018,-2.0059,-2.1105,-2.1908,-2.2633,-2.3319,-2.3894,-2.4034,-2.4196,-2.4368,-2.4497,-2.4507,-2.4507,-2.4507,-2.4507,-2.4507,-2.4507,-2.4507,-2.4507,-2.4507,-2.4507,-2.4507,-2.4507,-2.4507,-2.4507,-2.4507,-2.4507,-2.4507,-2.4497,-2.4607,-2.4637,-2.4237,-2.3993,-2.4084,-2.3747,-2.367,-2.3912,-2.3802,-2.4306,-2.5349,-2.5862,-2.679,-2.818,-2.8871,-2.9541,-3.0164,-3.0457,-3.0571,-3.0609,-3.0761,-3.0874,-3.0874,-3.0949,-3.1024,-3.1024,-3.1024,-3.1024,-3.1024,-3.1024,-3.1024,-3.1024,-3.1024,-3.1024,-3.1024,-3.1024,-3.1024,-3.1024,-3.1024,-3.1024,-3.1061,-3.1061,-3.1603,-3.2412,-3.2826,-3.3422,-3.4673,-3.5052,-3.5279,-3.5359,-3.5489,-3.5489,-3.5489,-3.5489,-3.5489,-3.5489,-3.5489,-3.5489,-3.5609,-3.5684,-3.5789,-3.5836,-3.5836,-3.5872,-3.5934,-3.6017,-3.6062,-3.5868,-3.5937,-3.5894,-3.5894,-3.5941,-3.6068,-3.6132,-3.61,-3.61,-1.9272,-1.9191,-1.8569,-1.8299,-1.8218,-1.7556,-1.7286,-1.7333,-1.7372,-1.7878,-1.8557,-1.8926,-1.9877,-2.1239,-2.1676,-2.2306,-2.3232,-2.3484,-2.3701,-2.397,-2.4239,-2.4411,-2.4497,-2.4507,-2.4507,-2.4507,-2.4507,-2.4507,-2.4507,-2.4507,-2.4507,-2.4507,-2.4507,-2.4507,-2.4507,-2.4507,-2.4507,-2.4507,-2.4507,-2.4519,-2.4489,-2.367,-2.3254,-2.3273,-2.2822,-2.2572,-2.2746,-2.3174,-2.4149,-2.5797,-2.6613,-2.7366,-2.8134,-2.8848,-2.953,-3.005,-3.0267,-3.0368,-3.0444,-3.0609,-3.0736,-3.0773,-3.0911,-3.1024,-3.1024,-3.1024,-3.1024,-3.1024,-3.1024,-3.1024,-3.1024,-3.1024,-3.1024,-3.1024,-3.1024,-3.1024,-3.1024,-3.1024,-3.1024,-3.1024,-3.1048,-3.1283,-3.2087,-3.2196,-3.2918,-3.3939,-3.4413,-3.4758,-3.5279,-3.5489,-3.5489,-3.5489,-3.5489,-3.5489,-3.5489,-3.5489,-3.5489,-3.5489,-3.5489,-3.5489,-3.5489,-3.5489,-3.5489,-3.5537,-3.5537,-3.5537,-3.5554,-3.5653,-3.5703,-3.5718,-3.5782,-3.5957,-3.5988,-3.591,-3.591,-1.9272,-1.9206,-1.8569,-1.8299,-1.8211,-1.7556,-1.7286,-1.7286,-1.7286,-1.7466,-1.7824,-1.8473,-1.9063,-1.9604,-2.0376,-2.0953,-2.1587,-2.2217,-2.2624,-2.294,-2.3657,-2.4143,-2.4454,-2.4507,-2.4507,-2.4507,-2.4507,-2.4507,-2.4507,-2.4507,-2.4507,-2.4507,-2.4507,-2.4507,-2.4507,-2.4507,-2.4507,-2.4507,-2.4507,-2.4497,-2.4342,-2.365,-2.3205,-2.3111,-2.2428,-2.2221,-2.2527,-2.3211,-2.4222,-2.5604,-2.6523,-2.7545,-2.8537,-2.9189,-2.9591,-2.9883,-3.0075,-3.0254,-3.0406,-3.0571,-3.0773,-3.0911,-3.0949,-3.1024,-3.1024,-3.1024,-3.1024,-3.1024,-3.1024,-3.1024,-3.1024,-3.1024,-3.1024,-3.1024,-3.1024,-3.1024,-3.1024,-3.1024,-3.1024,-3.1024,-3.1024,-3.1357,-3.1809,-3.2123,-3.2563,-3.3754,-3.4245,-3.4495,-3.5052,-3.5489,-3.5489,-3.5489,-3.5489,-3.5489,-3.5489,-3.5489,-3.5489,-3.5489,-3.5489,-3.5489,-3.5489,-3.5489,-3.5489,-3.5489,-3.5537,-3.5489,-3.5489,-3.5554,-3.5539,-3.5557,-3.5604,-3.5716,-3.5718,-3.5703,-3.5718,-1.9272,-1.922,-1.8569,-1.8299,-1.8218,-1.7604,-1.7286,-1.7286,-1.7286,-1.7286,-1.7466,-1.7878,-1.8427,-1.8834,-1.9376,-2.0187,-2.1051,-2.1641,-2.2227,-2.295,-2.3657,-2.411,-2.4378,-2.4464,-2.4507,-2.4507,-2.4507,-2.4507,-2.4507,-2.4507,-2.4507,-2.4507,-2.4507,-2.4507,-2.4507,-2.4507,-2.4507,-2.4507,-2.4497,-2.4425,-2.4219,-2.3567,-2.3111,-2.2894,-2.2356,-2.2315,-2.2797,-2.3245,-2.4061,-2.5085,-2.5779,-2.6738,-2.8171,-2.8654,-2.913,-2.9664,-2.9895,-3.0049,-3.0152,-3.0419,-3.0609,-3.0761,-3.0874,-3.0986,-3.1024,-3.1024,-3.1024,-3.1024,-3.1024,-3.1024,-3.1024,-3.1024,-3.1024,-3.1024,-3.1024,-3.1024,-3.1024,-3.1024,-3.1024,-3.1024,-3.1024,-3.1123,-3.1603,-3.1626,-3.2218,-3.3045,-3.3581,-3.4124,-3.4758,-3.5166,-3.5489,-3.5489,-3.5489,-3.5489,-3.5489,-3.5489,-3.5489,-3.5489,-3.5489,-3.5489,-3.5489,-3.5489,-3.5489,-3.5489,-3.5489,-3.5489,-3.5489,-3.5489,-3.5489,-3.5522,-3.5489,-3.5522,-3.5572,-3.5606,-3.5636,-1.9338,-1.9169,-1.8555,-1.8284,-1.8145,-1.7596,-1.7286,-1.7286,-1.7286,-1.7286,-1.7333,-1.7333,-1.7839,-1.865,-1.8611,-1.9559,-2.1015,-2.1015,-2.1917,-2.2677,-2.3387,-2.3754,-2.3797,-2.4282,-2.4411,-2.4464,-2.4454,-2.4497,-2.4497,-2.4507,-2.4507,-2.4507,-2.4507,-2.4507,-2.4507,-2.4507,-2.4507,-2.4476,-2.4383,-2.425,-2.3898,-2.337,-2.2894,-2.2604,-2.2397,-2.2439,-2.276,-2.3054,-2.3463,-2.4487,-2.4736,-2.5966,-2.7397,-2.7683,-2.8388,-2.9424,-2.9755,-2.983,-2.9895,-3.0228,-3.0406,-3.047,-3.0785,-3.0949,-3.0949,-3.0949,-3.1024,-3.1024,-3.1024,-3.1024,-3.1024,-3.1024,-3.1024,-3.1024,-3.1024,-3.1024,-3.1024,-3.1024,-3.1024,-3.1024,-3.1024,-3.1024,-3.1024,-3.1048,-3.132,-3.2456,-3.2953,-3.3547,-3.4225,-3.4791,-3.5198,-3.5489,-3.5489,-3.5489,-3.5489,-3.5489,-3.5489,-3.5489,-3.5489,-3.5489,-3.5489,-3.5489,-3.5489,-3.5489,-3.5489,-3.5489,-3.5489,-3.5489,-3.5489,-3.5489,-3.5489,-3.5489,-3.5522,-3.5589,-3.5621,-1.9419,-1.8862,-1.8467,-1.8152,-1.7874,-1.7454,-1.7286,-1.7286,-1.7286,-1.7286,-1.7286,-1.7286,-1.7419,-1.7699,-1.7746,-1.7917,-1.8696,-1.9338,-1.9968,-2.0908,-2.2031,-2.2438,-2.2755,-2.3614,-2.4282,-2.4368,-2.4335,-2.4325,-2.4454,-2.4464,-2.4507,-2.4497,-2.4497,-2.4507,-2.4507,-2.4507,-2.4507,-2.4445,-2.4219,-2.4002,-2.3722,-2.308,-2.2615,-2.2439,-2.2159,-2.2025,-2.2066,-2.2108,-2.2415,-2.3221,-2.4481,-2.5889,-2.7284,-2.813,-2.8685,-2.9138,-2.9616,-2.9869,-3.0011,-3.0113,-3.0216,-3.0394,-3.0609,-3.0773,-3.0811,-3.0911,-3.0986,-3.1024,-3.1024,-3.1024,-3.1024,-3.1024,-3.1024,-3.1024,-3.1024,-3.1024,-3.1024,-3.1024,-3.1024,-3.1024,-3.1024,-3.1024,-3.1024,-3.1024,-3.1334,-3.1942,-3.247,-3.2989,-3.365,-3.4394,-3.4938,-3.5377,-3.5489,-3.5489,-3.5489,-3.5489,-3.5489,-3.5489,-3.5489,-3.5489,-3.5489,-3.5489,-3.5489,-3.5489,-3.5489,-3.5489,-3.5489,-3.5489,-3.5489,-3.5489,-3.5489,-3.5489,-3.5522,-3.5572,-3.5604,-1.9235,-1.8752,-1.8277,-1.7977,-1.7772,-1.7425,-1.7286,-1.7286,-1.7286,-1.7286,-1.7286,-1.7286,-1.7286,-1.7286,-1.7333,-1.7505,-1.8149,-1.901,-1.9741,-2.0367,-2.1087,-2.1578,-2.2076,-2.2799,-2.343,-2.4013,-2.4067,-2.411,-2.4153,-2.4292,-2.4335,-2.4368,-2.4454,-2.4507,-2.4507,-2.4507,-2.4507,-2.4414,-2.4105,-2.3836,-2.3463,-2.2884,-2.2335,-2.2201,-2.1932,-2.1807,-2.1838,-2.2066,-2.2252,-2.2783,-2.394,-2.5442,-2.687,-2.7861,-2.8558,-2.9288,-2.9578,-2.983,-2.9946,-3.0049,-3.0152,-3.0254,-3.0419,-3.0584,-3.0698,-3.0811,-3.0911,-3.0986,-3.1024,-3.1024,-3.1024,-3.1024,-3.1024,-3.1024,-3.1024,-3.1024,-3.1024,-3.1024,-3.1024,-3.1024,-3.1024,-3.1024,-3.1024,-3.1024,-3.1061,-3.1542,-3.2051,-3.2563,-3.3339,-3.4075,-3.4791,-3.5198,-3.5424,-3.5489,-3.5489,-3.5489,-3.5489,-3.5489,-3.5489,-3.5489,-3.5489,-3.5489,-3.5489,-3.5489,-3.5489,-3.5489,-3.5489,-3.5489,-3.5489,-3.5489,-3.5489,-3.5489,-3.5489,-3.5554,-3.5554,-1.8979,-1.8599,-1.8043,-1.7786,-1.7651,-1.7443,-1.7286,-1.7286,-1.7286,-1.7286,-1.7286,-1.7286,-1.7286,-1.7286,-1.7286,-1.7831,-1.8465,-1.9101,-1.9376,-1.9513,-2.0005,-2.0593,-2.1221,-2.1854,-2.2536,-2.344,-2.3667,-2.3754,-2.3884,-2.4024,-2.4153,-2.4206,-2.4378,-2.4464,-2.4507,-2.4497,-2.4435,-2.429,-2.3929,-2.3546,-2.3091,-2.2594,-2.217,-2.1932,-2.1838,-2.1807,-2.1869,-2.2087,-2.2346,-2.2465,-2.317,-2.441,-2.5782,-2.6978,-2.7888,-2.9223,-2.935,-2.9692,-2.9844,-2.9934,-3.0037,-3.0075,-3.0228,-3.0419,-3.0546,-3.0622,-3.0723,-3.0836,-3.0911,-3.0949,-3.0986,-3.1024,-3.1024,-3.1024,-3.1024,-3.1024,-3.1024,-3.1024,-3.1024,-3.1024,-3.1024,-3.1024,-3.1024,-3.1024,-3.1024,-3.1086,-3.164,-3.2218,-3.2953,-3.3512,-3.409,-3.4658,-3.4806,-3.5311,-3.5424,-3.5489,-3.5489,-3.5489,-3.5489,-3.5489,-3.5489,-3.5489,-3.5489,-3.5489,-3.5489,-3.5489,-3.5489,-3.5489,-3.5489,-3.5489,-3.5489,-3.5489,-3.5489,-3.5537,-3.5522,-1.8518,-1.7962,-1.786,-1.7662,-1.7421,-1.7301,-1.7286,-1.7286,-1.7286,-1.7286,-1.7286,-1.7286,-1.7286,-1.7286,-1.7286,-1.7473,-1.7738,-1.8064,-1.8017,-1.8149,-1.8742,-1.9376,-1.9832,-2.1051,-2.1819,-2.228,-2.3003,-2.358,-2.3711,-2.3841,-2.398,-2.4153,-2.4239,-2.4325,-2.4454,-2.4487,-2.4311,-2.4053,-2.3619,-2.3163,-2.2697,-2.2242,-2.1952,-2.1807,-2.1807,-2.1807,-2.1807,-2.1869,-2.1921,-2.1998,-2.2708,-2.3465,-2.4368,-2.5527,-2.6571,-2.7515,-2.836,-2.896,-2.9488,-2.9703,-2.9805,-2.9895,-3.0049,-3.0152,-3.0241,-3.0343,-3.0495,-3.0558,-3.0685,-3.0811,-3.0986,-3.0986,-3.0973,-3.0973,-3.1024,-3.1024,-3.1024,-3.1024,-3.1024,-3.1024,-3.1024,-3.1024,-3.1024,-3.1024,-3.1024,-3.1024,-3.1259,-3.1809,-3.2434,-3.272,-3.2932,-3.3526,-3.4056,-3.4739,-3.5359,-3.5457,-3.5489,-3.5489,-3.5489,-3.5489,-3.5489,-3.5489,-3.5489,-3.5489,-3.5489,-3.5489,-3.5489,-3.5489,-3.5489,-3.5489,-3.5489,-3.5489,-3.5489,-3.5537,-3.5554,-1.8255,-1.7808,-1.7633,-1.7472,-1.7301,-1.7286,-1.7286,-1.7286,-1.7286,-1.7286,-1.7286,-1.7286,-1.7286,-1.7286,-1.7286,-1.7286,-1.7286,-1.7286,-1.7286,-1.7466,-1.7785,-1.838,-1.8834,-2.0286,-2.115,-2.1872,-2.2775,-2.3276,-2.345,-2.359,-2.3754,-2.398,-2.411,-2.4282,-2.4454,-2.4497,-2.4239,-2.3867,-2.3412,-2.2946,-2.249,-2.2035,-2.1838,-2.1807,-2.1807,-2.1807,-2.1807,-2.1807,-2.1818,-2.1856,-2.2187,-2.2492,-2.3037,-2.3846,-2.5066,-2.6132,-2.6952,-2.7819,-2.8551,-2.8802,-2.9005,-2.9715,-2.9908,-3.0011,-3.0088,-3.019,-3.0305,-3.0406,-3.0444,-3.0647,-3.0811,-3.0849,-3.0874,-3.0986,-3.1024,-3.1024,-3.1024,-3.1024,-3.1024,-3.1024,-3.1024,-3.1024,-3.1024,-3.1024,-3.1024,-3.1024,-3.1024,-3.1431,-3.1978,-3.2087,-3.2196,-3.2932,-3.3596,-3.4124,-3.4839,-3.5166,-3.5279,-3.5311,-3.5489,-3.5489,-3.5489,-3.5489,-3.5489,-3.5489,-3.5489,-3.5489,-3.5489,-3.5489,-3.5489,-3.5489,-3.5489,-3.5489,-3.5489,-3.5522,-3.5522,-1.7955,-1.7699,-1.7388,-1.7286,-1.7286,-1.7286,-1.7286,-1.7286,-1.7286,-1.7286,-1.7286,-1.7286,-1.7286,-1.7286,-1.7286,-1.7286,-1.7286,-1.7286,-1.7286,-1.7333,-1.7372,-1.7831,-1.8511,-1.9467,-2.024,-2.0827,-2.1819,-2.2731,-2.3135,-2.3319,-2.3537,-2.3711,-2.398,-2.4153,-2.4282,-2.4235,-2.403,-2.3691,-2.3277,-2.2822,-2.2366,-2.2014,-2.1807,-2.1807,-2.1807,-2.1807,-2.1807,-2.1807,-2.1807,-2.1807,-2.1845,-2.1856,-2.1932,-2.2402,-2.3464,-2.4754,-2.5352,-2.6308,-2.7165,-2.7589,-2.8125,-2.9238,-2.9443,-2.9689,-2.9972,-3.0049,-3.0126,-3.0305,-3.033,-3.0406,-3.0609,-3.066,-3.0773,-3.0874,-3.0986,-3.1024,-3.1024,-3.1024,-3.1024,-3.1024,-3.1024,-3.1024,-3.1024,-3.1024,-3.1024,-3.1024,-3.1024,-3.1086,-3.1566,-3.1676,-3.1919,-3.2648,-3.3234,-3.363,-3.4158,-3.4725,-3.4872,-3.4953,-3.5279,-3.5489,-3.5489,-3.5489,-3.5489,-3.5489,-3.5489,-3.5489,-3.5489,-3.5489,-3.5489,-3.5489,-3.5489,-3.5489,-3.5489,-3.5489,-3.5522,-1.7374,-1.7337,-1.7308,-1.7286,-1.7286,-1.7286,-1.7286,-1.7286,-1.7286,-1.7286,-1.7286,-1.7286,-1.7286,-1.7293,-1.7308,-1.7301,-1.7308,-1.733,-1.7344,-1.7352,-1.7347,-1.7372,-1.7652,-1.8519,-1.9155,-1.9695,-2.0367,-2.1552,-2.2457,-2.2906,-2.3276,-2.3493,-2.3634,-2.3701,-2.3859,-2.3849,-2.338,-2.2982,-2.2692,-2.2366,-2.1994,-2.1849,-2.1818,-2.1807,-2.1807,-2.1807,-2.1807,-2.1807,-2.1807,-2.1807,-2.1807,-2.1807,-2.1807,-2.1845,-2.197,-2.2761,-2.3922,-2.5558,-2.6348,-2.6609,-2.7317,-2.8467,-2.8782,-2.9106,-2.9524,-2.9768,-2.9845,-3.0126,-3.0126,-3.0216,-3.0394,-3.0571,-3.0698,-3.0811,-3.0874,-3.0949,-3.0973,-3.1024,-3.1024,-3.1024,-3.1024,-3.1024,-3.1024,-3.1024,-3.1024,-3.1024,-3.1024,-3.1086,-3.1185,-3.1296,-3.1431,-3.2101,-3.2648,-3.3024,-3.3408,-3.3988,-3.4442,-3.4543,-3.4905,-3.5344,-3.5489,-3.5489,-3.5489,-3.5489,-3.5489,-3.5489,-3.5489,-3.5489,-3.5489,-3.5489,-3.5489,-3.5489,-3.5489,-3.5489,-3.5489,-1.6951,-1.7286,-1.7286,-1.7286,-1.7286,-1.7286,-1.7286,-1.7286,-1.7286,-1.7286,-1.7286,-1.7286,-1.7286,-1.7337,-1.7447,-1.7556,-1.7611,-1.7582,-1.7604,-1.7516,-1.7421,-1.7286,-1.7559,-1.8288,-1.8796,-1.8972,-1.9687,-2.0512,-2.1463,-2.2138,-2.2643,-2.3387,-2.3464,-2.3464,-2.3446,-2.3498,-2.3073,-2.2603,-2.2249,-2.2025,-2.1859,-2.1807,-2.1807,-2.1807,-2.1807,-2.1807,-2.1807,-2.1807,-2.1807,-2.1807,-2.1807,-2.1807,-2.1807,-2.1807,-2.1818,-2.1904,-2.2611,-2.381,-2.5088,-2.5499,-2.6566,-2.7987,-2.8563,-2.8946,-2.9226,-2.9302,-2.9302,-2.9404,-2.9391,-2.9631,-3.0075,-3.0305,-3.0457,-3.0596,-3.0592,-3.0743,-3.0818,-3.0973,-3.1024,-3.1024,-3.1024,-3.1024,-3.1024,-3.1024,-3.1024,-3.1024,-3.1024,-3.1061,-3.1048,-3.1086,-3.1198,-3.1394,-3.1882,-3.2362,-3.2755,-3.3199,-3.3905,-3.4143,-3.4428,-3.4857,-3.5377,-3.5489,-3.5459,-3.5474,-3.5474,-3.5474,-3.5459,-3.5489,-3.5489,-3.5489,-3.5489,-3.5489,-3.5489,-3.5489,-3.5489,-1.652,-1.7044,-1.7239,-1.7286,-1.7286,-1.7286,-1.7286,-1.7286,-1.7286,-1.7286,-1.7308,-1.7374,-1.7447,-1.7567,-1.7735,-1.7772,-1.7786,-1.7735,-1.7699,-1.7596,-1.7432,-1.7301,-1.7512,-1.811,-1.838,-1.8427,-1.8826,-1.9513,-2.0014,-2.0593,-2.1506,-2.2858,-2.265,-2.2801,-2.2886,-2.2804,-2.2504,-2.2063,-2.1832,-2.1772,-2.1807,-2.1807,-2.1807,-2.1807,-2.1807,-2.1807,-2.1807,-2.1807,-2.1807,-2.1807,-2.1807,-2.1807,-2.1807,-2.1807,-2.1807,-2.1807,-2.2088,-2.2643,-2.3636,-2.4365,-2.5542,-2.6877,-2.8212,-2.8273,-2.851,-2.8624,-2.8687,-2.8725,-2.8737,-2.9063,-2.9441,-2.9593,-2.9655,-2.9816,-3.0017,-3.0293,-3.0483,-3.0483,-3.0585,-3.0686,-3.0751,-3.1024,-3.1024,-3.1024,-3.1024,-3.1024,-3.1024,-3.1024,-3.1024,-3.1024,-3.1048,-3.1161,-3.1371,-3.175,-3.1992,-3.2434,-3.3129,-3.3685,-3.3959,-3.4413,-3.4905,-3.5252,-3.537,-3.5385,-3.5325,-3.4966,-3.4651,-3.5085,-3.5489,-3.5489,-3.5489,-3.5489,-3.5489,-3.5459,-3.5459,-1.6237,-1.6332,-1.7012,-1.7261,-1.7301,-1.7286,-1.7293,-1.7374,-1.733,-1.733,-1.7374,-1.7578,-1.7889,-1.8035,-1.7867,-1.7816,-1.7801,-1.7508,-1.7479,-1.7388,-1.7293,-1.7286,-1.7419,-1.7466,-1.7559,-1.7559,-1.7917,-1.8326,-1.8726,-1.8983,-2.0009,-2.1078,-2.1584,-2.1712,-2.1841,-2.1938,-2.1879,-2.161,-2.1533,-2.1627,-2.1731,-2.1769,-2.1807,-2.1807,-2.1807,-2.1807,-2.1807,-2.1807,-2.1807,-2.1807,-2.1807,-2.1807,-2.1807,-2.1807,-2.1807,-2.1807,-2.1807,-2.2192,-2.2734,-2.3105,-2.3606,-2.4798,-2.6197,-2.7442,-2.7624,-2.799,-2.8124,-2.816,-2.8172,-2.8247,-2.8408,-2.8418,-2.8768,-2.8992,-2.9241,-2.9374,-2.9587,-2.9779,-2.993,-3.0207,-3.0361,-3.0466,-3.0581,-3.049,-3.0893,-3.0932,-3.1024,-3.1024,-3.1024,-3.1024,-3.1024,-3.1061,-3.1061,-3.1198,-3.1235,-3.1713,-3.2362,-3.2918,-3.3304,-3.3822,-3.4428,-3.4736,-3.4889,-3.4891,-3.4696,-3.4277,-3.4023,-3.4487,-3.4936,-3.5325,-3.5474,-3.5429,-3.522,-3.5055,-3.5175,-1.5523,-1.596,-1.6255,-1.6836,-1.7633,-1.7625,-1.7743,-1.7911,-1.7925,-1.7801,-1.7578,-1.7765,-1.7772,-1.775,-1.7845,-1.7816,-1.7801,-1.7658,-1.7618,-1.7545,-1.7465,-1.7308,-1.7286,-1.7286,-1.7333,-1.7271,-1.7318,-1.7372,-1.7824,-1.7812,-1.8584,-1.9556,-2.046,-2.1165,-2.1337,-2.1303,-2.1222,-2.1296,-2.132,-2.1436,-2.1578,-2.1617,-2.1693,-2.1807,-2.1807,-2.1807,-2.1807,-2.1807,-2.1807,-2.1807,-2.1807,-2.1807,-2.1807,-2.1807,-2.1807,-2.1807,-2.1807,-2.1921,-2.215,-2.2541,-2.3417,-2.4713,-2.6024,-2.6815,-2.674,-2.7212,-2.7548,-2.7607,-2.7607,-2.767,-2.8096,-2.817,-2.8318,-2.8401,-2.8433,-2.8526,-2.8687,-2.8939,-2.9189,-2.9486,-2.9548,-2.9637,-2.9787,-2.9862,-3.0409,-3.0854,-3.0945,-3.0998,-3.0908,-3.0882,-3.0843,-3.0764,-3.0738,-3.083,-3.0917,-3.1241,-3.1599,-3.2028,-3.2546,-3.3218,-3.3748,-3.3852,-3.398,-3.4065,-3.4098,-3.3724,-3.3649,-3.3963,-3.4322,-3.4711,-3.5055,-3.5295,-3.5026,-3.4651,-3.4696,-1.4704,-1.5252,-1.5494,-1.6377,-1.7469,-1.7573,-1.7842,-1.8255,-1.8167,-1.8043,-1.7816,-1.7801,-1.7765,-1.7691,-1.7713,-1.7816,-1.7772,-1.7691,-1.7655,-1.756,-1.7421,-1.7293,-1.7286,-1.7264,-1.7267,-1.723,-1.7179,-1.7204,-1.7059,-1.6851,-1.7497,-1.8508,-1.9418,-1.9987,-2.0983,-2.0928,-2.0896,-2.1051,-2.1138,-2.1205,-2.1397,-2.1436,-2.1436,-2.1578,-2.1617,-2.1693,-2.1693,-2.1731,-2.1807,-2.1807,-2.1807,-2.1807,-2.1807,-2.1807,-2.1807,-2.1807,-2.1807,-2.1807,-2.1959,-2.2332,-2.3155,-2.3979,-2.4845,-2.5427,-2.5861,-2.6334,-2.6641,-2.7065,-2.709,-2.7218,-2.7657,-2.7517,-2.7503,-2.7496,-2.7556,-2.7649,-2.7918,-2.819,-2.8473,-2.8731,-2.8931,-2.9308,-2.9347,-2.9549,-2.9876,-3.0346,-3.0516,-3.0568,-3.0581,-3.0568,-3.0594,-3.049,-3.0372,-3.0516,-3.0697,-3.0619,-3.0599,-3.0842,-3.1443,-3.2471,-3.2947,-3.3058,-3.3363,-3.3745,-3.3649,-3.323,-3.3095,-3.3125,-3.3544,-3.4099,-3.4352,-3.4577,-3.4427,-3.4038,-3.4008,-1.3966,-1.4016,-1.4785,-1.5817,-1.6889,-1.7036,-1.7477,-1.8121,-1.7979,-1.7874,-1.7823,-1.7816,-1.7925,-1.8013,-1.7808,-1.7699,-1.7625,-1.7472,-1.7369,-1.7318,-1.7274,-1.7289,-1.7267,-1.7208,-1.7026,-1.6954,-1.6895,-1.6778,-1.6484,-1.647,-1.6845,-1.7323,-1.8036,-1.8806,-2.043,-2.0625,-2.0693,-2.0858,-2.0906,-2.1022,-2.1167,-2.1205,-2.1244,-2.132,-2.1464,-2.154,-2.1578,-2.1731,-2.1807,-2.1807,-2.1807,-2.1807,-2.1807,-2.1807,-2.1807,-2.1807,-2.1807,-2.1807,-2.1807,-2.1845,-2.2283,-2.2815,-2.3638,-2.4015,-2.4671,-2.5216,-2.575,-2.627,-2.6429,-2.6531,-2.6578,-2.6612,-2.6713,-2.6798,-2.6895,-2.6981,-2.7259,-2.7452,-2.7745,-2.7927,-2.8646,-2.9235,-2.9222,-2.9274,-2.9497,-2.9797,-3.0009,-3.0113,-3.015,-3.015,-3.015,-3.0098,-2.9954,-2.9993,-3.0019,-2.9666,-2.9609,-2.9825,-3.0365,-3.1337,-3.2106,-3.237,-3.2776,-3.33,-3.3051,-3.2512,-3.2287,-3.2138,-3.2647,-3.314,-3.3425,-3.3589,-3.3499,-3.341,-3.329,-1.3635,-1.3635,-1.393,-1.4569,-1.5544,-1.643,-1.7106,-1.7612,-1.7929,-1.8013,-1.7845,-1.7816,-1.7706,-1.76,-1.7505,-1.7391,-1.7208,-1.7391,-1.7228,-1.7018,-1.7011,-1.7011,-1.6974,-1.6835,-1.6712,-1.6617,-1.6565,-1.6543,-1.6389,-1.6177,-1.6541,-1.7054,-1.7374,-1.8449,-1.9399,-1.9814,-1.9971,-2.0576,-2.0731,-2.077,-2.0945,-2.1012,-2.1051,-2.1177,-2.1349,-2.1464,-2.1464,-2.1693,-2.1769,-2.1769,-2.1807,-2.1807,-2.1807,-2.1807,-2.1807,-2.1807,-2.1807,-2.1807,-2.1807,-2.1818,-2.1859,-2.2171,-2.2589,-2.3115,-2.3661,-2.4185,-2.4874,-2.5476,-2.5664,-2.5921,-2.6374,-2.649,-2.6575,-2.6575,-2.6634,-2.6634,-2.6779,-2.6839,-2.6983,-2.7109,-2.7618,-2.8023,-2.8213,-2.8469,-2.873,-2.9013,-2.9248,-2.9483,-2.9549,-2.9562,-2.9598,-2.9562,-2.9497,-2.9497,-2.9392,-2.9091,-2.9,-2.9223,-2.953,-3.0097,-3.0793,-3.1589,-3.1971,-3.2383,-3.2094,-3.1765,-3.178,-3.1795,-3.1839,-3.2138,-3.2542,-3.2826,-3.2826,-3.2632,-3.2318,-1.3283,-1.3283,-1.3283,-1.3523,-1.4263,-1.5746,-1.6769,-1.7394,-1.7927,-1.7947,-1.7644,-1.7633,-1.7472,-1.7245,-1.7143,-1.6989,-1.6778,-1.6872,-1.6945,-1.6734,-1.6734,-1.6734,-1.6646,-1.6514,-1.6367,-1.6265,-1.6199,-1.617,-1.5987,-1.5833,-1.6027,-1.6434,-1.6957,-1.74,-1.8158,-1.8647,-1.9253,-1.9805,-2.0089,-2.0333,-2.0615,-2.0819,-2.0858,-2.1002,-2.1156,-2.1331,-2.1436,-2.1589,-2.1731,-2.1769,-2.1769,-2.1769,-2.1807,-2.1807,-2.1807,-2.1807,-2.1807,-2.1807,-2.1807,-2.1807,-2.1828,-2.1877,-2.2365,-2.2703,-2.2964,-2.3497,-2.4107,-2.4612,-2.4838,-2.5146,-2.5581,-2.5769,-2.6129,-2.6129,-2.6383,-2.643,-2.6533,-2.6618,-2.6687,-2.6752,-2.6875,-2.7134,-2.7382,-2.7507,-2.7814,-2.8142,-2.8425,-2.8686,-2.8983,-2.8996,-2.8996,-2.8983,-2.8869,-2.8778,-2.8712,-2.8582,-2.8543,-2.8647,-2.8947,-2.9268,-3.0143,-3.1019,-3.125,-3.1489,-3.159,-3.1631,-3.157,-3.157,-3.166,-3.1735,-3.1914,-3.2079,-3.2123,-3.1989,-3.1765,-1.2813,-1.2797,-1.2802,-1.2802,-1.3148,-1.4887,-1.6435,-1.7657,-1.7753,-1.7633,-1.7301,-1.734,-1.7172,-1.6969,-1.6903,-1.6697,-1.6492,-1.6477,-1.6455,-1.6411,-1.6404,-1.6404,-1.6345,-1.6265,-1.6067,-1.595,-1.5877,-1.5789,-1.5489,-1.5526,-1.5546,-1.5551,-1.5827,-1.6312,-1.6911,-1.744,-1.8327,-1.9173,-1.9854,-2.0177,-2.0566,-2.0654,-2.0693,-2.077,-2.0896,-2.1061,-2.1215,-2.1397,-2.154,-2.1655,-2.178,-2.1769,-2.1807,-2.1807,-2.1807,-2.1807,-2.1807,-2.1807,-2.1807,-2.1807,-2.1807,-2.1807,-2.1845,-2.23,-2.2628,-2.2879,-2.3338,-2.3815,-2.4107,-2.4168,-2.4301,-2.4898,-2.5453,-2.5781,-2.6176,-2.6314,-2.6487,-2.6568,-2.6636,-2.6726,-2.6829,-2.7032,-2.7268,-2.7395,-2.7421,-2.7639,-2.7934,-2.8072,-2.8294,-2.836,-2.8347,-2.832,-2.8203,-2.8007,-2.7954,-2.8059,-2.8012,-2.8103,-2.8305,-2.8698,-2.9596,-3.0189,-3.0335,-3.0608,-3.1279,-3.1425,-3.1234,-3.1307,-3.1511,-3.1585,-3.166,-3.169,-3.1824,-3.175,-3.16,-1.2716,-1.2522,-1.2517,-1.242,-1.2472,-1.3514,-1.4948,-1.6578,-1.7174,-1.7352,-1.7318,-1.7084,-1.6863,-1.6888,-1.6653,-1.633,-1.6228,-1.6206,-1.6184,-1.6133,-1.6038,-1.6045,-1.5979,-1.5855,-1.5687,-1.5621,-1.557,-1.5555,-1.5474,-1.5389,-1.5389,-1.5438,-1.5389,-1.5624,-1.5831,-1.6079,-1.7529,-1.8776,-1.9529,-2.0128,-2.045,-2.0615,-2.0615,-2.0654,-2.078,-2.0945,-2.1061,-2.1205,-2.131,-2.1397,-2.155,-2.1578,-2.1589,-2.1693,-2.1807,-2.1807,-2.1807,-2.1807,-2.1807,-2.1807,-2.1807,-2.1807,-2.1807,-2.1845,-2.2111,-2.2289,-2.2569,-2.3016,-2.3313,-2.3375,-2.3841,-2.4432,-2.4838,-2.5123,-2.5699,-2.6314,-2.6452,-2.6487,-2.6555,-2.6636,-2.6726,-2.6897,-2.7134,-2.7235,-2.7281,-2.7403,-2.7542,-2.7646,-2.7725,-2.7863,-2.7902,-2.7889,-2.7837,-2.7686,-2.7633,-2.7699,-2.762,-2.7622,-2.7835,-2.8066,-2.8519,-2.9008,-2.9259,-2.9783,-3.0446,-3.0717,-3.0748,-3.0955,-3.1278,-3.1467,-3.1555,-3.1525,-3.1496,-3.1496,-3.1496,-1.2451,-1.228,-1.2269,-1.2178,-1.2242,-1.2905,-1.3964,-1.506,-1.5782,-1.6104,-1.613,-1.6196,-1.6228,-1.6077,-1.6118,-1.6023,-1.5752,-1.584,-1.5848,-1.5774,-1.5738,-1.5723,-1.5628,-1.5548,-1.5489,-1.5389,-1.5389,-1.5418,-1.5389,-1.5389,-1.5389,-1.5389,-1.5389,-1.5389,-1.559,-1.6031,-1.6788,-1.7997,-1.9006,-1.9844,-2.0323,-2.0566,-2.0615,-2.0615,-2.0731,-2.0819,-2.0906,-2.1051,-2.1099,-2.1215,-2.1387,-2.1502,-2.154,-2.1693,-2.1769,-2.1807,-2.1807,-2.1807,-2.1807,-2.1807,-2.1807,-2.1807,-2.1807,-2.1807,-2.1807,-2.1959,-2.2176,-2.2429,-2.2515,-2.2729,-2.3412,-2.4022,-2.4179,-2.4371,-2.53,-2.628,-2.6349,-2.6361,-2.643,-2.6499,-2.6636,-2.6773,-2.693,-2.7019,-2.7134,-2.7235,-2.7335,-2.7442,-2.7514,-2.762,-2.7646,-2.7633,-2.7594,-2.7542,-2.7503,-2.7503,-2.7503,-2.7503,-2.757,-2.7723,-2.7822,-2.8203,-2.8844,-2.9293,-2.9687,-2.9981,-3.0359,-3.0718,-3.1029,-3.1278,-3.1496,-3.1496,-3.1496,-3.1496,-3.1496,-1.2089,-1.2062,-1.2051,-1.2013,-1.2126,-1.2722,-1.3044,-1.3113,-1.3783,-1.4219,-1.4482,-1.5006,-1.5137,-1.5088,-1.5389,-1.5475,-1.5394,-1.5436,-1.5592,-1.5403,-1.5504,-1.5511,-1.5504,-1.5389,-1.5389,-1.5389,-1.5389,-1.5389,-1.5389,-1.5389,-1.5389,-1.5389,-1.5389,-1.5389,-1.5514,-1.5906,-1.6542,-1.7147,-1.7957,-1.8718,-2.0001,-2.045,-2.0527,-2.0615,-2.0654,-2.0693,-2.0829,-2.0906,-2.0945,-2.1128,-2.131,-2.1425,-2.1578,-2.1693,-2.1769,-2.1807,-2.1807,-2.1807,-2.1807,-2.1807,-2.1807,-2.1807,-2.1807,-2.1807,-2.1807,-2.1807,-2.1959,-2.2035,-2.2138,-2.2176,-2.2681,-2.3375,-2.3754,-2.4009,-2.4683,-2.5264,-2.5406,-2.5699,-2.6176,-2.6314,-2.6533,-2.6658,-2.676,-2.6897,-2.7019,-2.7079,-2.7214,-2.7302,-2.7369,-2.7436,-2.7469,-2.7503,-2.7503,-2.7503,-2.7503,-2.7503,-2.7503,-2.7503,-2.7503,-2.759,-2.7789,-2.8157,-2.8597,-2.8807,-2.8985,-2.9642,-3.0086,-3.0464,-3.0881,-3.1336,-3.1496,-3.1496,-3.1496,-3.1496,-3.1496,-1.1986,-1.1763,-1.1591,-1.1477,-1.1521,-1.169,-1.1783,-1.1778,-1.1903,-1.2901,-1.411,-1.4261,-1.4232,-1.4215,-1.4581,-1.4733,-1.4818,-1.509,-1.5347,-1.5396,-1.5389,-1.5389,-1.5389,-1.5389,-1.5389,-1.5389,-1.5389,-1.5389,-1.5389,-1.5389,-1.5389,-1.5389,-1.5389,-1.5389,-1.5431,-1.5824,-1.6064,-1.6542,-1.6903,-1.7836,-1.9204,-1.9687,-1.9814,-2.0255,-2.0527,-2.0527,-2.0615,-2.0693,-2.0683,-2.076,-2.1128,-2.1387,-2.1683,-2.1769,-2.1769,-2.1769,-2.1769,-2.1807,-2.1807,-2.1807,-2.1807,-2.1807,-2.1807,-2.1807,-2.1807,-2.1807,-2.1807,-2.1807,-2.1807,-2.1807,-2.1997,-2.2729,-2.3276,-2.3607,-2.4034,-2.4276,-2.4528,-2.5182,-2.5873,-2.6198,-2.6452,-2.6555,-2.6658,-2.676,-2.693,-2.7066,-2.7201,-2.7335,-2.7369,-2.7423,-2.7436,-2.7469,-2.7503,-2.7503,-2.7503,-2.7503,-2.7503,-2.7503,-2.7503,-2.7623,-2.7789,-2.7941,-2.8124,-2.8091,-2.8306,-2.8967,-2.9625,-3.0178,-3.0614,-3.1117,-3.1365,-3.1307,-3.1438,-3.1496,-3.1496,-1.1666,-1.1537,-1.1364,-1.1311,-1.1311,-1.1311,-1.1311,-1.1311,-1.1311,-1.1919,-1.2921,-1.3125,-1.3238,-1.3324,-1.3747,-1.4188,-1.4356,-1.4748,-1.5131,-1.5305,-1.5389,-1.5389,-1.5389,-1.5389,-1.5389,-1.5389,-1.5389,-1.5389,-1.5389,-1.5389,-1.5389,-1.5389,-1.5389,-1.5389,-1.5389,-1.5472,-1.5624,-1.6105,-1.618,-1.6952,-1.8198,-1.8559,-1.8847,-1.9402,-1.9766,-1.9893,-2.0206,-2.0323,-2.0605,-2.0644,-2.0935,-2.1167,-2.1425,-2.1578,-2.1655,-2.1693,-2.1731,-2.1807,-2.1769,-2.1769,-2.1769,-2.1807,-2.1807,-2.1807,-2.1807,-2.1807,-2.1807,-2.1807,-2.1807,-2.1807,-2.1997,-2.258,-2.2617,-2.2793,-2.3658,-2.4312,-2.4671,-2.5229,-2.5838,-2.6349,-2.6487,-2.6533,-2.6602,-2.6602,-2.6726,-2.676,-2.693,-2.7066,-2.7154,-2.7356,-2.7403,-2.7436,-2.7436,-2.7503,-2.7503,-2.7503,-2.7503,-2.7503,-2.7503,-2.7556,-2.7623,-2.7556,-2.7556,-2.7709,-2.7908,-2.8287,-2.8917,-2.9563,-3.0208,-3.0718,-3.0925,-3.1087,-3.1248,-3.1409,-3.1438,-1.1407,-1.1359,-1.1354,-1.1332,-1.1311,-1.1311,-1.1311,-1.1311,-1.1311,-1.1311,-1.1521,-1.206,-1.2235,-1.2491,-1.296,-1.3597,-1.4062,-1.4398,-1.4831,-1.5131,-1.534,-1.5389,-1.5389,-1.5389,-1.5389,-1.5389,-1.5389,-1.5389,-1.5389,-1.5389,-1.5389,-1.5389,-1.5389,-1.5389,-1.5389,-1.5431,-1.5555,-1.559,-1.5714,-1.5906,-1.6632,-1.735,-1.7876,-1.8278,-1.8647,-1.9094,-1.9411,-1.9854,-2.0333,-2.0576,-2.0702,-2.1051,-2.1205,-2.1397,-2.1436,-2.1512,-2.1655,-2.1693,-2.1731,-2.1759,-2.1769,-2.1807,-2.1807,-2.1807,-2.1807,-2.1807,-2.1807,-2.1807,-2.1807,-2.1845,-2.2073,-2.2176,-2.2101,-2.2176,-2.3217,-2.4156,-2.4636,-2.5087,-2.5616,-2.6233,-2.6452,-2.6499,-2.6533,-2.6533,-2.6533,-2.6533,-2.6602,-2.6692,-2.6829,-2.71,-2.7235,-2.7335,-2.7403,-2.7436,-2.7469,-2.7503,-2.7503,-2.7503,-2.7503,-2.7503,-2.7503,-2.7503,-2.7503,-2.7503,-2.7756,-2.8039,-2.8287,-2.8821,-2.9501,-3.0178,-3.0614,-3.0792,-3.0792,-3.0955,-3.1292,-1.1851,-1.1634,-1.1628,-1.1488,-1.1337,-1.1321,-1.1311,-1.1311,-1.1327,-1.1311,-1.1386,-1.1402,-1.1521,-1.157,-1.2283,-1.2851,-1.3242,-1.3825,-1.4292,-1.4615,-1.5132,-1.5335,-1.5389,-1.5389,-1.5389,-1.5389,-1.5389,-1.5389,-1.5389,-1.5389,-1.5389,-1.5389,-1.5389,-1.5389,-1.5389,-1.5389,-1.5389,-1.5389,-1.5389,-1.559,-1.5782,-1.6542,-1.731,-1.7755,-1.8167,-1.8247,-1.8487,-1.9085,-1.9411,-1.9784,-2.0391,-2.0858,-2.1089,-2.1205,-2.1244,-2.1359,-2.1502,-2.1578,-2.1655,-2.1721,-2.1769,-2.1807,-2.1807,-2.1807,-2.1807,-2.1807,-2.1807,-2.1807,-2.1807,-2.1807,-2.1921,-2.1921,-2.1883,-2.1883,-2.2494,-2.3327,-2.395,-2.4384,-2.4886,-2.5652,-2.6349,-2.6418,-2.6487,-2.6533,-2.6568,-2.6602,-2.6624,-2.6692,-2.6794,-2.6964,-2.71,-2.7201,-2.7302,-2.7403,-2.7469,-2.7503,-2.7503,-2.7503,-2.7503,-2.7503,-2.7503,-2.7503,-2.7503,-2.7503,-2.759,-2.7809,-2.8091,-2.8287,-2.8839,-2.9518,-3.0208,-3.051,-3.045,-3.0584,-3.097]}]]